[[{"header":{"parameterUnit":"m.s-1","parameterCategory":1,"la1":30.6,"la2":29.2853,"lo1":-89.7004,"lo2":-87.6739,"dy":0.0162,"dx":0.0183,"nx":112,"ny":82,"refTime":"2024-11-22T18:00:00:Z","depth":0,"parameterNumber":2,"parameterNumberName":"U-component_of_WINDS"},"data":[0.0,0.0,0.0,0.0,0.0,0.0,0.0,0.0,0.0,0.0,0.0,0.0,0.0,0.0,0.0,0.0,0.0,0.0,0.0,0.0,0.0,0.0,0.0,0.0,0.0,0.0,0.0,0.0,0.0,0.0,0.0,0.0,0.0,0.0,0.0,0.0,0.0,0.0,0.0,0.0,0.0,0.0,0.0,0.0,0.0,0.0,0.0,0.0,0.0,0.0,0.0,0.0,0.0,0.0,0.0,0.0,0.0,0.0,0.0,0.0,0.0,0.0,0.0,0.0,0.0,0.0,0.0,0.0,0.0,0.0,0.0,0.0,0.0,0.0,0.0,0.0,0.0,0.0,0.0,0.0,0.0,0.0,0.0,0.0,0.0,0.0,0.0,0.0,0.0,0.0,-3.3789,-3.4785,-3.5566,-3.5975,-3.5914,-3.5907,-3.5044,-3.304,0.0,0.0,0.0,0.0,0.0,0.0,0.0,0.0,0.0,0.0,0.0,0.0,0.0,0.0,0.0,0.0,0.0,0.0,0.0,0.0,0.0,0.0,0.0,0.0,0.0,0.0,0.0,0.0,0.0,0.0,0.0,0.0,0.0,0.0,0.0,0.0,0.0,0.0,0.0,0.0,0.0,0.0,0.0,0.0,0.0,0.0,0.0,0.0,0.0,0.0,0.0,0.0,0.0,0.0,0.0,0.0,0.0,0.0,0.0,0.0,0.0,0.0,0.0,0.0,0.0,0.0,0.0,0.0,0.0,0.0,0.0,0.0,0.0,0.0,0.0,0.0,0.0,0.0,0.0,0.0,0.0,0.0,0.0,0.0,0.0,0.0,0.0,0.0,0.0,0.0,0.0,0.0,0.0,0.0,0.0,0.0,0.0,0.0,0.0,0.0,0.0,0.0,0.0,0.0,-3.4023,-3.5625,-3.5918,-3.5996,-3.5995,-3.5922,-3.4809,-3.2249,0.0,0.0,0.0,0.0,0.0,0.0,0.0,0.0,0.0,0.0,0.0,0.0,0.0,0.0,0.0,0.0,0.0,0.0,0.0,0.0,0.0,0.0,0.0,0.0,0.0,0.0,0.0,0.0,0.0,0.0,0.0,0.0,0.0,0.0,0.0,0.0,0.0,0.0,0.0,0.0,0.0,0.0,0.0,0.0,0.0,0.0,0.0,0.0,0.0,0.0,0.0,0.0,0.0,0.0,0.0,0.0,0.0,0.0,0.0,0.0,0.0,0.0,0.0,0.0,0.0,0.0,0.0,0.0,0.0,0.0,0.0,0.0,0.0,0.0,0.0,0.0,0.0,0.0,0.0,0.0,0.0,0.0,0.0,0.0,0.0,0.0,0.0,0.0,0.0,0.0,0.0,0.0,0.0,0.0,0.0,0.0,0.0,0.0,0.0,0.0,0.0,0.0,0.0,-3.3633,-3.459,-3.5859,-3.5996,-3.5996,-3.5996,-3.5944,-3.4755,-3.2074,-3.1382,0.0,0.0,0.0,0.0,0.0,0.0,0.0,0.0,0.0,0.0,0.0,0.0,0.0,0.0,0.0,0.0,0.0,0.0,0.0,0.0,0.0,0.0,0.0,0.0,0.0,0.0,0.0,0.0,0.0,0.0,0.0,0.0,0.0,0.0,0.0,0.0,0.0,0.0,0.0,0.0,0.0,0.0,0.0,0.0,0.0,0.0,0.0,0.0,0.0,0.0,0.0,0.0,0.0,0.0,0.0,0.0,0.0,0.0,0.0,0.0,0.0,0.0,0.0,0.0,0.0,0.0,0.0,0.0,0.0,0.0,0.0,0.0,0.0,0.0,0.0,0.0,0.0,0.0,0.0,0.0,0.0,0.0,0.0,0.0,0.0,0.0,0.0,0.0,0.0,0.0,0.0,0.0,0.0,0.0,0.0,0.0,0.0,0.0,0.0,0.0,0.0,0.0,-3.4629,-3.5254,-3.5937,-3.5996,-3.5996,-3.5996,-3.5578,-3.4241,-3.1768,-3.0552,0.0,0.0,0.0,0.0,0.0,0.0,0.0,0.0,0.0,0.0,0.0,0.0,0.0,0.0,0.0,0.0,0.0,0.0,0.0,0.0,0.0,0.0,0.0,0.0,0.0,0.0,0.0,0.0,0.0,0.0,0.0,0.0,0.0,0.0,0.0,0.0,0.0,0.0,0.0,0.0,0.0,0.0,0.0,0.0,0.0,0.0,0.0,0.0,0.0,0.0,0.0,0.0,0.0,0.0,0.0,0.0,0.0,0.0,0.0,0.0,0.0,0.0,0.0,0.0,0.0,0.0,0.0,0.0,0.0,0.0,0.0,0.0,0.0,0.0,0.0,0.0,0.0,0.0,0.0,0.0,0.0,0.0,0.0,0.0,0.0,0.0,0.0,0.0,0.0,0.0,0.0,0.0,0.0,0.0,0.0,0.0,0.0,0.0,0.0,0.0,0.0,0.0,-3.4434,-3.5937,-3.5996,-3.5996,-3.5996,-3.5996,-3.4512,-3.2785,-3.0903,-2.9209,0.0,0.0,0.0,0.0,0.0,0.0,0.0,0.0,0.0,0.0,0.0,0.0,0.0,0.0,0.0,0.0,0.0,0.0,0.0,0.0,0.0,0.0,0.0,0.0,0.0,0.0,0.0,0.0,0.0,0.0,0.0,0.0,0.0,0.0,0.0,0.0,0.0,0.0,0.0,0.0,0.0,0.0,0.0,0.0,0.0,0.0,0.0,0.0,0.0,0.0,0.0,0.0,0.0,0.0,0.0,0.0,0.0,0.0,0.0,0.0,0.0,0.0,0.0,0.0,0.0,0.0,0.0,0.0,0.0,0.0,0.0,0.0,0.0,0.0,0.0,0.0,0.0,0.0,0.0,0.0,0.0,0.0,0.0,0.0,0.0,0.0,0.0,0.0,0.0,0.0,0.0,0.0,0.0,0.0,0.0,0.0,0.0,0.0,0.0,0.0,0.0,0.0,-3.3924,-3.5391,0.0,-3.5996,-3.5781,-3.5234,-3.4545,-3.2949,-3.0139,0.0,0.0,0.0,0.0,0.0,0.0,0.0,0.0,0.0,0.0,0.0,0.0,0.0,0.0,0.0,0.0,0.0,0.0,0.0,0.0,0.0,0.0,0.0,0.0,0.0,0.0,0.0,0.0,0.0,0.0,0.0,0.0,0.0,0.0,0.0,0.0,0.0,0.0,0.0,0.0,0.0,0.0,0.0,0.0,0.0,0.0,0.0,0.0,0.0,0.0,0.0,0.0,0.0,0.0,0.0,0.0,0.0,0.0,0.0,0.0,0.0,0.0,0.0,0.0,0.0,0.0,0.0,0.0,0.0,0.0,0.0,0.0,0.0,0.0,0.0,0.0,0.0,0.0,0.0,0.0,0.0,0.0,0.0,0.0,0.0,0.0,0.0,0.0,0.0,0.0,0.0,0.0,0.0,0.0,0.0,0.0,0.0,0.0,0.0,0.0,0.0,0.0,-3.1462,-3.361,-3.5259,0.0,-3.593,-3.5621,-3.4743,-3.4157,-3.2598,-2.9687,0.0,0.0,0.0,0.0,0.0,0.0,0.0,0.0,0.0,0.0,0.0,0.0,0.0,0.0,0.0,0.0,0.0,0.0,0.0,0.0,0.0,0.0,0.0,0.0,0.0,0.0,0.0,0.0,0.0,0.0,0.0,0.0,0.0,0.0,0.0,0.0,0.0,0.0,0.0,0.0,0.0,0.0,0.0,0.0,0.0,0.0,0.0,0.0,0.0,0.0,0.0,0.0,0.0,0.0,0.0,0.0,0.0,0.0,0.0,0.0,0.0,0.0,0.0,0.0,0.0,0.0,0.0,0.0,0.0,0.0,0.0,0.0,0.0,0.0,0.0,0.0,0.0,0.0,0.0,0.0,0.0,0.0,0.0,0.0,0.0,0.0,0.0,0.0,0.0,0.0,0.0,0.0,0.0,0.0,0.0,0.0,0.0,0.0,0.0,0.0,0.0,0.0,-3.0603,-3.3583,-3.5707,-3.5707,-3.5812,-3.5529,-3.4669,-3.3119,-3.1424,0.0,0.0,0.0,0.0,0.0,0.0,0.0,0.0,0.0,0.0,0.0,0.0,0.0,0.0,0.0,0.0,0.0,0.0,0.0,0.0,0.0,0.0,0.0,0.0,0.0,0.0,0.0,0.0,0.0,0.0,0.0,0.0,0.0,0.0,0.0,0.0,0.0,0.0,0.0,0.0,0.0,0.0,0.0,0.0,0.0,0.0,0.0,0.0,0.0,0.0,0.0,0.0,0.0,0.0,0.0,0.0,0.0,0.0,0.0,0.0,0.0,0.0,0.0,0.0,0.0,0.0,0.0,0.0,0.0,0.0,0.0,0.0,0.0,0.0,0.0,0.0,0.0,0.0,0.0,0.0,0.0,0.0,0.0,0.0,0.0,0.0,0.0,0.0,0.0,0.0,0.0,0.0,0.0,0.0,0.0,0.0,0.0,0.0,0.0,0.0,0.0,0.0,0.0,-3.0525,-3.3552,-3.5707,-3.5707,-3.5226,-3.4556,-3.3696,-3.2659,-3.1063,-2.8724,0.0,0.0,0.0,0.0,0.0,0.0,0.0,0.0,0.0,0.0,0.0,0.0,0.0,0.0,0.0,0.0,0.0,0.0,0.0,0.0,0.0,0.0,0.0,0.0,0.0,0.0,0.0,0.0,0.0,0.0,0.0,0.0,0.0,0.0,0.0,0.0,0.0,0.0,0.0,0.0,0.0,0.0,0.0,0.0,0.0,0.0,0.0,0.0,0.0,0.0,0.0,0.0,0.0,0.0,0.0,0.0,0.0,0.0,0.0,0.0,0.0,0.0,0.0,0.0,0.0,0.0,0.0,0.0,0.0,0.0,0.0,0.0,0.0,0.0,0.0,0.0,0.0,0.0,0.0,0.0,0.0,0.0,0.0,0.0,0.0,0.0,0.0,0.0,0.0,0.0,0.0,0.0,0.0,0.0,0.0,0.0,0.0,0.0,0.0,0.0,0.0,0.0,-3.0458,-3.3175,-3.5093,-3.5093,-3.4404,-3.3596,-3.2714,-3.221,-3.0872,-2.8367,0.0,0.0,0.0,0.0,0.0,0.0,0.0,0.0,0.0,0.0,0.0,0.0,0.0,0.0,0.0,0.0,0.0,0.0,0.0,0.0,0.0,0.0,0.0,0.0,0.0,0.0,0.0,0.0,0.0,0.0,0.0,0.0,0.0,0.0,0.0,0.0,0.0,0.0,0.0,0.0,0.0,0.0,0.0,0.0,0.0,0.0,0.0,0.0,0.0,0.0,0.0,0.0,0.0,0.0,0.0,0.0,0.0,0.0,0.0,0.0,0.0,0.0,0.0,0.0,0.0,0.0,0.0,0.0,0.0,0.0,0.0,0.0,0.0,0.0,0.0,0.0,0.0,0.0,0.0,0.0,0.0,0.0,0.0,0.0,0.0,0.0,0.0,0.0,0.0,0.0,0.0,0.0,0.0,0.0,0.0,0.0,0.0,0.0,0.0,0.0,0.0,0.0,-3.0404,-3.2622,-3.4167,-3.409,-3.3418,-3.2643,-3.1855,-3.1771,-3.0781,-2.8431,0.0,0.0,0.0,0.0,0.0,0.0,0.0,0.0,0.0,0.0,0.0,0.0,0.0,0.0,0.0,0.0,0.0,0.0,0.0,0.0,0.0,0.0,0.0,0.0,0.0,0.0,0.0,0.0,0.0,0.0,0.0,0.0,0.0,0.0,0.0,0.0,0.0,0.0,0.0,0.0,0.0,0.0,0.0,0.0,0.0,0.0,0.0,0.0,0.0,0.0,0.0,0.0,0.0,0.0,0.0,0.0,0.0,0.0,0.0,0.0,-3.8273,0.0,0.0,0.0,0.0,0.0,0.0,0.0,0.0,0.0,0.0,0.0,0.0,0.0,0.0,0.0,0.0,0.0,0.0,0.0,0.0,0.0,0.0,0.0,0.0,0.0,0.0,0.0,0.0,0.0,0.0,0.0,0.0,0.0,0.0,0.0,0.0,0.0,0.0,0.0,0.0,0.0,-3.0373,-3.2622,-3.3936,-3.3256,-3.2466,-3.1925,-3.1746,-3.1144,-3.0269,-2.9055,-2.8449,0.0,0.0,0.0,0.0,0.0,0.0,0.0,0.0,0.0,0.0,0.0,0.0,0.0,0.0,0.0,0.0,0.0,0.0,0.0,0.0,0.0,0.0,0.0,0.0,0.0,0.0,0.0,0.0,0.0,0.0,0.0,0.0,0.0,0.0,0.0,0.0,0.0,0.0,0.0,0.0,0.0,0.0,0.0,0.0,0.0,0.0,0.0,0.0,0.0,0.0,0.0,0.0,0.0,0.0,0.0,0.0,0.0,0.0,0.0,0.0,-3.9133,0.0,0.0,0.0,0.0,0.0,0.0,0.0,0.0,0.0,0.0,0.0,0.0,0.0,0.0,0.0,0.0,0.0,0.0,0.0,0.0,0.0,0.0,0.0,0.0,0.0,0.0,0.0,0.0,0.0,0.0,0.0,0.0,0.0,0.0,0.0,0.0,0.0,0.0,0.0,0.0,-3.0202,-3.2186,-3.3256,-3.241,-3.1564,-3.1077,-3.1077,-3.0689,-3.01,-2.9257,-2.885,0.0,0.0,0.0,0.0,0.0,0.0,0.0,0.0,0.0,0.0,0.0,0.0,0.0,0.0,0.0,0.0,0.0,0.0,0.0,0.0,0.0,0.0,0.0,0.0,0.0,0.0,0.0,0.0,0.0,0.0,0.0,0.0,0.0,0.0,0.0,0.0,0.0,0.0,0.0,0.0,0.0,0.0,0.0,0.0,0.0,0.0,0.0,0.0,0.0,0.0,0.0,0.0,0.0,-4.1444,-4.1517,-4.1517,-4.1517,-4.1517,-4.1479,-4.0818,-4.0898,-4.1408,-4.0024,0.0,0.0,0.0,0.0,0.0,0.0,0.0,0.0,0.0,0.0,0.0,0.0,0.0,0.0,0.0,0.0,0.0,0.0,0.0,0.0,0.0,0.0,0.0,0.0,-3.8276,-3.7662,-3.54,0.0,0.0,0.0,0.0,0.0,0.0,0.0,0.0,0.0,0.0,0.0,-3.0087,-3.1724,-3.2513,-3.1501,-3.0765,-3.0323,-3.0323,-3.0323,-3.0075,-2.9453,-2.9269,-2.8902,0.0,0.0,0.0,0.0,0.0,0.0,0.0,0.0,0.0,0.0,0.0,0.0,0.0,0.0,0.0,0.0,0.0,0.0,0.0,0.0,0.0,0.0,0.0,0.0,0.0,0.0,0.0,0.0,0.0,0.0,0.0,0.0,-3.8166,-3.995,0.0,0.0,0.0,0.0,0.0,0.0,0.0,0.0,0.0,0.0,0.0,0.0,0.0,-4.0985,-4.1095,-4.1791,-4.2139,-4.2158,-4.2837,-4.3167,-4.3167,-4.3167,-4.3167,-4.3167,-4.3057,0.0,-4.114,-4.0937,0.0,0.0,0.0,0.0,0.0,0.0,0.0,0.0,0.0,0.0,0.0,0.0,0.0,0.0,0.0,0.0,0.0,0.0,0.0,0.0,0.0,0.0,-3.9195,-3.9342,-3.9391,-3.9088,0.0,-3.6561,-3.5067,-3.3593,-3.3401,0.0,0.0,0.0,0.0,0.0,0.0,0.0,-3.0394,-3.1834,-3.2199,-3.0426,-3.0118,-3.0042,-3.0042,-3.0042,-3.0099,-3.0229,-2.9534,-2.9063,-2.8963,-2.8192,0.0,0.0,0.0,0.0,0.0,0.0,0.0,0.0,0.0,0.0,0.0,0.0,0.0,0.0,0.0,0.0,0.0,0.0,0.0,0.0,0.0,0.0,0.0,0.0,0.0,0.0,0.0,0.0,0.0,-3.7392,-3.9003,-3.9718,-3.9309,-3.8898,0.0,0.0,0.0,0.0,0.0,0.0,0.0,0.0,0.0,-4.0793,-4.083,-4.1046,-4.1497,-4.1839,-4.2038,-4.2019,-4.238,-4.2542,-4.2542,-4.2542,-4.2542,-4.2542,-4.2542,-4.2335,-4.1996,-4.1838,-4.1093,-3.9974,0.0,0.0,0.0,0.0,-3.8516,-3.8687,-3.989,-3.9993,-3.9438,-3.8527,0.0,0.0,0.0,0.0,0.0,0.0,0.0,0.0,0.0,0.0,-3.8801,-3.9451,-3.9599,-3.9505,-3.9116,-3.8376,-3.7195,0.0,-3.4758,-3.3713,-3.042,0.0,0.0,0.0,0.0,-3.0716,-3.0538,-3.1686,-3.183,-3.0016,-2.9829,-2.9829,-2.9829,-2.9829,-2.9869,-3.0,-2.9746,-2.9615,-2.9615,-2.8941,-2.8403,0.0,0.0,0.0,0.0,0.0,0.0,0.0,0.0,0.0,0.0,0.0,0.0,0.0,0.0,0.0,0.0,0.0,0.0,0.0,0.0,0.0,0.0,0.0,0.0,0.0,0.0,0.0,0.0,-3.8095,-3.9359,-3.9552,-3.9463,-3.9143,0.0,0.0,0.0,0.0,0.0,0.0,-3.9691,-3.9764,-4.0134,-4.0863,-4.0919,-4.1184,-4.1793,-4.181,-4.181,-4.181,-4.181,-4.181,-4.181,-4.181,-4.181,-4.181,-4.181,-4.2041,-4.2483,-4.2414,-4.2003,-4.1352,-4.0744,-4.0029,-3.9386,-3.9992,-3.9955,-3.9874,-4.173,-4.2114,-4.1575,-4.0378,-3.9679,-3.8789,-3.6147,0.0,0.0,0.0,0.0,-3.7132,-3.8134,-3.8244,-3.8324,-3.9164,-3.9364,-3.9364,-3.9364,-3.9208,-3.8502,0.0,-3.6058,-3.4923,-3.1763,0.0,0.0,0.0,0.0,-3.0843,-3.0706,-3.1393,-3.1299,-2.9794,-2.9616,-2.9616,-2.9616,-2.9616,-2.9662,-2.9696,-2.9893,-3.0006,-3.0006,-2.9628,-2.9338,-2.9107,0.0,0.0,0.0,0.0,0.0,0.0,0.0,0.0,0.0,0.0,0.0,0.0,0.0,0.0,0.0,0.0,0.0,0.0,0.0,0.0,0.0,0.0,0.0,0.0,0.0,0.0,0.0,0.0,0.0,-3.9683,-3.935,0.0,0.0,0.0,0.0,-3.8555,-3.8852,-3.945,-4.0482,-4.0717,-4.1096,-4.1718,-4.174,-4.1775,-4.181,-4.181,-4.181,-4.181,-4.181,-4.181,-4.181,-4.181,-4.181,-4.181,-4.181,-4.1832,-4.1895,-4.2464,-4.2523,-4.2249,-4.2194,-4.1699,-4.0985,-4.1022,-4.1515,-4.2029,-4.1403,-4.1658,-4.2246,-4.2173,-4.0609,-3.8716,-3.8536,-3.6883,0.0,0.0,-3.7445,-3.7651,-3.8459,-3.868,-3.8664,-3.8716,-3.875,-3.875,-3.875,-3.814,-3.7715,0.0,-3.7528,-3.6389,-3.4347,0.0,-3.2538,-3.1782,-3.1704,-3.1541,-3.096,-3.0987,-3.064,-2.9527,-2.9423,-2.9423,-2.9423,-2.9423,-2.9494,-2.9687,-2.9893,-3.0006,-3.0006,-3.0222,-2.9948,-2.9127,-2.828,0.0,0.0,0.0,0.0,0.0,0.0,0.0,0.0,0.0,0.0,0.0,0.0,0.0,0.0,0.0,0.0,0.0,0.0,0.0,0.0,0.0,0.0,0.0,0.0,0.0,0.0,0.0,0.0,-3.9266,-3.9117,0.0,-3.8235,-3.8438,-3.8679,-3.8843,-3.9382,-3.9863,-4.0246,-4.0336,-4.0473,-4.0713,-4.0713,-4.0713,-4.0713,-4.0713,-4.0713,-4.0713,-4.0713,-4.0713,-4.0713,-4.0713,-4.0713,-4.0713,-4.0713,-4.0891,-4.1246,-4.1446,-4.1943,-4.2596,-4.2936,-4.2892,-4.2635,-4.2635,-4.2818,-4.302,-4.2745,-4.2818,-4.2892,-4.1864,-4.0598,-3.9386,-3.8854,-3.8083,-3.7499,-3.8102,-3.8267,-3.834,-3.8634,-3.8707,-3.8579,-3.8046,-3.7933,-3.7804,-3.7276,-3.6927,-3.6775,-3.6983,-3.6318,-3.5353,-3.4146,-3.3271,-3.2478,-3.1666,-3.1548,-3.1281,-3.0546,-3.0457,-3.0146,-2.923,-2.9145,-2.9145,-2.9145,-2.9145,-2.9171,-2.9241,-2.9475,-2.967,-2.9796,-2.9896,-2.9947,-2.9942,-2.8982,-2.8071,0.0,0.0,0.0,0.0,0.0,0.0,0.0,0.0,0.0,0.0,0.0,0.0,0.0,0.0,0.0,0.0,0.0,0.0,0.0,0.0,0.0,0.0,0.0,0.0,0.0,0.0,-3.8988,-3.8988,-3.9208,-3.9073,-3.8345,-3.8937,-3.9385,-3.9385,-3.9825,-4.0096,-4.0096,-4.0096,-4.0096,-4.0096,-4.0096,-4.0096,-4.0096,-4.0096,-4.0096,-4.0096,-4.0096,-4.0096,-4.0096,-4.0096,-4.0096,-4.0096,-4.0096,-4.0311,-4.0631,-4.0827,-4.149,-4.2442,-4.3014,-4.3339,-4.3515,-4.3515,-4.3515,-4.346,-4.3185,-4.3094,-4.2873,-4.1534,-4.0561,-3.979,-3.9276,-3.8927,-3.8707,-3.8707,-3.8707,-3.8634,-3.8377,-3.8303,-3.8083,-3.729,-3.7107,-3.696,-3.6413,-3.6064,-3.5862,-3.5862,-3.5389,-3.4839,-3.4289,-3.3298,-3.2417,-3.188,-3.1329,-3.0797,-3.0265,-2.9971,-2.9592,-2.906,-2.9005,-2.9005,-2.9005,-2.9005,-2.9051,-2.9134,-2.9373,-2.9589,-2.9788,-2.9539,-2.9673,-3.026,-2.9574,-2.8999,-2.8536,0.0,0.0,0.0,0.0,0.0,0.0,0.0,0.0,0.0,0.0,0.0,0.0,0.0,0.0,0.0,0.0,0.0,0.0,0.0,0.0,0.0,0.0,0.0,-3.8785,-3.9005,-3.9022,-3.9022,-3.9673,-3.9825,-3.9089,-3.969,-4.0096,-4.0096,-4.0096,-4.0096,-4.0096,-4.0096,-4.0096,-4.0096,-4.0096,-4.0096,-4.0096,-4.0096,-4.0096,-4.0096,-4.0096,-4.0096,-4.0096,-4.0096,-4.0096,-4.0096,-4.0096,-4.0096,-4.0146,-4.0655,-4.1223,-4.1814,-4.246,-4.3032,-4.3515,-4.3515,-4.3478,-4.3349,-4.2561,-4.2286,-4.2139,-4.1315,-4.0543,-3.99,-3.9863,-3.9313,-3.8707,-3.8707,-3.8689,-3.8487,-3.7694,-3.7474,-3.7254,-3.645,-3.6266,-3.6248,-3.6229,-3.5555,-3.4968,-3.4968,-3.4949,-3.4931,-3.4931,-3.3628,-3.2583,-3.2528,-3.1201,0.0,-3.0173,-2.9482,-2.9005,-2.9005,-2.9005,-2.9005,-2.9005,-2.9005,-2.9112,-2.9382,-2.9579,-2.9799,-3.0037,-2.9284,-2.9246,-3.0063,-3.0063,-3.0174,-3.0436,0.0,0.0,0.0,0.0,0.0,0.0,0.0,0.0,0.0,0.0,0.0,0.0,0.0,0.0,0.0,0.0,0.0,0.0,0.0,0.0,0.0,0.0,-3.8531,-3.8937,-3.9469,-3.9808,-3.9808,-3.9977,-4.0028,-3.9825,-3.9994,-4.0096,-4.0096,-4.0096,-4.0096,-4.0096,-4.0096,-4.0096,-4.0096,-4.0096,-4.0096,-4.0096,-4.0096,-4.0096,-4.0096,-4.0096,-4.0096,-4.0096,-4.0096,-4.0096,-4.0096,-4.0096,-4.0096,-4.0121,-4.0262,-4.0648,-4.1246,-4.2302,-4.3032,-4.3515,-4.3515,-4.313,-4.2598,-4.2378,-4.1919,-4.1297,-4.0487,-4.0084,-3.979,-3.9203,-3.8891,-3.8707,-3.8707,-3.8267,-3.7786,-3.7566,-3.707,-3.6413,-3.5555,-3.5353,-3.5188,-3.4614,-3.4302,-3.4137,-3.4137,-3.3647,-3.3261,-3.3261,-3.2894,-3.2197,-3.1035,-3.0485,0.0,-2.939,-2.9133,-2.9005,-2.9005,-2.9005,-2.9005,-2.9005,-2.9005,-2.9112,-2.9382,-2.9454,-2.9925,-3.0902,-3.0587,-3.0872,-3.1878,-3.1302,-3.1052,0.0,0.0,0.0,0.0,0.0,0.0,0.0,0.0,0.0,0.0,0.0,0.0,0.0,0.0,0.0,0.0,0.0,0.0,0.0,0.0,0.0,0.0,-3.8943,-3.9433,-3.9741,-3.9982,-4.0096,-4.0096,-4.0096,-4.0096,-4.0096,-4.0096,-4.0096,-4.0096,-4.0096,-4.0096,-4.0096,-4.0096,-4.0096,-4.0096,-4.0096,-4.0096,-4.0096,-4.0096,-4.0096,-4.0096,-4.0096,-4.0096,-4.0096,-4.0096,-4.0096,-4.0096,-4.0096,-4.0096,-4.0096,-4.0096,-4.0417,0.0,0.0,0.0,0.0,0.0,-4.2488,-4.1754,-4.1405,-4.0983,-4.0469,-3.9662,-3.9405,-3.9313,-3.8836,-3.8707,-3.8634,-3.8285,-3.786,-3.7345,-3.6633,-3.6119,-3.5536,-3.4692,-3.4491,-3.4362,-3.3899,-3.3807,-3.3697,-3.3366,-3.2913,0.0,-3.1702,-3.1592,-3.1292,-3.0338,-2.9916,-2.9537,-2.906,-2.9005,-2.9005,-2.9005,-2.9005,-2.9133,-2.9464,-2.9602,0.0,0.0,0.0,-3.0915,-3.1325,-3.1548,0.0,0.0,0.0,0.0,0.0,0.0,0.0,0.0,-3.3185,-3.3271,0.0,0.0,0.0,0.0,0.0,0.0,0.0,0.0,0.0,0.0,0.0,0.0,0.0,0.0,0.0,0.0,-3.9937,-4.0254,-4.0909,-4.0546,-4.0171,-4.0096,-4.0096,-4.0096,-4.0096,-4.0096,-4.0096,-4.0096,-4.0096,-4.0096,-4.0096,0.0,0.0,0.0,0.0,-4.0096,-4.0096,-4.0096,-4.0096,-4.0096,-4.0096,-4.0096,-4.0096,-4.0096,-4.0096,-4.0096,-4.0096,-4.0045,-3.9977,-3.9977,-4.0278,-4.0821,-4.1488,-4.2085,-4.2501,-4.2261,-4.1662,-4.0857,-4.0139,0.0,0.0,-3.8927,-3.8707,-3.8707,-3.8707,-3.8634,-3.8414,-3.7694,-3.7364,-3.6886,-3.5389,-3.4931,-3.4674,-3.3972,-3.3807,-3.377,-3.3678,-3.366,-3.344,-3.2619,-3.2381,-3.1867,-3.0448,-3.021,-3.0173,-3.0081,-2.9464,-2.9005,-2.9005,-2.9005,-2.9005,-2.9005,0.0,0.0,-3.0136,-3.0539,-3.1151,-3.2138,-3.2564,-3.2466,-3.1754,-3.2581,-3.3058,-3.3069,-3.4614,-3.589,-3.6846,-3.7623,-3.8046,-3.8058,-3.456,-3.4293,0.0,0.0,0.0,0.0,0.0,0.0,0.0,0.0,0.0,0.0,0.0,0.0,0.0,0.0,0.0,-4.0901,-4.1276,-4.1462,-4.1603,-4.111,-4.0577,-4.0146,-4.0096,-4.0096,-4.0096,-4.0096,-4.0096,-4.0096,-4.0096,-4.0096,-4.0096,-4.0096,-4.0096,-4.0096,-4.0096,-4.0096,-4.0096,-4.0096,-4.0096,-4.0096,0.0,0.0,-4.0096,-4.0096,-4.0096,-4.0096,-4.0096,-3.9774,-3.9208,-3.9208,-3.9416,-3.9885,-4.103,-4.1451,-4.14,-4.1337,-4.0818,-4.0102,-3.9937,-3.9478,-3.8909,-3.8762,-3.8707,-3.8707,-3.8707,-3.8248,0.0,-3.7547,-3.6523,-3.5408,-3.5078,-3.4509,-3.399,-3.3844,-3.3807,-3.3623,-3.2981,-3.2821,-3.2596,-3.1788,-3.1109,-3.0577,-3.0246,-3.021,-2.9989,-2.9335,-2.9097,-2.9005,-2.9005,-2.9005,-2.9005,-2.9005,-2.9574,-3.0026,-3.0191,-3.1039,-3.174,-3.2175,-3.3253,-3.3813,-3.3666,-3.5119,-3.59,-3.5907,-3.6925,-3.7536,-3.7757,-3.7911,-3.8354,-3.9008,-3.7563,-3.7556,0.0,0.0,0.0,0.0,0.0,0.0,0.0,0.0,0.0,0.0,0.0,-3.8667,-3.9118,0.0,-4.0974,-4.2287,-4.2348,-4.2262,-4.2262,-4.1468,-4.0703,-4.0171,-4.0096,-4.0096,-4.0096,-4.0096,-4.0096,-4.0096,-4.0096,-4.0096,-4.0096,-4.0096,-4.0096,-4.0096,-4.0096,-4.0096,-4.0096,-4.0096,-4.0096,-4.0096,-4.0096,-4.0096,-4.0096,-4.0096,-4.0096,-4.0079,-3.9723,-3.9465,-3.9343,-3.925,-3.9224,-3.9312,-3.9949,-4.0325,-4.0506,-4.0506,-3.9992,-3.9294,-3.9294,-3.9038,-3.8707,-3.8707,-3.8707,-3.8707,-3.8707,-3.8138,-3.7419,-3.7015,-3.5991,-3.4912,-3.4491,-3.41,-3.3807,-3.3807,-3.3807,-3.3587,-3.2766,-3.2601,-3.2234,-3.1035,-3.0467,-3.0081,-2.9666,-2.9592,-2.9464,-2.906,-2.9005,-2.9005,-2.9005,-2.9005,-2.9152,-2.9555,-2.9971,-3.054,-3.1329,-3.2549,-3.342,-3.3838,-3.4486,-3.4853,-3.4853,-3.6045,-3.6692,-3.6692,-3.7988,-3.8642,-3.8642,-3.9046,-3.9477,-3.9881,-3.9513,-3.9573,0.0,0.0,0.0,0.0,0.0,0.0,0.0,0.0,-3.8429,-3.9239,-3.9695,-4.0233,-4.1156,-4.1646,-4.225,-4.3317,-4.3142,-4.2826,-4.2711,-4.175,-4.0874,-4.0311,-4.0171,-4.0096,-4.0096,-4.0096,-4.0096,-4.0096,-4.0096,-4.0146,-4.0237,-4.0254,-4.0254,-4.0254,-4.0254,-4.0204,-4.0096,-4.0096,-4.0146,-4.0254,-4.0254,-4.0311,-4.0417,-4.0417,-4.0349,-4.0136,-3.9266,-3.9072,-3.9403,-3.9103,-3.8911,-3.8797,-3.8797,-3.9144,-3.9662,-3.9662,-3.9258,-3.8707,-3.8707,-3.8707,-3.8707,-3.8707,-3.8707,-3.8707,-3.8707,-3.807,-3.7208,-3.655,-3.5671,-3.4784,-3.4133,-3.3967,-3.3967,-3.3967,-3.3856,-3.3493,-3.2699,-3.2385,-3.185,-3.0374,-3.0081,-2.9833,-2.9188,-2.9021,-2.9005,-2.9005,-2.9005,-2.9005,-2.9005,-2.9133,-2.9482,-3.0136,-3.0527,-3.1365,-3.2945,-3.4122,-3.4981,-3.5479,-3.55,-3.5577,-3.5731,-3.6519,-3.7019,-3.7199,-3.8738,-3.9534,-3.9534,-4.0189,-4.0512,-4.0537,-4.0655,-4.0697,-3.8505,-3.7441,-3.6927,-3.8982,-3.8484,-3.8447,0.0,0.0,-4.0946,-4.1735,-4.2491,-4.284,-4.2286,-4.2766,-4.3334,-4.3479,-4.3444,-4.3232,-4.2769,-4.2121,-4.1468,-4.0897,-4.0392,-4.0096,-4.0096,-4.0096,-4.0096,-4.0096,-4.0096,-4.0311,-4.078,-4.0803,-4.0803,-4.0803,-4.0803,-4.0577,-4.0096,-4.0096,-4.0343,-4.0803,-4.0803,-4.1087,-4.1617,-4.1617,-4.1225,-4.0461,-3.9001,-3.8408,-3.8397,-3.7736,-3.7666,-3.802,-3.802,-3.8361,-3.8836,-3.8836,-3.8781,-3.8707,-3.8707,-3.8707,-3.8707,-3.8707,-3.8707,-3.8707,-3.8707,-3.7806,-3.6773,-3.6681,-3.5717,-3.4714,-3.462,-3.4601,-3.4601,-3.4601,-3.4016,-3.3216,-3.2419,-3.1647,-3.0829,-2.9935,-2.9615,-2.9473,-2.938,-2.9167,-2.9005,-2.9005,-2.9005,-2.9005,-2.9005,-2.961,-3.0099,-3.0191,-3.1686,-3.3278,-3.4707,-3.4959,-3.519,-3.5486,-3.55,-3.5827,-3.6538,-3.7411,-3.8219,-3.8996,-3.99,-4.0362,-4.0362,-4.0458,-4.0566,-4.0674,-4.0692,-4.0697,-3.9276,-3.9258,0.0,0.0,-4.01,-4.0726,-4.2415,-4.2286,-4.2029,-4.2818,-4.3276,-4.3387,-4.3057,-4.3276,-4.3515,0.0,-4.3515,-4.3427,-4.3196,-4.2675,-4.2223,-4.1979,-4.1442,-4.0838,-4.0171,-4.0392,-4.0424,-4.0121,-4.0392,-4.0655,-4.088,-4.1228,-4.1424,-4.1424,-4.1424,-4.1313,-4.1099,-4.1099,-4.1196,-4.1424,-4.1424,-4.1556,-4.1775,-4.1329,-4.0442,-3.9239,-3.8877,-3.8454,-3.8061,-3.8074,-3.8185,-3.8366,-3.8366,-3.8496,-3.8707,-3.8707,-3.8707,-3.8707,-3.8707,-3.8707,-3.8707,-3.8707,-3.8818,-3.8845,-3.8372,-3.7627,-3.6831,-3.637,-3.5493,-3.4694,-3.4694,-3.4694,-3.4694,-3.4694,-3.442,-3.3797,-3.2468,-3.2289,-3.1987,-3.0703,-3.0772,-3.1026,-3.1026,-3.0938,-3.0868,-3.0868,-3.0331,-3.0091,-3.0583,-3.1052,-3.1541,-3.2016,-3.3224,-3.4288,-3.5032,-3.5105,-3.5215,-3.5486,-3.5942,-3.6346,-3.6692,-3.8027,-3.8931,-3.9284,-4.0092,-4.0496,-4.0496,-4.0588,-4.0655,-4.0703,-4.0822,-4.0863,-3.9145,0.0,0.0,-4.0267,-4.1277,-4.2359,-4.258,-4.2635,-4.28,-4.3386,-4.3515,-4.3515,-4.3515,-4.3515,-4.3515,-4.3515,-4.3515,-4.3515,-4.3515,-4.3032,-4.2711,-4.2711,-4.2322,-4.166,-4.0666,-4.092,-4.099,-4.0594,-4.092,-4.1223,-4.1402,-4.181,-4.2059,-4.2059,-4.2059,-4.1958,-4.181,-4.181,-4.1895,-4.2059,-4.2059,-4.2124,-4.223,-4.1207,-4.0027,-3.874,-3.8868,-3.8607,-3.815,-3.8546,-3.8707,-3.8707,-3.8707,-3.875,-3.8818,-3.8818,-3.8818,-3.8818,-3.8818,-3.8873,-3.896,-3.896,-3.8919,-3.8763,-3.8177,-3.7471,-3.6761,-3.6164,-3.5486,-3.4926,-3.4926,-3.4926,-3.4926,-3.4926,-3.4736,-3.4224,-3.3018,-3.3026,-3.2912,-3.1743,-3.1948,-3.2312,-3.2312,-3.2248,-3.2278,-3.2505,-3.193,-3.1589,-3.1873,-3.2269,-3.2864,-3.3762,-3.4434,-3.4926,-3.519,-3.5207,-3.5297,-3.5493,-3.625,-3.6808,-3.7038,-3.8507,-3.94,-3.9631,-4.0208,-4.0519,-4.0552,-4.0642,-4.0724,-4.0781,-4.0933,-4.1023,0.0,0.0,-3.9132,-4.0673,-4.1699,-4.2506,-4.3277,-4.346,-4.3478,-4.3496,-4.3515,-4.3515,-4.3515,-4.3515,-4.3515,-4.3515,-4.3515,-4.3515,-4.3515,-4.3032,-4.2711,-4.2711,-4.2674,-4.244,0.0,-4.175,-4.1768,-4.1746,-4.175,-4.2021,-4.2616,-4.2655,-4.2674,-4.2674,-4.2674,-4.2382,-4.181,-4.181,-4.2101,-4.2674,-4.2674,-4.2939,-4.3389,-4.1814,-4.0622,-3.9813,-3.9043,-3.8695,-3.8692,-3.8692,-3.8707,-3.8707,-3.8707,-3.8855,-3.9085,-3.9085,-3.9085,-3.9085,-3.9085,-3.9289,-3.9576,-3.9576,-3.9018,-3.8328,-3.8309,-3.737,-3.6319,-3.6281,-3.5897,-3.5486,-3.5486,-3.5486,-3.5486,-3.5486,-3.4833,-3.4205,-3.4147,-3.3493,-3.2897,-3.2859,-3.2711,-3.2584,-3.2584,-3.2364,-3.2467,-3.3242,-3.3557,-3.3339,-3.2316,-3.2883,-3.38,-3.4937,-3.5069,-3.5198,-3.5479,-3.5493,-3.5493,-3.55,-3.625,-3.7084,-3.793,-3.8815,-3.9669,-4.0458,-4.0496,-4.0566,-4.0692,-4.0697,-4.08,-4.099,-4.0994,-4.1077,0.0,0.0,-3.9625,-4.0175,-4.091,-4.1717,-4.2525,-4.269,-4.269,-4.269,-4.269,-4.2543,-4.2011,-4.2341,-4.269,-4.269,-4.3149,-4.3515,-4.3515,-4.3339,-4.3232,-4.3232,-4.3232,0.0,0.0,0.0,0.0,-4.1832,-4.2162,-4.248,-4.2692,-4.3032,-4.3232,-4.3232,-4.3232,-4.2868,-4.2141,-4.2141,-4.1978,-4.1627,-4.1627,-4.1456,-4.1091,-4.0543,-3.9964,-3.9346,-3.9087,-3.9095,-3.9307,-3.9307,-3.9307,-3.9307,-3.9307,-3.9346,-3.9369,-3.8782,-3.8704,-3.8945,-3.9298,-3.9517,-3.9599,-3.9599,-3.9156,-3.8515,-3.7945,-3.721,-3.6454,-3.591,-3.5636,-3.55,-3.55,-3.55,-3.55,-3.55,-3.5269,-3.4911,-3.4321,-3.441,-3.4449,-3.3872,-3.4171,-3.452,-3.452,-3.445,-3.4481,-3.4749,-3.4724,-3.4593,-3.4416,-3.4634,-3.4937,-3.5323,-3.5369,-3.5391,-3.5493,-3.5981,-3.6308,-3.6308,-3.7642,-3.8565,-3.8854,-3.9669,-4.0268,-4.0636,-4.0636,-4.0678,-4.0761,-4.0855,-4.0933,-4.0996,-4.1082,-4.115,-3.7566,-3.8552,-3.9533,-3.9827,-4.0506,-4.1242,-4.1754,-4.1882,-4.1882,-4.1882,-4.1882,-4.1717,-4.1187,-4.1517,-4.1974,-4.2249,-4.2727,-4.3167,-4.346,-4.3515,-4.3515,-4.3515,-4.3515,-4.3515,0.0,0.0,0.0,-4.2444,-4.2771,-4.2976,-4.2976,-4.3303,-4.3369,-4.3075,-4.3057,-4.2671,-4.1882,-4.1882,-4.1625,-4.1095,-4.1095,-4.0717,-4.0043,-4.0043,-3.975,-3.9276,-3.9276,-3.9389,-3.9599,-3.9599,-3.9599,-3.9599,-3.9599,-3.9668,-3.9662,-3.8788,-3.8679,-3.8963,-3.8874,-3.8929,-3.903,-3.903,-3.8575,-3.7957,-3.7383,-3.678,-3.6154,-3.5654,-3.55,-3.55,-3.55,-3.55,-3.55,-3.55,-3.55,-3.5346,-3.4795,-3.5096,-3.5327,-3.4776,-3.5122,-3.55,-3.55,-3.55,-3.55,-3.55,-3.5361,-3.5304,-3.5486,-3.55,-3.55,-3.55,-3.55,-3.55,-3.55,-3.6231,-3.6692,-3.6692,-3.8334,-3.9314,-3.9327,-4.0137,-4.0623,-4.0736,-4.0736,-4.0785,-4.087,-4.0957,-4.1025,-4.1078,-4.1151,-4.1191,-3.7722,-3.834,-3.8934,-3.9687,-4.0444,-4.1015,-4.1068,-4.1054,-4.1056,-4.1087,-4.1054,-4.1038,0.0,0.0,-4.1352,-4.2121,-4.2304,-4.2635,-4.3404,-4.3515,-4.3515,0.0,0.0,0.0,0.0,0.0,0.0,-4.3515,0.0,-4.3515,-4.3515,-4.3515,-4.313,-4.2323,-4.2304,-4.1901,-4.104,-4.1018,-4.1015,-4.1013,-4.1013,-4.0757,-4.0253,-4.0253,-4.0025,-3.9622,-3.9622,-3.9634,-3.9645,-3.9645,-3.9645,-3.9645,-3.9645,-3.984,-4.0024,-3.9147,-3.8995,-3.9062,-3.7872,-3.771,-3.8007,-3.8007,-3.7411,-3.6692,-3.6692,-3.6135,-3.55,-3.55,-3.55,-3.55,-3.55,-3.55,-3.55,-3.55,-3.55,-3.55,-3.55,-3.55,-3.55,-3.55,-3.55,-3.55,-3.55,-3.5507,-3.5494,-3.55,-3.5514,-3.5501,-3.55,-3.55,-3.55,-3.55,-3.5538,-3.5558,-3.5558,-3.636,-3.6848,-3.6848,-3.844,-3.9418,-3.9461,-4.0269,-4.0742,-4.0805,-4.0805,-4.0874,-4.1019,-4.1019,-4.1078,-4.1191,-4.1191,-4.1191,-3.8225,-3.8812,-3.9433,-3.9627,-3.9637,-3.9816,-4.0678,-4.0533,-4.033,-4.0787,-4.0518,-4.0086,0.0,0.0,0.0,-4.137,-4.2415,0.0,-4.3478,-4.3515,0.0,-4.3515,0.0,-4.3515,-4.3515,-4.3515,0.0,0.0,-4.3515,-4.3515,-4.3515,-4.3515,-4.313,-4.2323,-4.2304,-4.1625,-4.0212,-3.9804,-3.9737,-3.9983,-3.9983,-3.9908,-3.977,-3.977,-3.9853,-3.9982,-3.9982,-4.0091,-4.0266,-4.0266,-4.0266,-4.0266,-4.0266,-4.0319,-4.0293,-3.9487,-3.8827,-3.8214,-3.7353,-3.7462,-3.8007,-3.8007,-3.7411,-3.6692,-3.6692,-3.6135,-3.55,-3.55,-3.55,-3.55,-3.55,-3.55,-3.55,-3.55,-3.55,-3.55,-3.55,-3.55,-3.55,-3.55,-3.55,-3.55,-3.55,-3.5534,-3.555,-3.5501,-3.5599,-3.5616,-3.5515,-3.55,-3.55,-3.55,-3.6038,-3.6385,-3.6385,-3.7816,-3.8721,-3.8721,-3.979,-4.0437,-4.0449,-4.0658,-4.0828,-4.0952,-4.0952,-4.1021,-4.115,-4.115,-4.1171,-4.1191,-4.1191,-4.1191,-3.9052,-3.9372,-3.9599,-3.9599,-3.945,-3.9389,-3.9642,-3.9744,-3.9718,-3.9551,-3.9664,0.0,0.0,0.0,0.0,0.0,0.0,0.0,-4.3937,-4.3992,-4.3992,0.0,-4.382,0.0,-4.3726,-4.358,-4.3546,0.0,-4.358,-4.3546,-4.371,-4.3396,-4.2887,-4.2233,-4.1846,-4.1047,-3.9775,-3.9327,-3.9264,-3.9599,-3.9599,-3.9668,-3.9819,-3.9819,-3.9983,-4.0286,0.0,-4.0364,-4.0496,-4.0496,-4.0496,-4.0496,-4.0496,-4.0496,-4.0408,-3.9629,-3.9026,-3.8447,-3.7322,-3.7201,-3.7506,-3.7108,-3.6663,-3.6256,-3.6256,-3.5947,-3.5585,-3.5585,-3.5585,-3.5585,-3.5585,-3.5585,-3.5585,-3.5585,-3.5585,-3.5585,-3.5585,-3.5585,-3.5585,-3.5585,-3.5585,-3.5585,-3.5585,-3.5626,-3.563,-3.5595,-3.565,-3.5663,-3.5605,-3.5585,-3.572,-3.6112,-3.6557,-3.6989,-3.7362,-3.867,-3.949,-3.949,-4.0302,-4.0839,-4.0899,-4.0899,-4.0955,-4.1081,-4.1081,-4.1127,-4.1191,-4.1191,-4.1191,-4.1191,-4.1191,-4.1191,-3.9633,-3.9696,-3.9572,-3.9572,-3.9615,-3.946,-3.8631,-3.8946,-3.9164,-3.8271,0.0,-3.9397,-3.9258,-4.0134,-4.1151,-4.1976,0.0,-4.3592,-4.4479,-4.4593,-4.4593,-4.4593,-4.429,-4.4073,-4.4073,-4.382,-4.3775,-4.4061,-4.3712,-4.3608,-4.3894,-4.326,-4.2581,-4.1952,-4.1084,-4.0335,-3.9656,-3.9377,-3.9401,-3.9724,-3.9724,-3.9872,-4.0148,-4.0148,-4.0286,-4.0496,-4.0496,-4.0496,-4.0496,-4.0496,-4.0496,-4.0496,-4.0496,-4.0512,-4.046,-3.981,-3.9506,-3.9233,-3.7836,-3.7287,-3.7014,-3.6021,-3.5707,-3.5707,-3.5707,-3.5785,-3.5843,-3.5726,-3.5785,-3.5843,-3.5726,-3.5707,-3.5707,-3.5707,-3.5707,-3.5707,-3.5707,-3.5707,-3.5707,-3.5707,-3.5707,-3.5707,-3.5707,-3.5713,-3.5759,-3.5862,-3.5804,-3.5813,-3.6038,-3.5947,-3.6158,-3.692,-3.7212,-3.7644,-3.841,-3.9286,-3.9795,-3.9783,-4.0468,-4.0911,-4.1023,-4.1025,-4.108,-4.1191,-4.1191,-4.1191,-4.1191,-4.1191,-4.1191,-4.1191,-4.1191,-4.1191,-3.832,-3.8853,-3.9339,-3.9339,-3.9689,-3.9862,-3.9259,-3.8813,0.0,0.0,0.0,-3.8814,-3.9758,-4.0413,0.0,-4.1945,0.0,0.0,0.0,0.0,-4.4593,0.0,0.0,0.0,0.0,0.0,0.0,0.0,0.0,-4.3359,-4.3425,-4.3294,-4.2548,-4.1072,-4.0229,-3.9864,-4.0012,-3.9962,-4.0062,-4.0345,-4.0345,-4.0362,-4.0441,-4.0441,-4.0457,-4.0496,-4.0496,0.0,-4.0496,-4.0496,-4.0496,-4.0496,-4.0496,-4.0574,-4.0642,-4.0517,-4.0087,-3.9536,-3.9301,-3.876,-3.7897,-3.6239,-3.5707,-3.5707,-3.5707,-3.6197,-3.6628,-3.5901,-3.6216,-3.6609,-3.5882,-3.5707,-3.5707,-3.5707,-3.5707,-3.5707,-3.5707,-3.5707,-3.5707,-3.5707,-3.5707,-3.5707,-3.5707,-3.5797,-3.607,-3.6677,-3.6292,-3.6435,-3.7753,-3.7253,-3.6823,-3.6978,-3.8279,-3.9213,-3.9356,-4.0212,-4.0767,-4.0769,-4.0999,-4.1149,-4.1151,-4.1171,-4.1171,-4.1191,-4.1191,-4.1191,-4.1191,-4.1191,-4.1191,-4.1191,-4.1191,-4.1191,-3.8007,-3.8315,-3.8719,-3.9188,-3.9141,-3.8939,-3.8677,0.0,0.0,0.0,0.0,-3.9071,-3.9948,0.0,0.0,0.0,0.0,0.0,0.0,0.0,0.0,0.0,0.0,0.0,0.0,0.0,0.0,0.0,0.0,-4.3566,-4.3566,-4.2895,-4.194,-4.0673,-4.0133,-4.0003,-4.0313,-4.0167,-4.0232,-4.0496,-4.0496,-4.0496,-4.0496,-4.0496,-4.0496,-4.0496,-4.0496,-4.0496,-4.0496,-4.0496,-4.0537,-4.0603,-4.0603,-4.0666,-4.0762,-4.0824,-4.0351,-3.9677,-3.9765,-3.923,-3.837,-3.7495,-3.7216,-3.7216,-3.7216,-3.751,-3.7744,-3.7334,-3.751,-3.7627,-3.6767,-3.6533,-3.6533,-3.6533,-3.6533,-3.6533,-3.6533,-3.6533,-3.6669,-3.7118,-3.7216,-3.7216,-3.7216,-3.7269,-3.743,-3.7786,-3.7553,-3.7636,-3.8392,-3.8517,-3.8507,-3.8507,-3.9265,-3.9948,-4.0398,-4.0843,-4.1104,-4.1104,-4.1151,-4.1191,-4.1191,-4.1191,-4.1191,-4.1191,-4.1191,-4.1191,-4.1191,-4.1191,-4.1191,-4.1191,-4.1191,-4.1191,-3.7469,-3.7738,-3.8161,-3.8854,-3.8777,-3.843,-3.8084,-3.8007,0.0,0.0,-3.8353,-3.9269,-4.0041,0.0,0.0,0.0,0.0,0.0,0.0,0.0,0.0,0.0,0.0,0.0,0.0,0.0,0.0,0.0,0.0,0.0,-4.3376,-4.2206,-4.12,-4.0516,-4.0304,-4.0295,-4.0496,-4.0295,-4.0276,-4.0496,-4.0496,-4.0496,-4.0496,-4.0496,-4.0496,-4.0496,-4.0496,-4.0496,-4.0496,-4.0523,-4.0603,-4.0703,-4.0713,-4.0771,-4.086,-4.0959,-4.0572,-4.0038,-4.0135,-3.9726,-3.916,-3.916,-3.8906,-3.8594,-3.8594,-3.873,-3.8848,-3.8652,-3.873,-3.8672,-3.7793,-3.7578,-3.7578,-3.7578,-3.7578,-3.7578,-3.7578,-3.7578,-3.7773,-3.8476,-3.8594,-3.8594,-3.8594,-3.8594,-3.8652,-3.8848,-3.8711,-3.873,-3.9101,-3.959,-3.9961,-4.0156,-4.0176,-4.0469,-4.1133,-4.1191,-4.1191,-4.1191,-4.1191,-4.1191,-4.1191,-4.1191,-4.1191,-4.1191,-4.1191,-4.1191,-4.1191,-4.1191,-4.1289,-4.1445,-4.1289,-4.1289,-3.5731,-3.6834,-3.8027,-3.8104,-3.92,-3.9881,-3.8354,0.0,0.0,-3.7966,-3.8031,-3.8596,-4.0157,-4.0558,0.0,0.0,0.0,0.0,0.0,0.0,0.0,0.0,0.0,0.0,0.0,0.0,0.0,0.0,0.0,0.0,-4.1986,-4.1115,-4.0573,-4.0496,-4.0473,-4.0473,-4.0496,-4.0473,-4.0473,-4.0496,-4.0496,-4.0496,-4.0496,-4.0496,-4.0496,-4.0496,-4.0496,-4.0496,0.0,-4.0636,-4.0686,-4.0715,-4.0761,-4.0864,-4.0988,-4.0994,-4.102,-4.1054,-4.1074,-4.1035,-4.0957,-4.0957,-3.9883,-3.8594,-3.8594,-3.9141,-3.9629,-3.8828,-3.918,-3.957,-3.8711,-3.8476,-3.8476,-3.8476,-3.8476,-3.8476,-3.8476,-3.8476,-3.8496,-3.8574,-3.8594,-3.8594,-3.8594,-3.8594,-3.8867,-3.9668,-3.9101,-3.918,-4.0762,-4.0332,-4.0195,-4.0996,-4.1074,-4.1113,-4.1191,-4.1191,-4.1191,-4.1191,-4.1191,-4.1191,-4.1191,-4.1191,-4.1191,-4.1191,-4.1191,-4.1191,-4.1191,-4.1191,-4.1582,-4.2266,-4.1543,-4.1582,-3.55,-3.6346,-3.7334,-3.7873,-3.8507,-3.8815,-3.8142,0.0,-3.7373,-3.7892,-3.8007,-3.8507,-4.0189,-4.0496,-4.0612,0.0,0.0,0.0,0.0,0.0,0.0,0.0,0.0,0.0,0.0,0.0,0.0,0.0,0.0,0.0,-4.1203,-4.0756,-4.0496,-4.0496,-4.0496,-4.0496,-4.0496,-4.0496,-4.0496,-4.0496,-4.0496,-4.0496,-4.0496,-4.0496,-4.0537,-4.0584,-4.0069,-4.0172,0.0,-3.9646,-3.9909,-4.0834,-4.034,-4.0547,-4.1126,-4.1126,-4.0818,-4.0488,-4.1016,-4.0859,-4.0508,-4.1035,-4.0723,-4.0156,-4.0156,-4.041,-4.0605,-4.0254,-4.041,-4.0488,-3.9609,-3.9375,-3.9258,-3.8711,-3.9004,-3.9375,-3.9375,-3.9375,-3.9531,-4.0059,-4.0094,-4.0068,-4.0156,-4.002,-4.0071,-4.049,-4.0198,-4.0177,-4.0859,-4.0664,-4.0567,-4.0918,-4.1104,-4.1191,-4.1191,-4.1191,-4.1191,-4.1191,-4.1191,-4.1191,-4.1191,-4.1191,-4.1191,-4.1191,-4.1191,-4.1191,-4.1191,-4.1191,-4.1601,-4.2383,-4.2023,-4.2307,-3.5423,-3.6269,-3.7238,-3.7853,-3.8373,-3.8681,0.0,0.0,-3.7642,-3.8257,-3.8373,-3.8815,-4.0246,-4.0496,-4.0496,0.0,0.0,0.0,0.0,0.0,0.0,0.0,0.0,0.0,0.0,0.0,0.0,0.0,0.0,0.0,-4.0793,-4.0668,-4.0584,-4.0584,-4.0568,-4.0559,-4.0559,-4.0527,-4.0496,-4.0496,-4.0496,-4.0496,-4.0496,-4.028,-4.0371,-4.0639,-3.9821,-3.9976,0.0,-3.9578,-3.9859,-4.0939,-4.0366,-4.0579,-4.1191,-4.1191,-4.0801,-4.0371,-4.0996,-4.0801,-4.0391,-4.0996,-4.1191,-4.1191,-4.1191,-4.1191,-4.1191,-4.1191,-4.1191,-4.1055,-4.0449,-4.0253,-4.0075,-3.9469,-3.9757,-4.0162,-4.0162,-4.0162,-4.0357,-4.0962,-4.1017,-4.0964,-4.1076,-4.0922,-4.0824,-4.0922,-4.0864,-4.0797,-4.0797,-4.0797,-4.0797,-4.0797,-4.0964,-4.108,-4.108,-4.108,-4.1103,-4.1149,-4.1149,-4.1151,-4.1191,-4.1191,-4.1191,-4.1191,-4.1404,-4.1539,-4.1539,-4.1493,-4.1898,-4.2699,-4.2371,-4.2685,-3.5269,-3.6719,-3.7988,-3.8007,-3.9238,-4.0265,0.0,-3.9284,-3.9284,-3.9284,-3.9284,-3.9534,-4.0342,-4.0496,-4.0496,-4.0496,0.0,0.0,0.0,0.0,0.0,0.0,0.0,0.0,0.0,0.0,0.0,0.0,0.0,0.0,-4.0797,-4.0797,-4.0797,-4.0797,-4.0736,-4.0697,-4.0697,-4.0574,-4.0496,-4.0496,-4.0496,-4.0496,-4.0485,-3.9734,-3.9886,-4.0665,-3.9921,-4.0054,0.0,-4.0911,-4.0976,-4.1,-4.1149,-4.1191,-4.1191,-4.1191,-4.1191,-4.1191,-4.1191,-4.1191,-4.1191,-4.1191,-4.1191,-4.1191,-4.1191,-4.1191,-4.1191,-4.1191,-4.1191,-4.1191,-4.1191,-4.1084,-4.0996,-4.0976,-4.0889,-4.0782,-4.0782,-4.0782,-4.0782,-4.0801,-4.0801,-4.0801,-4.0801,-4.0801,-4.0797,-4.0801,-4.0797,-4.0797,-4.0797,-4.0797,-4.0797,-4.0797,-4.0801,-4.0801,-4.0801,-4.0801,-4.0864,-4.0992,-4.0996,-4.1055,-4.1191,-4.1191,-4.1191,-4.1191,-4.1914,-4.2297,-4.2297,-4.2165,-4.2548,-4.3374,-4.2509,-4.2495,-3.5423,-3.6288,-3.7123,-3.7123,-3.8411,-3.9457,-3.8604,-3.8873,-3.9304,-3.9304,-3.9304,-3.9554,-4.0342,-4.0496,-4.0708,-4.1296,0.0,0.0,0.0,0.0,0.0,0.0,0.0,0.0,0.0,0.0,0.0,0.0,0.0,0.0,-4.1077,-4.1078,-4.0972,-4.0742,-4.0707,-4.0697,-4.0697,-4.0668,-4.066,-4.0703,-4.0703,-4.0703,-4.0708,-4.0451,-4.0552,-4.0854,-4.0037,-4.021,-4.0981,-3.9837,-4.0054,-4.1071,-4.0527,-4.0684,-4.1191,-4.1191,-4.1191,-4.1191,-4.1191,-4.1191,-4.1191,-4.1191,-4.1191,-4.1191,-4.1191,-4.1191,-4.1191,-4.1191,-4.1191,-4.1191,-4.1191,-4.1171,-4.1106,-4.1023,-4.0962,-4.0914,-4.0813,-4.0797,-4.0797,-4.0797,-4.0752,-4.0742,-4.0785,-4.0696,-4.0636,-4.0715,-4.0647,-4.0597,-4.0597,-4.0597,-4.0823,-4.1415,-4.1473,-4.1549,-4.1676,-4.1688,-4.1953,-4.2606,-4.2645,-4.2659,-4.2704,-4.2122,-4.2106,-4.2685,-4.2351,-4.245,-4.305,-4.3,-4.3389,-4.4153,-4.4488,-4.4692,0.0,-3.6125,-3.6713,-3.6762,-3.7807,-3.8661,-3.8123,-3.8661,-3.9304,-3.9304,-3.9534,-3.9919,-4.0419,-4.0496,-4.0693,-4.1299,0.0,0.0,0.0,0.0,0.0,0.0,0.0,0.0,0.0,0.0,0.0,0.0,0.0,0.0,-4.1191,-4.1191,-4.1074,-4.0822,-4.0814,-4.0814,-4.0814,-4.0767,-4.0767,-4.0797,-4.0797,-4.0642,-4.035,-4.0367,-4.0429,-4.0489,-3.9998,-4.0326,0.0,-4.0039,-4.0215,-4.1152,-4.0605,-4.0723,-4.1191,-4.1191,-4.1191,-4.1191,-4.1191,-4.1191,-4.1191,-4.1191,-4.1191,-4.1191,-4.1191,-4.1191,-4.1191,-4.1191,-4.1191,-4.1191,-4.1149,-4.1081,-4.1021,-4.0916,-4.0848,-4.0779,-4.0698,-4.0701,-4.0701,-4.0701,-4.0641,-4.0642,-4.0685,-4.0578,-4.0534,-4.061,-4.0552,-4.0496,-4.0496,-4.0785,-4.12,-4.1731,-4.2085,-4.2456,-4.2896,-4.2643,-4.2729,-4.3281,-4.332,-4.3345,-4.3406,-4.2886,-4.2847,-4.3391,-4.3136,-4.3262,-4.3806,-4.3751,-4.3989,-4.444,-4.4977,-4.538,0.0,-3.6203,-3.6659,-3.679,-3.7423,-3.801,-3.801,-3.8715,0.0,-3.94,-3.9977,-4.0523,-4.0596,-4.0558,-4.0598,-4.0846,0.0,0.0,0.0,0.0,0.0,0.0,0.0,0.0,0.0,0.0,0.0,0.0,0.0,0.0,-4.1191,-4.1191,-4.1149,-4.1021,-4.1002,-4.1019,-4.0996,-4.0874,-4.0813,-4.082,-4.082,-4.0408,-3.9629,-3.9687,-3.971,0.0,-3.9841,-4.0391,-4.1191,-4.1191,-4.1191,-4.1191,-4.1191,-4.1191,-4.1191,-4.1191,-4.1191,-4.1191,-4.1191,-4.1191,-4.1191,-4.1191,-4.1191,-4.1172,-4.1171,-4.1171,-4.1191,-4.1191,-4.1171,-4.1149,-4.1021,-4.0883,-4.0773,-4.0713,-4.0603,-4.0512,-4.0496,-4.0496,-4.0496,-4.0496,-4.0496,-4.0516,-4.0573,-4.0593,-4.0612,-4.0689,-4.0689,-4.0689,-4.0689,-4.1393,-4.1904,-4.1962,-4.2701,-4.3508,-4.4316,-4.3643,-4.3243,-4.335,-4.3363,-4.3425,-4.3554,-4.35,-4.3481,-4.3559,-4.4226,-4.4576,-4.4576,-4.4445,-4.4393,-4.4393,-4.4393,-4.4816,-3.6726,0.0,-3.5946,-3.5974,-3.7031,-3.8084,0.0,-3.9185,-4.0227,0.0,0.0,-4.0742,-4.1506,-4.1094,-4.1123,0.0,0.0,0.0,0.0,0.0,0.0,0.0,0.0,0.0,0.0,0.0,0.0,0.0,0.0,-4.1191,-4.1191,-4.1191,-4.1191,-4.115,-4.115,-4.1104,-4.0996,-4.0962,-4.0998,-4.1104,-4.1104,-4.0655,-3.9835,-3.9859,-3.9841,-3.9842,-3.9883,-4.0391,-4.1191,-4.1191,-4.1191,-4.1191,-4.1191,-4.1191,-4.1191,-4.1191,-4.1191,-4.1191,-4.1191,-4.1191,-4.1172,-4.108,-4.1051,-4.1025,-4.0922,-4.0962,-4.1051,-4.1051,-4.0964,-4.0899,-4.086,-4.0816,-4.0773,-4.0713,-4.0667,-4.063,-4.0527,-4.0496,-4.0496,-4.0496,-4.0496,-4.0708,-4.1373,-4.1489,-4.172,-4.2393,-4.2489,-4.2489,-4.2489,-4.2662,-4.3028,-4.3643,-4.3893,-4.4355,-4.5229,-4.4509,-4.4303,-4.4988,-4.5046,-4.5051,-4.5071,-4.4442,-4.4403,-4.5079,-4.5244,-4.5335,-4.5335,-4.5304,-4.5287,-4.5287,-4.5287,-4.5402,-3.705,-3.7099,-3.7008,-3.7434,-3.8178,-3.8801,-3.8801,0.0,0.0,0.0,0.0,0.0,-4.1359,0.0,0.0,0.0,0.0,0.0,0.0,0.0,0.0,0.0,0.0,0.0,0.0,0.0,0.0,0.0,0.0,-4.1191,-4.1191,-4.082,-4.0605,-4.0605,-4.0215,-4.035,-4.1082,-4.1082,-4.1128,-4.1191,-4.1191,-4.0527,-3.9316,-3.9726,-3.9687,-3.9336,-3.9726,-4.0176,-4.0625,-4.1035,-4.0957,-4.0644,-4.1035,-4.1191,-4.1191,-4.1191,-4.1191,-4.1191,-4.1191,-4.1151,-4.1102,-4.1025,-4.0957,-4.0883,-4.0816,-4.0824,-4.0878,-4.0902,-4.086,-4.0785,-4.0752,-4.0757,-4.0722,-4.063,-4.061,-4.0582,-4.0519,-4.0496,-4.0631,-4.1027,-4.1104,-4.1373,-4.2258,-4.2412,-4.2566,-4.3028,-4.3104,-4.3104,-4.3104,-4.3412,-4.3816,-4.4239,-4.4662,-4.5094,-4.5556,-4.5171,-4.5094,-4.5575,-4.5594,-4.5594,-4.5594,-4.5152,-4.5133,-4.5594,-4.5594,-4.5594,-4.5594,-4.5594,-4.5594,-4.5594,-4.5594,-4.5594,-3.7383,-3.8201,-3.887,-3.9403,-3.967,-3.9776,-3.9659,0.0,0.0,0.0,0.0,0.0,0.0,0.0,0.0,0.0,0.0,0.0,0.0,0.0,0.0,0.0,0.0,0.0,0.0,0.0,0.0,0.0,0.0,-4.1091,-4.0976,-4.0272,-3.9882,-3.9902,-3.918,-3.9512,-4.0996,-4.0996,-4.1074,-4.1191,-4.1191,-4.0351,-3.8828,-3.9434,-3.9375,-3.8828,0.0,0.0,-3.9961,-4.084,-4.0684,-3.998,-4.0859,-4.1191,-4.1191,-4.1191,-4.1191,-4.1191,-4.1171,-4.1102,-4.0992,-4.0955,-4.0883,-4.0768,-4.0751,-4.0707,-4.0672,-4.0738,-4.0746,-4.0743,-4.0678,-4.0661,-4.0649,-4.0534,-4.0496,-4.0496,-4.0496,-4.0496,-4.0766,-4.1643,-4.1788,-4.2124,-4.3104,-4.3278,-4.3335,-4.3451,-4.347,-4.347,-4.347,-4.4085,-4.4489,-4.4489,-4.5171,-4.5594,-4.5594,-4.5594,-4.5594,-4.5594,-4.5594,-4.5594,-4.5594,-4.5594,-4.5594,-4.5594,-4.5594,-4.5594,-4.5594,-4.5594,-4.5594,-4.5594,-4.5594,-4.5594,-3.8867,-4.0116,-4.0447,-3.91,-3.9789,-4.0595,0.0,0.0,0.0,0.0,0.0,0.0,0.0,0.0,0.0,0.0,0.0,0.0,0.0,0.0,0.0,0.0,0.0,0.0,0.0,0.0,0.0,0.0,0.0,-4.058,-3.9969,-3.9795,-3.9771,-3.9902,-3.9766,-3.9824,-4.0098,-4.0098,-4.0469,-4.1191,-4.1191,-4.0664,-3.9687,-3.9062,-3.9121,-3.9668,0.0,-3.9219,-3.9961,-4.084,-4.0684,-3.998,-4.0859,-4.1191,-4.1191,-4.1191,-4.1191,-4.1172,-4.1077,-4.1021,-4.0979,-4.08,-4.0735,-4.069,-4.057,-4.0545,-4.053,-4.054,-4.0547,-4.054,-4.053,-4.0523,-4.0534,-4.0504,-4.0496,-4.0496,-4.0496,-4.0496,-4.0766,-4.1643,-4.1788,-4.2297,-4.3855,-4.4124,-4.4374,-4.5114,-4.5229,-4.5229,-4.5229,-4.5325,-4.5402,-4.5402,-4.5518,-4.5594,-4.5594,-4.5594,-4.5594,-4.5594,-4.5594,-4.5594,-4.5594,-4.5594,-4.5594,-4.5594,-4.5594,-4.5594,-4.5594,-4.5594,-4.5594,-4.5594,-4.5594,-4.5594,-3.8613,-3.9824,-4.0527,-4.0625,-4.1912,-4.3058,0.0,0.0,0.0,0.0,0.0,0.0,0.0,0.0,0.0,0.0,0.0,0.0,0.0,0.0,0.0,0.0,0.0,0.0,0.0,0.0,0.0,0.0,0.0,-4.0641,-4.0312,-3.9472,-3.9032,-3.9089,-3.8241,-3.8027,-3.8496,-3.8496,-3.8926,-3.9805,-4.0273,-4.0039,-3.9199,-3.9277,-3.9512,-3.9883,0.0,-3.9531,-3.9961,-4.084,-4.0684,-3.998,-4.0859,-4.1191,-4.1191,-4.1191,-4.115,-4.1081,-4.1023,-4.0931,-4.0827,-4.0724,-4.0642,-4.0588,-4.0519,-4.0496,-4.0496,-4.0496,-4.0496,-4.0496,-4.0496,-4.0496,-4.0496,-4.0496,-4.0496,-4.0496,-4.0496,-4.0496,-4.0766,-4.1643,-4.2181,-4.2893,-4.4085,-4.4682,-4.5152,-4.5537,-4.5594,-4.5594,-4.5594,-4.5594,-4.5594,-4.5594,-4.5594,-4.5594,-4.5594,-4.5594,-4.5594,-4.5594,-4.5594,-4.5594,-4.5594,-4.5594,-4.5594,-4.5594,-4.5594,-4.5594,-4.5594,-4.5594,-4.5594,-4.5594,-4.5594,-4.5594,-3.8184,-3.9238,-4.0254,-4.1758,0.0,-4.4433,0.0,0.0,0.0,0.0,0.0,0.0,0.0,0.0,0.0,0.0,0.0,0.0,0.0,0.0,0.0,0.0,0.0,0.0,0.0,0.0,0.0,0.0,-4.0738,-4.0577,-4.0196,-3.9,-3.8268,-3.8122,-3.6924,-3.6601,-3.7285,-3.7305,-3.7734,-3.8613,-3.9277,-3.9355,-3.8926,-3.9375,-3.9824,-4.0195,-3.998,-3.9902,-3.9961,-4.084,-4.0684,-3.998,-4.0859,-4.1191,-4.1191,-4.1151,-4.1082,-4.0992,-4.0942,-4.0835,-4.0692,-4.0655,-4.0575,-4.0496,-4.0496,-4.0496,-4.0496,-4.0496,-4.0496,-4.0496,-4.0496,-4.0496,-4.0496,-4.0496,-4.0496,-4.0496,-4.0496,-4.0496,-4.0766,-4.1643,-4.2508,-4.3355,-4.4162,-4.5017,-4.5594,-4.5594,-4.5594,-4.5594,-4.5594,-4.5594,-4.5594,-4.5594,-4.5594,-4.5594,-4.5594,-4.5594,-4.5594,-4.5594,-4.5594,-4.5594,-4.5594,-4.5594,-4.5594,-4.5594,-4.5594,-4.5594,-4.5594,-4.5594,-4.5594,-4.5594,-4.5594,-4.5594,-3.8359,-3.9238,-4.0117,-4.1055,0.0,0.0,0.0,0.0,0.0,0.0,0.0,0.0,0.0,0.0,0.0,0.0,0.0,0.0,0.0,0.0,0.0,0.0,0.0,0.0,0.0,0.0,0.0,-4.053,-4.0523,-3.9874,-3.838,-3.8183,-3.7871,-3.7306,-3.7175,-3.7174,-3.7305,-3.7305,-3.7734,-3.8594,-3.8652,-3.9082,-3.9785,-3.9023,-3.957,-4.1055,-4.0254,-3.9902,-3.9961,-4.084,-4.0684,-3.998,-4.0859,-4.1191,-4.1172,-4.1055,-4.1017,-4.0962,-4.0781,-4.0715,-4.0674,-4.0552,-4.0504,-4.0496,-4.0496,-4.0496,-4.0496,-4.0496,-4.0496,-4.0496,-4.0496,-4.0496,-4.0496,-4.0496,-4.0496,-4.0496,-4.0496,-4.0496,-4.0766,-4.1643,-4.2508,-4.3355,-4.4162,-4.5017,-4.5594,-4.5594,-4.5594,-4.5594,-4.5594,-4.5594,-4.5594,-4.5594,-4.5594,-4.5594,-4.5594,-4.5594,-4.5594,-4.5594,-4.5594,-4.5594,-4.5594,-4.5594,-4.5594,-4.5594,-4.5594,-4.5594,-4.5594,-4.5594,-4.5594,-4.5594,-4.5594,-4.5594,-3.7559,-3.8828,-4.0117,-4.0976,0.0,0.0,0.0,0.0,0.0,0.0,0.0,0.0,0.0,0.0,0.0,0.0,0.0,0.0,0.0,0.0,0.0,0.0,0.0,0.0,0.0,0.0,-4.0552,-4.0504,-4.0496,-4.0026,-3.8915,-3.8374,-3.7797,-3.7105,-3.6625,-3.6429,-3.6484,-3.6484,-3.666,-3.6992,-3.8086,-3.8769,-3.9121,-3.9863,-4.0586,-4.1172,-4.0859,-4.0703,-4.0723,-4.1055,-4.1016,-4.0722,-4.0988,-4.1078,-4.1055,-4.0922,-4.0855,-4.0805,-4.0738,-4.0655,-4.0574,-4.0519,-4.0496,-4.0496,-4.0496,-4.0496,-4.0496,-4.0496,-4.0496,-4.0496,-4.0496,-4.0496,-4.0496,-4.0496,-4.0496,-4.0496,-4.0496,-4.0496,-4.0593,-4.0931,-4.2124,-4.3201,-4.3508,-4.4682,-4.5522,-4.5322,-4.5292,-4.5292,-4.5292,-4.5292,-4.5362,-4.5577,-4.5594,-4.5513,-4.5312,-4.5485,-4.5513,-4.5302,-4.5485,-4.5594,-4.5594,-4.5594,-4.5594,-4.5594,-4.5594,-4.5495,-4.5292,-4.5292,-4.5171,-4.4977,-4.4977,-4.5096,-3.7207,-3.8574,-4.0039,0.0,0.0,0.0,0.0,0.0,0.0,0.0,0.0,0.0,0.0,0.0,0.0,0.0,0.0,0.0,0.0,0.0,0.0,0.0,0.0,0.0,0.0,-4.0854,-4.04,-4.015,-4.0131,-3.965,-3.8546,-3.7971,-3.7323,-3.6576,-3.6092,-3.5884,-3.5973,-3.5996,-3.5996,-3.6016,-3.7773,-3.8594,-3.8652,-4.0117,-4.0937,-4.1191,-4.1191,-4.1191,-4.1191,-4.1191,-4.1171,-4.1128,-4.1048,-4.0966,-4.092,-4.0809,-4.0747,-4.0692,-4.0642,-4.0588,-4.0496,-4.0496,-4.0496,-4.0496,-4.0496,-4.0496,-4.0496,-4.0496,-4.0496,-4.0496,-4.0496,-4.0496,-4.0496,-4.0496,-4.0496,-4.0496,-4.0496,-4.0422,-4.0485,-4.0846,-4.1909,-4.29,-4.3262,-4.4403,-4.5211,-4.4977,-4.4943,-4.4943,-4.4943,-4.5041,-4.5191,-4.5419,-4.5352,-4.5232,-4.5107,-4.5222,-4.5273,-4.5253,-4.5273,-4.5371,-4.5586,-4.5594,-4.5559,-4.5438,-4.5438,-4.5292,-4.4943,-4.4943,-4.4806,-4.4593,-4.4593,-4.472,-3.7519,-3.8574,0.0,0.0,0.0,0.0,0.0,0.0,0.0,0.0,0.0,0.0,0.0,0.0,0.0,0.0,0.0,0.0,0.0,0.0,0.0,0.0,0.0,0.0,0.0,-4.0496,-4.0169,-3.9361,-3.9284,-3.8527,-3.6788,-3.6692,-3.635,-3.5625,-3.5671,-3.5764,-3.5901,-3.5972,-3.5996,-3.6016,-3.7754,-3.8594,-3.8633,-3.9512,-4.0371,-4.1191,-4.1191,-4.1191,-4.1191,-4.1191,-4.1126,-4.0996,-4.0994,-4.0917,-4.0785,-4.0715,-4.0697,-4.0674,-4.0545,-4.0496,-4.0496,-4.0496,-4.0496,-4.0496,-4.0496,-4.0496,-4.0496,-4.0496,-4.0496,-4.0496,-4.0496,-4.0496,-4.0496,-4.0496,-4.0496,-4.0496,-4.0496,-4.0295,-4.0435,-4.1574,-4.1956,-4.2451,-4.3602,-4.4244,-4.4593,-4.4593,-4.4593,-4.4593,-4.4593,-4.4884,-4.5096,-4.5096,-4.48,-4.472,-4.5063,-4.48,-4.4877,-4.5531,-4.4966,-4.4908,-4.5568,-4.5586,-4.5429,-4.5096,-4.5096,-4.4931,-4.4593,-4.4593,-4.458,-4.458,-4.458,-4.458,-3.6621,-3.8105,0.0,0.0,0.0,0.0,0.0,0.0,0.0,0.0,0.0,0.0,0.0,0.0,0.0,0.0,0.0,0.0,0.0,0.0,0.0,0.0,0.0,0.0,-4.0535,-3.9996,-3.9554,-3.9323,-3.8719,-3.7892,-3.675,-3.6692,-3.635,-3.5625,-3.5671,-3.5764,-3.5901,-3.5972,-3.5996,-3.6016,-3.7148,-3.8008,-3.8652,-4.0137,-4.0957,-4.1191,-4.1191,-4.1191,-4.1191,-4.1103,-4.1048,-4.0988,-4.0832,-4.0762,-4.0729,-4.061,-4.0559,-4.0552,-4.0519,-4.0496,-4.0496,-4.0496,-4.0496,-4.0496,-4.0496,-4.0496,-4.0496,-4.0496,-4.0496,-4.0496,-4.0496,-4.0496,-4.0496,-4.0496,-4.0356,-4.0258,-4.0465,-4.011,-4.0087,-4.1237,-4.1797,-4.2397,-4.3295,-4.4096,-4.4501,-4.4219,-4.4175,-4.4175,-4.4175,-4.4508,-4.4751,-4.4751,-4.4657,-4.4527,-4.4327,-4.4482,-4.4548,-4.4489,-4.4548,-4.4781,-4.5232,-4.5011,-4.4861,-4.4745,-4.4751,-4.4567,-4.4175,-4.4175,-4.4046,-4.3823,-4.3823,-4.3943,-3.7598,0.0,0.0,0.0,0.0,0.0,0.0,0.0,0.0,0.0,0.0,0.0,0.0,0.0,0.0,0.0,0.0,0.0,0.0,0.0,0.0,0.0,0.0,0.0,-4.0054,-3.9573,-3.9015,-3.8315,-3.7777,-3.7123,-3.6269,-3.6212,-3.6016,-3.5575,-3.565,-3.5749,-3.5812,-3.5949,-3.5996,-3.6016,-3.6875,-3.7578,-3.8144,-3.9883,-4.0879,-4.1191,-4.1149,-4.1126,-4.1105,-4.0986,-4.0899,-4.0875,-4.0751,-4.0661,-4.061,-4.0542,-4.0496,-4.0496,-4.0496,-4.0496,-4.0496,-4.0496,-4.0496,-4.0496,-4.0496,-4.0496,-4.0496,-4.0496,-4.0496,-4.0496,-4.0496,-4.0496,-4.0496,-4.0496,-4.0372,-4.0267,-4.033,-4.021,-4.037,-4.1423,-4.1914,-4.2478,-4.3422,-4.39,-4.408,-4.3852,-4.3804,-4.3849,-4.3986,-4.4091,-4.4209,-4.435,-4.4237,-4.4106,-4.4016,-4.4091,-4.418,-4.4252,-4.4194,-4.4323,-4.4651,-4.4618,-4.4527,-4.4359,-4.4359,-4.418,-4.3804,-4.3804,-4.3693,-4.3515,-4.3515,-4.3614,0.0,0.0,0.0,0.0,0.0,0.0,0.0,0.0,0.0,0.0,0.0,0.0,0.0,0.0,0.0,0.0,0.0,0.0,0.0,0.0,0.0,0.0,0.0,-3.9977,-3.9246,-3.9111,-3.8411,-3.6808,-3.6635,-3.6269,-3.5538,-3.55,-3.55,-3.55,-3.5621,-3.5696,-3.5707,-3.588,-3.5996,-3.6016,-3.6797,-3.7226,-3.7363,-3.9101,-4.0371,-4.1171,-4.1052,-4.0992,-4.0964,-4.0847,-4.0757,-4.0697,-4.0686,-4.0603,-4.0496,-4.0496,-4.0496,-4.0496,-4.0496,-4.0496,-4.0496,-4.0496,-4.0496,-4.0496,-4.0496,-4.0496,-4.0496,-4.0496,-4.0496,-4.0496,-4.0496,-4.0554,-4.0631,-4.0631,-4.0596,-4.0504,-4.0263,-4.0563,-4.113,-4.199,-4.2233,-4.2658,-4.3763,-4.3693,-4.3515,-4.3515,-4.3515,-4.3614,-4.3927,-4.3677,-4.3631,-4.3909,-4.3677,-4.3612,-4.3924,-4.3679,-4.3775,-4.4447,-4.3868,-4.3629,-4.394,-4.4308,-4.4337,-4.3955,-4.3955,-4.3804,-4.3515,-4.3515,-4.3515,-4.3515,-4.3515,-4.3515,0.0,0.0,0.0,0.0,0.0,0.0,0.0,0.0,0.0,0.0,0.0,0.0,0.0,0.0,0.0,0.0,0.0,0.0,0.0,0.0,0.0,0.0,0.0,-3.8469,-3.8296,-3.7661,-3.7103,-3.6731,-3.6115,-3.5673,-3.5519,-3.55,-3.55,-3.55,-3.5582,-3.5642,-3.5703,-3.5849,-3.5948,-3.5996,-3.6191,-3.6641,-3.7363,-3.9101,-4.0328,-4.1049,-4.1,-4.095,-4.0843,-4.0767,-4.0707,-4.0686,-4.0575,-4.0534,-4.0496,-4.0496,-4.0496,-4.0496,-4.0496,-4.0496,-4.0496,-4.0496,-4.0496,-4.0496,-4.0496,-4.0496,-4.0496,-4.0496,-4.0496,-4.0496,-4.0496,-4.1008,-4.1527,-4.1527,-4.1316,-4.1103,-4.1044,-4.1252,-4.1684,-4.2501,-4.2461,-4.2577,-4.3468,-4.3548,-4.3515,-4.3515,-4.3515,-4.3531,-4.3597,-4.3548,-4.3531,-4.3597,-4.3548,-4.3531,-4.3614,-4.3548,-4.3582,-4.3728,-4.3599,-4.3531,-4.3595,-4.3695,-4.3695,-4.3614,-4.3614,-4.3563,-4.3515,-4.3515,-4.3515,-4.3515,-4.3515,-4.3515,0.0,0.0,0.0,0.0,0.0,0.0,0.0,0.0,0.0,0.0,0.0,0.0,0.0,0.0,0.0,0.0,0.0,0.0,0.0,0.0,0.0,0.0,-3.8007,-3.7834,-3.743,-3.6962,-3.6538,-3.6154,-3.5731,-3.55,-3.55,-3.55,-3.55,-3.55,-3.5568,-3.5635,-3.5703,-3.5836,-3.5922,-3.5996,-3.5996,-3.668,-3.7969,-3.9297,-4.0307,-4.0994,-4.0925,-4.0859,-4.0742,-4.0655,-4.0603,-4.0589,-4.0534,-4.0496,-4.0496,-4.0496,-4.0496,-4.0496,-4.0496,-4.0496,-4.0496,-4.0496,-4.0496,-4.0496,-4.0496,-4.0496,-4.0496,-4.0496,-4.0496,-4.0496,-4.0496,-4.1143,-4.1788,-4.1788,-4.1993,-4.2125,-4.1961,-4.2186,-4.2491,-4.276,-4.2839,-4.3002,-4.3441,-4.3515,-4.3515,-4.3515,-4.3515,-4.3515,-4.3515,-4.3515,-4.3515,-4.3515,-4.3515,-4.3515,-4.3515,-4.3515,-4.3515,-4.3515,-4.3515,-4.3515,-4.3515,-4.3515,-4.3515,-4.3515,-4.3515,-4.3515,-4.3515,-4.3515,-4.3515,-4.3515,-4.3515,-4.3515,0.0,0.0,0.0,0.0,0.0,0.0,0.0,0.0,0.0,0.0,0.0,0.0,0.0,0.0,0.0,0.0,0.0,0.0,0.0,0.0,0.0,0.0,-3.7565,-3.7296,-3.6558,-3.6481,-3.6212,-3.5558,-3.55,-3.55,-3.55,-3.55,-3.55,-3.55,-3.5544,-3.5602,-3.5678,-3.5789,-3.5885,-3.5975,-3.5996,-3.6894,-3.8593,-3.9315,-4.0125,-4.0957,-4.0836,-4.0738,-4.0668,-4.0545,-4.0496,-4.0496,-4.0496,-4.0496,-4.0496,-4.0496,-4.0496,-4.0496,-4.0496,-4.0496,-4.0496,-4.0496,-4.0496,-4.0496,-4.0496,-4.0496,-4.0496,-4.0496,-4.0612,-4.0689,-4.0535,-4.1354,-4.22,-4.2058,-4.2744,-4.3309,-4.2838,-4.3152,-4.3412,-4.2992,-4.3232,-4.3515,-4.3515,-4.3515,-4.3515,-4.3515,-4.3515,-4.3515,-4.3515,-4.3515,-4.3515,-4.3515,-4.3515,-4.3515,-4.3515,-4.3515,-4.3515,-4.3515,-4.3515,-4.3515,-4.3515,-4.3515,-4.3515,-4.3515,-4.3515,-4.3515,-4.3515,-4.3515,-4.3515,-4.3515,-4.3515,-4.3515,0.0,0.0,0.0,0.0,0.0,0.0,0.0,0.0,0.0,0.0,0.0,0.0,0.0,0.0,0.0,0.0,0.0,0.0,0.0,0.0,0.0,0.0,-3.5827,-3.5788,-3.5673,-3.5654,-3.5615,-3.5519,-3.55,-3.55,-3.55,-3.55,-3.55,-3.55,-3.5508,-3.554,-3.5616,-3.5636,-3.5725,-3.5911,-3.5974,-3.6851,-3.8426,-3.8543,-3.9409,-4.0813,-4.0752,-4.0642,-4.0534,-4.0504,-4.0496,-4.0496,-4.0496,-4.0496,-4.0496,-4.0496,-4.0496,-4.0496,-4.0496,-4.0496,-4.0496,-4.0496,-4.0496,-4.0496,-4.0496,-4.0496,-4.0496,-4.0496,-4.1046,-4.145,-4.0708,-4.222,-4.3797,-4.3085,-4.3905,-4.4541,-4.344,-4.3851,-4.4223,-4.3545,-4.3457,-4.3515,-4.3515,-4.3515,-4.3515,-4.3515,-4.3515,-4.3515,-4.3515,-4.3515,-4.3515,-4.3515,-4.3515,-4.3515,-4.3515,-4.3515,-4.3515,-4.3515,-4.3515,-4.3515,-4.3515,-4.3515,-4.3515,-4.3515,-4.3515,-4.3515,-4.3515,-4.3515,-4.3515,-4.3515,-4.3515,-4.3515,0.0,0.0,0.0,0.0,0.0,0.0,0.0,0.0,0.0,0.0,0.0,0.0,0.0,0.0,0.0,0.0,0.0,0.0,0.0,0.0,0.0,0.0,-3.55,-3.55,-3.55,-3.55,-3.55,-3.55,-3.55,-3.55,-3.55,-3.55,-3.55,-3.55,-3.55,-3.5528,-3.5605,-3.5611,-3.5661,-3.5797,-3.5825,-3.6701,-3.8344,-3.8272,-3.9153,-4.0732,-4.0707,-4.063,-4.0496,-4.0496,-4.0496,-4.0496,-4.0496,-4.0496,-4.0496,-4.0496,-4.0496,-4.0496,-4.0496,-4.0496,-4.0496,-4.0496,-4.0496,-4.0496,-4.0496,-4.0835,-4.1239,-4.1239,-4.1854,-4.245,-4.2066,-4.2797,-4.3643,-4.3739,-4.4218,-4.4544,-4.4127,-4.4156,-4.4106,-4.3597,-4.3515,-4.3515,-4.3515,-4.3515,-4.3515,-4.3515,-4.3515,-4.3515,-4.3515,-4.3515,-4.3515,-4.3515,-4.3515,-4.3515,-4.3515,-4.3515,-4.3515,-4.3515,-4.3515,-4.3515,-4.3515,-4.3515,-4.3515,-4.3515,-4.3515,-4.3515,-4.3515,-4.3515,-4.3515,-4.3515,-4.3515,-4.3515,0.0,0.0,0.0,0.0,0.0,0.0,0.0,0.0,0.0,0.0,0.0,0.0,0.0,0.0,0.0,0.0,0.0,0.0,0.0,0.0,0.0,0.0,-3.55,-3.55,-3.55,-3.55,-3.55,-3.55,-3.55,-3.55,-3.55,-3.55,-3.55,-3.55,-3.55,-3.5528,-3.5571,-3.559,-3.5621,-3.5667,-3.5693,-3.6607,-3.8252,-3.8151,-3.9029,-4.0655,-4.0655,-4.0589,-4.0496,-4.0496,-4.0496,-4.0496,-4.0496,-4.0496,-4.0496,-4.0496,-4.0496,-4.0496,-4.0496,-4.0496,-4.0496,-4.0496,-4.0496,-4.0535,-4.0766,-4.1277,-4.1846,-4.2066,-4.2758,-4.3355,-4.3143,-4.3412,-4.3835,-4.4201,-4.4407,-4.4527,-4.4587,-4.4223,-4.3804,-4.3548,-4.3515,-4.3515,-4.3515,-4.3515,-4.3515,-4.3515,-4.3515,-4.3515,-4.3515,-4.3515,-4.3515,-4.3515,-4.3515,-4.3515,-4.3515,-4.3515,-4.3515,-4.3515,-4.3515,-4.3515,-4.3515,-4.3515,-4.3515,-4.3515,-4.3515,-4.3515,-4.3515,-4.3515,-4.3515,-4.3515,-4.3515,-4.3548,0.0,0.0,0.0,0.0,0.0,0.0,0.0,0.0,0.0,0.0,0.0,0.0,0.0,0.0,0.0,0.0,0.0,0.0,0.0,0.0,0.0,0.0,0.0,-3.55,-3.55,-3.55,-3.55,-3.55,-3.55,-3.55,-3.55,-3.55,-3.55,-3.55,-3.55,-3.5507,-3.5514,-3.5579,-3.5591,-3.5601,-3.5679,-3.6545,-3.8109,-3.8103,-3.8987,-4.0512,-4.0512,-4.0504,-4.0496,-4.0496,-4.0496,-4.0496,-4.0496,-4.0496,-4.0496,-4.0496,-4.0496,-4.0496,-4.0496,-4.0496,-4.0496,-4.0496,-4.0496,-4.065,-4.1489,-4.175,-4.1962,-4.2797,-4.3605,-4.4066,-4.3297,-4.4278,-4.5267,-4.4489,-4.4691,-4.4973,-4.467,-4.4035,-4.3513,-4.3496,-4.3515,-4.3515,-4.3515,-4.3515,-4.3515,-4.3515,-4.3515,-4.3515,-4.3515,-4.3515,-4.3515,-4.3515,-4.3515,-4.3515,-4.3515,-4.3515,-4.3515,-4.3515,-4.3515,-4.3515,-4.3515,-4.3515,-4.3515,-4.3515,-4.3515,-4.3515,-4.3515,-4.3515,-4.3515,-4.3515,-4.3515,-4.3679,0.0,0.0,0.0,0.0,0.0,0.0,0.0,0.0,0.0,0.0,0.0,0.0,0.0,0.0,0.0,0.0,0.0,0.0,0.0,0.0,0.0,0.0,0.0,-3.55,-3.55,-3.55,-3.55,-3.55,-3.55,-3.55,-3.55,-3.55,-3.55,-3.55,-3.55,-3.55,-3.55,-3.5528,-3.554,-3.554,-3.5556,-3.6136,-3.7192,-3.7192,-3.8129,-3.9727,-3.9727,-4.0015,-4.0496,-4.0496,-4.0496,-4.0496,-4.0496,-4.0496,-4.0496,-4.0496,-4.0496,-4.0496,-4.0496,-4.0496,-4.0496,-4.0496,-4.0496,-4.0669,-4.1546,-4.22,-4.2816,-4.3643,-4.447,-4.5075,-4.4786,-4.472,-4.4682,-4.4374,-4.47,-4.5074,-4.4943,-4.4553,-4.4065,-4.358,-4.3515,-4.3515,-4.3515,-4.3515,-4.3515,-4.3515,-4.3515,-4.3515,-4.3515,-4.3515,-4.3515,-4.3515,-4.3515,-4.3515,-4.3515,-4.3515,-4.3515,-4.3515,-4.3515,-4.3515,-4.3515,-4.3515,-4.3515,-4.3515,-4.3515,-4.3515,-4.3515,-4.3515,-4.3515,-4.3515,-4.3515,-4.3546,-3.1523,0.0,0.0,0.0,0.0,0.0,0.0,0.0,0.0,0.0,0.0,0.0,0.0,0.0,0.0,0.0,0.0,0.0,0.0,0.0,0.0,0.0,0.0,-3.55,-3.55,-3.55,-3.55,-3.55,-3.55,0.0,-3.55,-3.55,-3.55,-3.55,-3.55,-3.55,-3.55,-3.55,-3.55,-3.55,-3.55,-3.5923,-3.6692,-3.6692,-3.7642,-3.9304,-3.9304,-3.9765,-4.0496,-4.0496,-4.0496,-4.0496,-4.0496,-4.0496,-4.0496,-4.0496,-4.0496,-4.0496,-4.0496,-4.0496,-4.0496,-4.0496,-4.0708,-4.1104,-4.197,-4.2835,-4.3682,-4.4489,-4.5152,-4.5594,-4.5594,-4.5171,-4.4739,-4.4739,-4.5007,-4.5232,-4.5118,-4.4732,-4.4252,-4.3758,-4.358,-4.3515,-4.3515,-4.3515,-4.3515,-4.3515,-4.3515,-4.3515,-4.3515,-4.3515,-4.3515,-4.3515,-4.3515,-4.3515,-4.3515,-4.3515,-4.3515,-4.3515,-4.3515,-4.3515,-4.3515,-4.3515,-4.3515,-4.3515,-4.3515,-4.3565,-4.3679,-4.3546,-4.3515,-4.3515,-4.3515,-4.3515,0.0,0.0,0.0,0.0,0.0,0.0,0.0,0.0,0.0,0.0,0.0,0.0,0.0,0.0,0.0,0.0,0.0,0.0,0.0,0.0,0.0,0.0,0.0,-3.55,-3.55,-3.55,-3.55,-3.55,-3.55,-3.55,-3.55,-3.55,-3.55,-3.55,-3.55,-3.55,-3.55,-3.55,-3.55,-3.55,-3.55,-3.5904,-3.6654,-3.6654,-3.7603,-3.9227,-3.9246,-3.9727,-4.0477,-4.0496,-4.0496,-4.0496,-4.0496,-4.0496,-4.0496,-4.0496,-4.0496,-4.0496,-4.0496,-4.0496,-4.0496,-4.0496,-4.1085,-4.1962,-4.2835,-4.3662,-4.447,-4.5344,-4.5594,-4.5594,-4.5594,-4.5594,-4.5594,-4.5594,-4.5594,-4.5513,-4.5191,-4.4529,-4.4031,-4.3998,-4.3742,-4.3496,-4.3496,-4.3515,-4.3515,-4.3515,-4.3515,-4.3515,-4.3515,-4.3515,-4.3515,-4.3515,-4.3515,-4.3515,-4.3515,-4.3515,-4.3515,-4.3515,-4.3515,-4.3515,-4.3515,-4.3515,-4.3515,-4.3515,-4.3515,-4.3662,-4.3967,-4.3662,-4.3515,-4.3513,-4.3513,-4.3513,-3.0078,0.0,0.0,0.0,0.0,0.0,0.0,0.0,0.0,0.0,0.0,0.0,0.0,0.0,0.0,0.0,0.0,0.0,0.0,0.0,0.0,0.0,0.0,0.0,-3.55,-3.55,-3.55,0.0,-3.55,-3.55,-3.55,-3.55,-3.55,-3.55,-3.55,-3.55,-3.55,-3.55,-3.55,-3.55,-3.55,-3.5615,-3.5827,-3.5827,-3.6404,-3.745,-3.8084,-3.8834,-3.9688,-4.0265,-4.0496,-4.0496,-4.0496,-4.0496,-4.0496,-4.0496,-4.0496,-4.0496,-4.0496,-4.0496,-4.0496,-4.0496,-4.1085,-4.1962,-4.2835,-4.3662,-4.447,-4.5344,-4.5594,-4.5594,-4.5594,-4.5594,-4.5594,-4.5594,-4.5594,-4.5577,-4.5485,-4.5099,-4.4638,-4.4102,-4.3924,-4.3788,-4.3548,-4.3515,-4.3515,-4.3515,-4.3515,-4.3515,-4.3515,-4.3515,-4.3515,-4.3515,-4.3515,-4.3515,-4.3515,-4.3515,-4.3515,-4.3515,-4.3515,-4.3515,-4.3515,-4.3515,-4.3515,-4.3515,-4.3515,-4.3548,-4.3629,-4.3548,-4.3612,-4.3865,-4.3865,-4.3865,0.0,0.0,0.0,0.0,0.0,0.0,0.0,-3.1395,0.0,0.0,0.0,0.0,0.0,0.0,0.0,0.0,0.0,0.0,0.0,0.0,0.0,0.0,0.0,0.0,-3.55,-3.55,-3.55,-3.55,-3.55,-3.55,-3.55,-3.55,-3.55,-3.55,-3.55,-3.55,-3.55,-3.55,-3.55,-3.55,-3.55,-3.55,-3.55,-3.55,-3.6135,-3.7276,-3.7777,-3.8681,-3.9842,-4.0304,-4.0496,-4.0496,-4.0496,-4.0496,-4.0496,-4.0496,-4.0496,-4.0496,-4.0496,-4.0496,-4.0496,-4.0496,-4.1085,-4.1962,-4.2835,-4.3662,-4.447,-4.5344,-4.5594,-4.5594,-4.5594,-4.5594,-4.5594,-4.5594,-4.5594,-4.5594,-4.5594,-4.5438,-4.5107,-4.4387,-4.4102,-4.3878,-4.3565,-4.3515,-4.3515,-4.3515,-4.3515,-4.3515,-4.3515,-4.3515,-4.3515,-4.3515,-4.3515,-4.3515,-4.3515,-4.3515,-4.3515,-4.3515,-4.3515,-4.3515,-4.3515,-4.3515,-4.3515,-4.3515,-4.3515,-4.3515,-4.3515,-4.3515,-4.3679,-4.3998,-4.4161,-4.4247,0.0,0.0,0.0,0.0,0.0,0.0,-3.1906,-3.1355,-3.0673,0.0,0.0,0.0,0.0,0.0,0.0,0.0,0.0,0.0,0.0,0.0,0.0,0.0,0.0,0.0,-3.55,-3.55,-3.55,-3.55,-3.55,-3.55,-3.55,-3.55,-3.55,-3.55,-3.55,-3.55,-3.55,-3.55,-3.55,-3.55,-3.55,-3.55,-3.55,-3.55,-3.6308,-3.7738,-3.7911,-3.8854,-4.0246,-4.0419,-4.0496,-4.0496,-4.0496,-4.0496,-4.0496,-4.0496,-4.0496,-4.0496,-4.0496,-4.0496,-4.0496,-4.0496,-4.1085,-4.1962,-4.2835,-4.3662,-4.447,-4.5344,-4.5594,-4.5594,-4.5594,-4.5594,-4.5594,-4.5594,-4.5594,-4.5594,-4.5594,-4.5568,-4.5352,-4.472,-4.4304,-4.3958,-4.3582,-4.3515,-4.3515,-4.3515,-4.3515,-4.3515,-4.3515,-4.3515,-4.3515,-4.3515,-4.3515,-4.3515,-4.3515,-4.3515,-4.3515,-4.3515,-4.3515,-4.3515,-4.3515,-4.3515,-4.3515,-4.3515,-4.3515,-4.3513,-4.3565,-4.3565,-4.371,-4.4016,-4.4401,-4.4618,-3.2771,-3.2631,0.0,0.0,0.0,0.0,-2.9309,-2.9178,-2.9454,0.0,0.0,0.0,0.0,0.0,0.0,0.0,0.0,0.0,0.0,0.0,0.0,0.0,0.0,0.0,-3.55,-3.55,-3.55,-3.55,-3.55,-3.55,-3.55,-3.55,-3.55,-3.55,-3.55,-3.55,-3.55,-3.55,-3.55,-3.55,-3.55,-3.55,-3.55,-3.55,-3.5673,-3.6058,-3.7411,-3.818,-3.8584,-3.9938,-4.0496,-4.0496,-4.0496,-4.0496,-4.0496,-4.0496,-4.0496,-4.0496,-4.0496,-4.0496,-4.0496,-4.0496,-4.1085,-4.1962,-4.2835,-4.3662,-4.447,-4.5344,-4.5594,-4.5594,-4.5594,-4.5594,-4.5594,-4.5594,-4.5594,-4.5594,-4.5594,-4.54,-4.5085,-4.467,-4.454,-4.4266,-4.3614,-4.3515,-4.3515,-4.3515,-4.3515,-4.3515,-4.3515,-4.3515,-4.3515,-4.3515,-4.3515,-4.3515,-4.3515,-4.3515,-4.3515,-4.3515,-4.3515,-4.3515,-4.3515,-4.3515,-4.3515,-4.3515,-4.3515,-4.3629,-4.3893,-4.3893,-4.394,-4.4016,-4.4401,-4.4732,-3.27,-3.2527,0.0,-3.1914,0.0,0.0,0.0,0.0,-2.8857,0.0,0.0,0.0,0.0,0.0,0.0,0.0,0.0,0.0,0.0,0.0,0.0,0.0,0.0,0.0,-3.55,-3.55,-3.55,-3.55,-3.55,-3.55,-3.55,-3.55,-3.55,-3.55,-3.55,-3.55,-3.55,-3.55,-3.55,-3.55,-3.55,-3.55,-3.55,-3.55,-3.5712,-3.6154,-3.6988,-3.7834,-3.87,-3.9554,-4.015,-4.0496,-4.0496,-4.0496,-4.0496,-4.0496,-4.0496,-4.0496,-4.0496,-4.0496,-4.0496,-4.0496,-4.0804,-4.1316,-4.22,-4.3316,-4.4393,-4.4816,-4.5267,-4.5594,-4.5594,-4.5594,-4.5594,-4.5594,-4.5594,-4.554,-4.539,-4.5222,-4.4943,-4.4401,-4.429,-4.4121,-4.3597,-4.3515,-4.3515,-4.3515,-4.3515,-4.3515,-4.3515,-4.3515,-4.3515,-4.3515,-4.3515,-4.3515,-4.3515,-4.3515,-4.3515,-4.3515,-4.3515,-4.3515,-4.3515,-4.3515,-4.3515,-4.3515,-4.3662,-4.3818,-4.4001,-4.419,-4.4387,-4.4561,-4.4924,-4.5182,0.0,0.0,0.0,0.0,0.0,-3.1135,0.0,0.0,0.0,0.0,0.0,0.0,0.0,0.0,0.0,0.0,0.0,0.0,0.0,0.0,0.0,0.0,0.0,0.0,-3.5481,-3.5346,-3.5327,-3.5481,-3.5346,-3.5327,-3.5481,-3.55,-3.55,-3.55,-3.55,-3.55,-3.55,-3.55,-3.55,-3.55,-3.55,-3.55,-3.55,-3.55,-3.5846,-3.6481,-3.6808,-3.7757,-3.9073,-3.94,-3.9919,-4.0496,-4.0496,-4.0496,-4.0496,-4.0496,-4.0496,-4.0496,-4.0496,-4.0496,-4.0496,-4.0496,-4.0612,-4.0912,-4.1797,-4.3104,-4.4335,-4.4489,-4.5056,-4.5594,-4.5594,-4.5594,-4.5594,-4.5594,-4.5594,-4.5504,-4.518,-4.5052,-4.4806,-4.4132,-4.394,-4.382,-4.3548,-4.3515,-4.3515,-4.3515,-4.3515,-4.3515,-4.3515,-4.3515,-4.3515,-4.3515,-4.3515,-4.3515,-4.3515,-4.3515,-4.3515,-4.3515,-4.3515,-4.3515,-4.3515,-4.3546,-4.3582,-4.3515,-4.3896,-4.4117,-4.4117,-4.4514,-4.4837,-4.5107,-4.539,-4.555,0.0,0.0,0.0,0.0,-3.3346,0.0,0.0,0.0,-2.9558,-2.7601,0.0,0.0,0.0,0.0,0.0,0.0,0.0,0.0,0.0,0.0,0.0,0.0,0.0,0.0,-3.5423,-3.4795,-3.4661,-3.5442,-3.4776,-3.468,-3.5462,-3.55,-3.55,-3.55,-3.55,-3.55,-3.55,-3.55,-3.55,-3.55,-3.55,-3.55,-3.55,-3.55,-3.5558,-3.5712,-3.7219,-3.7969,-3.8257,-3.9746,-4.0419,-4.0496,-4.0496,-4.0496,-4.0496,-4.0496,-4.0496,-4.0496,-4.0496,-4.0496,-4.0496,-4.0496,-4.1027,-4.1816,-4.2701,-4.3585,-4.4451,-4.5229,-4.5518,-4.5594,-4.5594,-4.5594,-4.5594,-4.5594,-4.5594,-4.5504,-4.518,-4.4872,-4.4527,-4.4106,-4.3756,-4.3548,-4.3515,-4.3515,-4.3515,-4.3515,-4.3515,-4.3515,-4.3515,-4.3515,-4.3515,-4.3515,-4.3515,-4.3515,-4.3515,-4.3515,-4.3515,-4.3515,-4.3515,-4.3515,-4.3515,-4.3788,-4.3804,-4.3515,-4.4165,-4.4527,-4.4527,-4.4884,-4.5063,-4.5096,-4.5129,-4.5322,0.0,0.0,0.0,0.0,0.0,0.0,-3.1049,0.0,-2.8929,0.0,0.0,0.0,0.0,0.0,0.0,0.0,0.0,0.0,0.0,0.0,0.0,0.0,0.0,0.0,-3.4661,-3.441,-3.4564,-3.5423,-3.4699,-3.4584,-3.5442,-3.55,-3.55,-3.55,-3.55,-3.55,-3.55,-3.55,-3.55,-3.55,-3.55,-3.55,-3.55,-3.55,-3.55,-3.5577,-3.6731,-3.7526,-3.8084,-3.9304,-4.0073,-4.0496,-4.0496,-4.0496,-4.0496,-4.0496,-4.0496,-4.0496,-4.0496,-4.0496,-4.0496,-4.0496,-4.0746,-4.12,-4.2085,-4.2931,-4.3778,-4.4605,-4.4855,-4.496,-4.5479,-4.5229,-4.4979,-4.5479,-4.5594,-4.5504,-4.518,-4.4977,-4.4781,-4.4414,-4.4046,-4.3849,-4.4095,-4.3775,-4.3515,-4.3515,-4.3515,-4.3515,-4.3515,-4.3515,-4.3515,-4.3515,-4.3515,-4.3515,-4.3515,-4.3515,-4.358,-4.3772,-4.3788,-4.3881,-4.414,-4.4046,-4.4046,-4.414,-4.4631,-4.4896,-4.4896,-4.5232,-4.54,-4.54,-4.54,-4.5476,-3.459,0.0,0.0,0.0,0.0,0.0,0.0,0.0,0.0,0.0,0.0,0.0,0.0,0.0,0.0,0.0,0.0,0.0,0.0,0.0,0.0,0.0,0.0,0.0,0.0,-3.3648,-3.3968,-3.5064,-3.4334,-3.4334,-3.5442,-3.55,-3.55,-3.55,-3.55,-3.55,-3.55,-3.55,-3.55,-3.55,-3.55,-3.55,-3.55,-3.55,-3.55,-3.5538,-3.6346,-3.7065,-3.7738,-3.8834,-3.965,-4.0189,-4.0419,-4.0496,-4.0496,-4.0496,-4.0496,-4.0496,-4.0496,-4.0496,-4.0496,-4.0496,-4.0496,-4.0669,-4.1546,-4.2412,-4.322,-4.3816,-4.4124,-4.4393,-4.4806,-4.4605,-4.4451,-4.5094,-4.5441,-4.5504,-4.518,-4.5096,-4.5007,-4.4676,-4.4359,-4.4247,-4.454,-4.4065,-4.3629,-4.3629,-4.3744,-4.3728,-4.3513,-4.3679,-4.3758,-4.3646,-4.3744,-4.3807,-4.3807,-4.3807,-4.3915,-4.4146,-4.4161,-4.4308,-4.458,-4.4401,-4.4401,-4.4612,-4.5011,-4.5191,-4.5096,-4.5429,-4.5594,-4.5594,-4.5594,-4.5594,0.0,0.0,0.0,-3.3353,0.0,0.0,0.0,0.0,-3.0891,0.0,0.0,0.0,0.0,0.0,0.0,0.0,0.0,0.0,0.0,0.0,0.0,0.0,0.0,0.0,0.0,-3.2237,-3.2468,0.0,-3.343,-3.3699,-3.5404,-3.55,-3.55,-3.55,-3.55,-3.55,-3.55,-3.55,-3.55,-3.55,-3.55,-3.55,-3.55,-3.55,-3.55,-3.5538,-3.6346,-3.6712,-3.6865,-3.8584,-3.9323,-3.9419,-4.0208,-4.0496,-4.0496,-4.0496,-4.0496,-4.0496,-4.0496,-4.0496,-4.0496,-4.0496,-4.0496,-4.0669,-4.1546,-4.2412,-4.3104,-4.3124,-4.3701,-4.4124,-4.3374,-4.3739,-4.4316,-4.4335,-4.4998,-4.5504,-4.518,-4.5096,-4.5007,-4.4676,-4.458,-4.458,-4.4612,-4.4266,-4.3967,-4.3967,-4.4323,-4.4308,-4.358,-4.4125,-4.4419,-4.4031,-4.4318,-4.4553,-4.4553,-4.4553,-4.4567,-4.458,-4.458,-4.458,-4.4593,-4.4896,-4.4919,-4.4612,-4.5253,-4.5419,-4.5096,-4.5429,-4.5594,-4.5594,-4.5594,-4.5594,0.0,0.0,-3.528,-3.4058,0.0,0.0,0.0,0.0,0.0,0.0,0.0,0.0,0.0,0.0,0.0,0.0,0.0,0.0,0.0,0.0,0.0,0.0,0.0,0.0,0.0,0.0,0.0,0.0,-3.3936,0.0,-3.5442,-3.6,-3.6058,-3.5519,-3.55,-3.55,-3.55,-3.55,-3.55,-3.55,-3.55,-3.55,-3.55,-3.55,-3.55,-3.5538,-3.6346,-3.7026,-3.7642,-3.8815,-3.9611,-4.0131,-4.04,-4.0496,-4.0496,-4.0496,-4.0496,-4.0496,-4.0496,-4.0496,-4.0496,-4.0496,-4.0496,-4.0669,-4.1546,-4.2,-4.2354,-4.2931,-4.2874,-4.272,-4.3028,-4.3297,-4.3643,-4.4162,-4.4979,-4.5568,-4.5467,-4.5429,-4.54,-4.5283,-4.5085,-4.5,-4.5232,-4.4958,-4.4651,-4.4428,-4.4514,-4.4501,-4.4252,-4.4447,-4.454,-4.4419,-4.4514,-4.4593,-4.4593,-4.4793,-4.4931,-4.4931,-4.4931,-4.5022,-4.5253,-4.5169,-4.514,-4.5263,-4.5475,-4.5531,-4.5429,-4.5531,-4.5594,-4.5594,-4.5594,-4.5594,-3.552,-3.5528,0.0,-3.4459,-3.3464,0.0,-3.077,0.0,-3.02,0.0,0.0,0.0,0.0,0.0,0.0,0.0,0.0,0.0,0.0,0.0,0.0,0.0,0.0,0.0,0.0,0.0,-3.2064,-3.4052,-3.4205,0.0,0.0,-3.6712,-3.6769,-3.5942,-3.5923,-3.5788,-3.55,-3.55,-3.55,-3.55,-3.55,-3.55,-3.55,-3.55,-3.55,-3.5538,-3.6058,-3.675,-3.7603,-3.8469,-3.9342,-4.0092,-4.04,-4.0496,-4.0496,-4.0496,-4.0496,-4.0496,-4.0496,-4.0496,-4.0496,-4.0496,-4.0496,-4.0593,-4.1162,-4.1546,-4.1846,-4.2104,-4.1989,-4.1854,-4.2104,-4.2643,-4.3239,-4.3739,-4.4759,-4.5594,-4.5594,-4.5594,-4.5594,-4.5594,-4.5429,-4.5342,-4.5568,-4.5419,-4.515,-4.4837,-4.4884,-4.4884,-4.4618,-4.4806,-4.4919,-4.4781,-4.4877,-4.4954,-4.4954,-4.515,-4.5292,-4.5292,-4.5292,-4.5362,-4.5586,-4.54,-4.539,-4.5605,-4.5594,-4.5594,-4.5594,-4.5594,-4.5594,-4.5594,-4.5594,-4.5594]},{"header":{"parameterUnit":"m.s-1","parameterCategory":1,"la1":30.6,"la2":29.2853,"lo1":-89.7004,"lo2":-87.6739,"dy":0.0162,"dx":0.0183,"nx":112,"ny":82,"refTime":"2024-11-22T18:00:00:Z","depth":0,"parameterNumber":3,"parameterNumberName":"V-component_of_WINDS"},"data":[0.0,0.0,0.0,0.0,0.0,0.0,0.0,0.0,0.0,0.0,0.0,0.0,0.0,0.0,0.0,0.0,0.0,0.0,0.0,0.0,0.0,0.0,0.0,0.0,0.0,0.0,0.0,0.0,0.0,0.0,0.0,0.0,0.0,0.0,0.0,0.0,0.0,0.0,0.0,0.0,0.0,0.0,0.0,0.0,0.0,0.0,0.0,0.0,0.0,0.0,0.0,0.0,0.0,0.0,0.0,0.0,0.0,0.0,0.0,0.0,0.0,0.0,0.0,0.0,0.0,0.0,0.0,0.0,0.0,0.0,0.0,0.0,0.0,0.0,0.0,0.0,0.0,0.0,0.0,0.0,0.0,0.0,0.0,0.0,0.0,0.0,0.0,0.0,0.0,0.0,0.0,0.0,0.0,-0.0353,-0.1293,-0.1489,-0.2259,-0.3837,0.0,0.0,0.0,0.0,0.0,0.0,0.0,0.0,0.0,0.0,0.0,0.0,0.0,0.0,0.0,0.0,0.0,0.0,0.0,0.0,0.0,0.0,0.0,0.0,0.0,0.0,0.0,0.0,0.0,0.0,0.0,0.0,0.0,0.0,0.0,0.0,0.0,0.0,0.0,0.0,0.0,0.0,0.0,0.0,0.0,0.0,0.0,0.0,0.0,0.0,0.0,0.0,0.0,0.0,0.0,0.0,0.0,0.0,0.0,0.0,0.0,0.0,0.0,0.0,0.0,0.0,0.0,0.0,0.0,0.0,0.0,0.0,0.0,0.0,0.0,0.0,0.0,0.0,0.0,0.0,0.0,0.0,0.0,0.0,0.0,0.0,0.0,0.0,0.0,0.0,0.0,0.0,0.0,0.0,0.0,0.0,0.0,0.0,0.0,0.0,0.0,0.0,0.0,0.0,0.0,0.0,0.0,-0.0079,-0.0236,-0.1058,-0.1939,-0.2715,0.0,0.0,0.0,0.0,0.0,0.0,0.0,0.0,0.0,0.0,0.0,0.0,0.0,0.0,0.0,0.0,0.0,0.0,0.0,0.0,0.0,0.0,0.0,0.0,0.0,0.0,0.0,0.0,0.0,0.0,0.0,0.0,0.0,0.0,0.0,0.0,0.0,0.0,0.0,0.0,0.0,0.0,0.0,0.0,0.0,0.0,0.0,0.0,0.0,0.0,0.0,0.0,0.0,0.0,0.0,0.0,0.0,0.0,0.0,0.0,0.0,0.0,0.0,0.0,0.0,0.0,0.0,0.0,0.0,0.0,0.0,0.0,0.0,0.0,0.0,0.0,0.0,0.0,0.0,0.0,0.0,0.0,0.0,0.0,0.0,0.0,0.0,0.0,0.0,0.0,0.0,0.0,0.0,0.0,0.0,0.0,0.0,0.0,0.0,0.0,0.0,0.0,0.0,0.0,0.0,0.0,0.0,0.0,0.0,-0.098,-0.1859,-0.2454,-0.3368,0.0,0.0,0.0,0.0,0.0,0.0,0.0,0.0,0.0,0.0,0.0,0.0,0.0,0.0,0.0,0.0,0.0,0.0,0.0,0.0,0.0,0.0,0.0,0.0,0.0,0.0,0.0,0.0,0.0,0.0,0.0,0.0,0.0,0.0,0.0,0.0,0.0,0.0,0.0,0.0,0.0,0.0,0.0,0.0,0.0,0.0,0.0,0.0,0.0,0.0,0.0,0.0,0.0,0.0,0.0,0.0,0.0,0.0,0.0,0.0,0.0,0.0,0.0,0.0,0.0,0.0,0.0,0.0,0.0,0.0,0.0,0.0,0.0,0.0,0.0,0.0,0.0,0.0,0.0,0.0,0.0,0.0,0.0,0.0,0.0,0.0,0.0,0.0,0.0,0.0,0.0,0.0,0.0,0.0,0.0,0.0,0.0,0.0,0.0,0.0,0.0,0.0,0.0,0.0,0.0,0.0,0.0,0.0,-0.0737,-0.157,-0.2361,-0.3043,0.0,0.0,0.0,0.0,0.0,0.0,0.0,0.0,0.0,0.0,0.0,0.0,0.0,0.0,0.0,0.0,0.0,0.0,0.0,0.0,0.0,0.0,0.0,0.0,0.0,0.0,0.0,0.0,0.0,0.0,0.0,0.0,0.0,0.0,0.0,0.0,0.0,0.0,0.0,0.0,0.0,0.0,0.0,0.0,0.0,0.0,0.0,0.0,0.0,0.0,0.0,0.0,0.0,0.0,0.0,0.0,0.0,0.0,0.0,0.0,0.0,0.0,0.0,0.0,0.0,0.0,0.0,0.0,0.0,0.0,0.0,0.0,0.0,0.0,0.0,0.0,0.0,0.0,0.0,0.0,0.0,0.0,0.0,0.0,0.0,0.0,0.0,0.0,0.0,0.0,0.0,0.0,0.0,0.0,0.0,0.0,0.0,0.0,0.0,0.0,0.0,0.0,0.0,0.0,0.0,0.0,0.0,0.0,-0.0075,-0.0715,-0.2127,-0.2267,0.0,0.0,0.0,0.0,0.0,0.0,0.0,0.0,0.0,0.0,0.0,0.0,0.0,0.0,0.0,0.0,0.0,0.0,0.0,0.0,0.0,0.0,0.0,0.0,0.0,0.0,0.0,0.0,0.0,0.0,0.0,0.0,0.0,0.0,0.0,0.0,0.0,0.0,0.0,0.0,0.0,0.0,0.0,0.0,0.0,0.0,0.0,0.0,0.0,0.0,0.0,0.0,0.0,0.0,0.0,0.0,0.0,0.0,0.0,0.0,0.0,0.0,0.0,0.0,0.0,0.0,0.0,0.0,0.0,0.0,0.0,0.0,0.0,0.0,0.0,0.0,0.0,0.0,0.0,0.0,0.0,0.0,0.0,0.0,0.0,0.0,0.0,0.0,0.0,0.0,0.0,0.0,0.0,0.0,0.0,0.0,0.0,0.0,0.0,0.0,0.0,0.0,0.0296,0.0,0.0,0.0,0.0,0.0,-0.0603,-0.1151,-0.1481,0.0,0.0,0.0,0.0,0.0,0.0,0.0,0.0,0.0,0.0,0.0,0.0,0.0,0.0,0.0,0.0,0.0,0.0,0.0,0.0,0.0,0.0,0.0,0.0,0.0,0.0,0.0,0.0,0.0,0.0,0.0,0.0,0.0,0.0,0.0,0.0,0.0,0.0,0.0,0.0,0.0,0.0,0.0,0.0,0.0,0.0,0.0,0.0,0.0,0.0,0.0,0.0,0.0,0.0,0.0,0.0,0.0,0.0,0.0,0.0,0.0,0.0,0.0,0.0,0.0,0.0,0.0,0.0,0.0,0.0,0.0,0.0,0.0,0.0,0.0,0.0,0.0,0.0,0.0,0.0,0.0,0.0,0.0,0.0,0.0,0.0,0.0,0.0,0.0,0.0,0.0,0.0,0.0,0.0,0.0,0.0,0.0,0.0,0.0,0.0,0.0,0.0,0.1614,0.1247,0.1,0.0,0.0706,0.0505,0.0493,-0.0484,-0.1103,-0.1102,0.0,0.0,0.0,0.0,0.0,0.0,0.0,0.0,0.0,0.0,0.0,0.0,0.0,0.0,0.0,0.0,0.0,0.0,0.0,0.0,0.0,0.0,0.0,0.0,0.0,0.0,0.0,0.0,0.0,0.0,0.0,0.0,0.0,0.0,0.0,0.0,0.0,0.0,0.0,0.0,0.0,0.0,0.0,0.0,0.0,0.0,0.0,0.0,0.0,0.0,0.0,0.0,0.0,0.0,0.0,0.0,0.0,0.0,0.0,0.0,0.0,0.0,0.0,0.0,0.0,0.0,0.0,0.0,0.0,0.0,0.0,0.0,0.0,0.0,0.0,0.0,0.0,0.0,0.0,0.0,0.0,0.0,0.0,0.0,0.0,0.0,0.0,0.0,0.0,0.0,0.0,0.0,0.0,0.0,0.0,0.0,0.0,0.0,0.0,0.0,0.0,0.0,0.2711,0.2938,0.3085,0.3085,0.219,0.1629,0.1627,0.0614,-0.0309,0.0,0.0,0.0,0.0,0.0,0.0,0.0,0.0,0.0,0.0,0.0,0.0,0.0,0.0,0.0,0.0,0.0,0.0,0.0,0.0,0.0,0.0,0.0,0.0,0.0,0.0,0.0,0.0,0.0,0.0,0.0,0.0,0.0,0.0,0.0,0.0,0.0,0.0,0.0,0.0,0.0,0.0,0.0,0.0,0.0,0.0,0.0,0.0,0.0,0.0,0.0,0.0,0.0,0.0,0.0,0.0,0.0,0.0,0.0,0.0,0.0,0.0,0.0,0.0,0.0,0.0,0.0,0.0,0.0,0.0,0.0,0.0,0.0,0.0,0.0,0.0,0.0,0.0,0.0,0.0,0.0,0.0,0.0,0.0,0.0,0.0,0.0,0.0,0.0,0.0,0.0,0.0,0.0,0.0,0.0,0.0,0.0,0.0,0.0,0.0,0.0,0.0,0.0,0.3478,0.3268,0.3085,0.3085,0.2734,0.253,0.2504,0.1533,0.0813,0.0595,0.0,0.0,0.0,0.0,0.0,0.0,0.0,0.0,0.0,0.0,0.0,0.0,0.0,0.0,0.0,0.0,0.0,0.0,0.0,0.0,0.0,0.0,0.0,0.0,0.0,0.0,0.0,0.0,0.0,0.0,0.0,0.0,0.0,0.0,0.0,0.0,0.0,0.0,0.0,0.0,0.0,0.0,0.0,0.0,0.0,0.0,0.0,0.0,0.0,0.0,0.0,0.0,0.0,0.0,0.0,0.0,0.0,0.0,0.0,0.0,0.0,0.0,0.0,0.0,0.0,0.0,0.0,0.0,0.0,0.0,0.0,0.0,0.0,0.0,0.0,0.0,0.0,0.0,0.0,0.0,0.0,0.0,0.0,0.0,0.0,0.0,0.0,0.0,0.0,0.0,0.0,0.0,0.0,0.0,0.0,0.0,0.0,0.0,0.0,0.0,0.0,0.0,0.445,0.4331,0.427,0.427,0.3768,0.342,0.3402,0.2464,0.1685,0.1332,0.0,0.0,0.0,0.0,0.0,0.0,0.0,0.0,0.0,0.0,0.0,0.0,0.0,0.0,0.0,0.0,0.0,0.0,0.0,0.0,0.0,0.0,0.0,0.0,0.0,0.0,0.0,0.0,0.0,0.0,0.0,0.0,0.0,0.0,0.0,0.0,0.0,0.0,0.0,0.0,0.0,0.0,0.0,0.0,0.0,0.0,0.0,0.0,0.0,0.0,0.0,0.0,0.0,0.0,0.0,0.0,0.0,0.0,0.0,0.0,0.0,0.0,0.0,0.0,0.0,0.0,0.0,0.0,0.0,0.0,0.0,0.0,0.0,0.0,0.0,0.0,0.0,0.0,0.0,0.0,0.0,0.0,0.0,0.0,0.0,0.0,0.0,0.0,0.0,0.0,0.0,0.0,0.0,0.0,0.0,0.0,0.0,0.0,0.0,0.0,0.0,0.0,0.5395,0.5752,0.5986,0.5973,0.4994,0.4334,0.4335,0.3409,0.2456,0.1614,0.0,0.0,0.0,0.0,0.0,0.0,0.0,0.0,0.0,0.0,0.0,0.0,0.0,0.0,0.0,0.0,0.0,0.0,0.0,0.0,0.0,0.0,0.0,0.0,0.0,0.0,0.0,0.0,0.0,0.0,0.0,0.0,0.0,0.0,0.0,0.0,0.0,0.0,0.0,0.0,0.0,0.0,0.0,0.0,0.0,0.0,0.0,0.0,0.0,0.0,0.0,0.0,0.0,0.0,0.0,0.0,0.0,0.0,0.0,0.0,1.0794,0.0,0.0,0.0,0.0,0.0,0.0,0.0,0.0,0.0,0.0,0.0,0.0,0.0,0.0,0.0,0.0,0.0,0.0,0.0,0.0,0.0,0.0,0.0,0.0,0.0,0.0,0.0,0.0,0.0,0.0,0.0,0.0,0.0,0.0,0.0,0.0,0.0,0.0,0.0,0.0,0.0,0.5458,0.5752,0.5946,0.5864,0.5506,0.5307,0.5312,0.4342,0.365,0.3439,0.2677,0.0,0.0,0.0,0.0,0.0,0.0,0.0,0.0,0.0,0.0,0.0,0.0,0.0,0.0,0.0,0.0,0.0,0.0,0.0,0.0,0.0,0.0,0.0,0.0,0.0,0.0,0.0,0.0,0.0,0.0,0.0,0.0,0.0,0.0,0.0,0.0,0.0,0.0,0.0,0.0,0.0,0.0,0.0,0.0,0.0,0.0,0.0,0.0,0.0,0.0,0.0,0.0,0.0,0.0,0.0,0.0,0.0,0.0,0.0,0.0,1.2151,0.0,0.0,0.0,0.0,0.0,0.0,0.0,0.0,0.0,0.0,0.0,0.0,0.0,0.0,0.0,0.0,0.0,0.0,0.0,0.0,0.0,0.0,0.0,0.0,0.0,0.0,0.0,0.0,0.0,0.0,0.0,0.0,0.0,0.0,0.0,0.0,0.0,0.0,0.0,0.0,0.6042,0.5965,0.5864,0.5715,0.5566,0.5515,0.5515,0.4998,0.4465,0.4014,0.351,0.0,0.0,0.0,0.0,0.0,0.0,0.0,0.0,0.0,0.0,0.0,0.0,0.0,0.0,0.0,0.0,0.0,0.0,0.0,0.0,0.0,0.0,0.0,0.0,0.0,0.0,0.0,0.0,0.0,0.0,0.0,0.0,0.0,0.0,0.0,0.0,0.0,0.0,0.0,0.0,0.0,0.0,0.0,0.0,0.0,0.0,0.0,0.0,0.0,0.0,0.0,0.0,0.0,1.5135,1.5162,1.5162,1.5162,1.5162,1.5097,1.4856,1.4282,1.3504,1.315,0.0,0.0,0.0,0.0,0.0,0.0,0.0,0.0,0.0,0.0,0.0,0.0,0.0,0.0,0.0,0.0,0.0,0.0,0.0,0.0,0.0,0.0,0.0,0.0,0.7397,0.7278,0.6841,0.0,0.0,0.0,0.0,0.0,0.0,0.0,0.0,0.0,0.0,0.0,0.6498,0.6095,0.5806,0.5803,0.5702,0.562,0.562,0.562,0.5235,0.4303,0.4211,0.3869,0.0,0.0,0.0,0.0,0.0,0.0,0.0,0.0,0.0,0.0,0.0,0.0,0.0,0.0,0.0,0.0,0.0,0.0,0.0,0.0,0.0,0.0,0.0,0.0,0.0,0.0,0.0,0.0,0.0,0.0,0.0,0.0,1.5906,1.6446,0.0,0.0,0.0,0.0,0.0,0.0,0.0,0.0,0.0,0.0,0.0,0.0,0.0,1.4968,1.5008,1.5211,1.5337,1.5344,1.5591,1.5712,1.5712,1.5712,1.5712,1.5712,1.5671,0.0,1.4771,1.4698,0.0,0.0,0.0,0.0,0.0,0.0,0.0,0.0,0.0,0.0,0.0,0.0,0.0,0.0,0.0,0.0,0.0,0.0,0.0,0.0,0.0,0.0,1.0228,1.0129,1.0096,1.0018,0.0,0.798,0.6499,0.7102,0.7252,0.0,0.0,0.0,0.0,0.0,0.0,0.0,0.5771,0.5721,0.6004,0.6502,0.6539,0.6523,0.6523,0.6523,0.6158,0.5262,0.5042,0.4896,0.4782,0.4655,0.0,0.0,0.0,0.0,0.0,0.0,0.0,0.0,0.0,0.0,0.0,0.0,0.0,0.0,0.0,0.0,0.0,0.0,0.0,0.0,0.0,0.0,0.0,0.0,0.0,0.0,0.0,0.0,0.0,1.7139,1.7416,1.7683,1.8018,1.7932,0.0,0.0,0.0,0.0,0.0,0.0,0.0,0.0,0.0,1.7316,1.7279,1.737,1.7508,1.7652,1.7682,1.7728,1.7826,1.7894,1.7894,1.7894,1.7894,1.7894,1.7894,1.7374,1.6437,1.5591,1.4957,1.4549,0.0,0.0,0.0,0.0,1.2981,1.2524,1.2148,1.1942,1.1823,1.1458,0.0,0.0,0.0,0.0,0.0,0.0,0.0,0.0,0.0,0.0,1.1218,1.0709,1.0611,1.0585,1.0527,0.9568,0.8887,0.0,0.9435,0.9548,1.0031,0.0,0.0,0.0,0.0,0.859,0.7898,0.7571,0.7385,0.7414,0.7437,0.7437,0.7437,0.7437,0.7274,0.6892,0.6323,0.5992,0.5992,0.5364,0.4817,0.0,0.0,0.0,0.0,0.0,0.0,0.0,0.0,0.0,0.0,0.0,0.0,0.0,0.0,0.0,0.0,0.0,0.0,0.0,0.0,0.0,0.0,0.0,0.0,0.0,0.0,0.0,0.0,1.9149,1.8879,1.8972,1.9247,1.9144,0.0,0.0,0.0,0.0,0.0,0.0,1.8772,1.9073,1.925,1.9218,1.919,1.9314,1.9488,1.9497,1.9497,1.9497,1.9497,1.9497,1.9497,1.9497,1.9497,1.9497,1.9497,1.8993,1.8033,1.66,1.5652,1.5102,1.483,1.4569,1.4335,1.4556,1.4543,1.4365,1.3963,1.3734,1.3559,1.3071,1.2368,1.1674,1.1745,0.0,0.0,0.0,0.0,1.2065,1.1477,1.1921,1.2314,1.1647,1.152,1.152,1.152,1.1428,1.1268,0.0,1.0852,1.076,1.0937,0.0,0.0,0.0,0.0,0.954,0.9388,0.8854,0.846,0.8333,0.8318,0.8318,0.8318,0.8318,0.8226,0.8027,0.7177,0.6687,0.6687,0.5725,0.514,0.51,0.0,0.0,0.0,0.0,0.0,0.0,0.0,0.0,0.0,0.0,0.0,0.0,0.0,0.0,0.0,0.0,0.0,0.0,0.0,0.0,0.0,0.0,0.0,0.0,0.0,0.0,0.0,0.0,0.0,2.0548,2.1588,0.0,0.0,0.0,0.0,2.0177,2.148,2.1364,1.9201,2.0412,2.0658,1.9509,1.9464,1.948,1.9497,1.9497,1.9497,1.9497,1.9497,1.9497,1.9497,1.9497,1.9497,1.9497,1.9497,1.9451,1.9314,1.8079,1.6697,1.5378,1.5357,1.5177,1.4968,1.4981,1.511,1.5297,1.5018,1.506,1.5272,1.5245,1.463,1.3948,1.3931,1.3333,0.0,0.0,1.3444,1.3564,1.3856,1.3935,1.3977,1.3948,1.3913,1.3913,1.3913,1.3647,1.2848,0.0,1.0187,1.0134,1.0706,0.0,1.0337,1.0135,0.9996,0.953,0.8586,0.8339,0.8497,0.9168,0.9242,0.9242,0.9242,0.9242,0.8877,0.8059,0.7177,0.6687,0.6687,0.584,0.5281,0.5103,0.4955,0.0,0.0,0.0,0.0,0.0,0.0,0.0,0.0,0.0,0.0,0.0,0.0,0.0,0.0,0.0,0.0,0.0,0.0,0.0,0.0,0.0,0.0,0.0,0.0,0.0,0.0,0.0,0.0,2.1821,2.2244,0.0,2.1303,2.1858,2.2107,2.1697,2.2452,2.2553,2.1738,2.2186,2.2262,2.1819,2.1819,2.1819,2.1819,2.1819,2.1819,2.1819,2.1819,2.1819,2.1819,2.1819,2.1819,2.1819,2.1819,2.14,2.0621,2.0215,1.8784,1.6779,1.6,1.5611,1.5518,1.5518,1.5585,1.5658,1.5558,1.5585,1.5611,1.5237,1.4776,1.4335,1.4142,1.3861,1.3695,1.3868,1.3928,1.3955,1.4062,1.4088,1.4041,1.3848,1.376,1.3713,1.3567,1.344,1.3113,1.233,1.1976,1.1786,1.1757,1.1537,1.1262,1.0981,1.0902,1.0657,1.0147,1.0043,1.005,1.0136,1.0142,1.0142,1.0142,1.0142,1.0009,0.9678,0.8871,0.8124,0.7567,0.7246,0.6502,0.5313,0.5666,0.5743,0.0,0.0,0.0,0.0,0.0,0.0,0.0,0.0,0.0,0.0,0.0,0.0,0.0,0.0,0.0,0.0,0.0,0.0,0.0,0.0,0.0,0.0,0.0,0.0,0.0,0.0,2.251,2.251,2.2637,2.2559,2.2139,2.248,2.2682,2.2682,2.2935,2.3091,2.3091,2.3091,2.3091,2.3091,2.3091,2.3091,2.3091,2.3091,2.3091,2.3091,2.3091,2.3091,2.3091,2.3091,2.3091,2.3091,2.3091,2.2633,2.1889,2.148,2.0124,1.818,1.6943,1.6204,1.5784,1.5784,1.5784,1.5764,1.5718,1.5685,1.5605,1.5117,1.4763,1.4482,1.4295,1.4168,1.4088,1.4088,1.4088,1.4062,1.3968,1.3941,1.3861,1.3527,1.346,1.3407,1.3253,1.3126,1.3053,1.3053,1.2924,1.2723,1.2522,1.2161,1.1839,1.1603,1.1403,1.1209,1.1015,1.0909,1.0807,1.0613,1.0593,1.0593,1.0593,1.0593,1.0466,1.0174,0.9332,0.8484,0.76,0.7468,0.6919,0.5848,0.6286,0.6263,0.5806,0.0,0.0,0.0,0.0,0.0,0.0,0.0,0.0,0.0,0.0,0.0,0.0,0.0,0.0,0.0,0.0,0.0,0.0,0.0,0.0,0.0,0.0,0.0,2.2393,2.2519,2.2529,2.2529,2.2847,2.2935,2.2568,2.2857,2.3091,2.3091,2.3091,2.3091,2.3091,2.3091,2.3091,2.3091,2.3091,2.3091,2.3091,2.3091,2.3091,2.3091,2.3091,2.3091,2.3091,2.3091,2.3091,2.3091,2.3091,2.3091,2.3003,2.1845,2.0666,1.9443,1.8187,1.6897,1.5784,1.5784,1.5771,1.5724,1.5491,1.5391,1.5337,1.5089,1.4756,1.4522,1.4509,1.4309,1.4088,1.4088,1.4082,1.4008,1.3673,1.3593,1.3513,1.3267,1.32,1.3193,1.3186,1.2985,1.277,1.277,1.2764,1.2757,1.2757,1.2281,1.1899,1.1879,1.1356,0.0,1.0982,1.0767,1.0593,1.0593,1.0593,1.0593,1.0593,1.0593,1.0238,0.937,0.8517,0.7637,0.6728,0.6425,0.6417,0.6699,0.6699,0.6276,0.5435,0.0,0.0,0.0,0.0,0.0,0.0,0.0,0.0,0.0,0.0,0.0,0.0,0.0,0.0,0.0,0.0,0.0,0.0,0.0,0.0,0.0,0.0,2.2246,2.248,2.273,2.2925,2.2925,2.3023,2.3052,2.2935,2.3033,2.3091,2.3091,2.3091,2.3091,2.3091,2.3091,2.3091,2.3091,2.3091,2.3091,2.3091,2.3091,2.3091,2.3091,2.3091,2.3091,2.3091,2.3091,2.3091,2.3091,2.3091,2.3091,2.3047,2.2721,2.1898,2.0621,1.8503,1.6897,1.5784,1.5784,1.5698,1.5504,1.5424,1.5257,1.5082,1.4736,1.4589,1.4482,1.4269,1.4155,1.4088,1.4088,1.3928,1.3706,1.3626,1.3447,1.3253,1.2985,1.2911,1.2851,1.2599,1.2485,1.2425,1.2425,1.2288,1.2147,1.2147,1.2013,1.1759,1.1296,1.1096,0.0,1.0734,1.064,1.0593,1.0593,1.0593,1.0593,1.0593,1.0593,1.0238,0.937,0.9075,0.8299,0.6886,0.7379,0.7447,0.6994,0.6796,0.6565,0.0,0.0,0.0,0.0,0.0,0.0,0.0,0.0,0.0,0.0,0.0,0.0,0.0,0.0,0.0,0.0,0.0,0.0,0.0,0.0,0.0,0.0,2.0489,2.1802,2.1972,2.2621,2.3091,2.3091,2.3091,2.3091,2.3091,2.3091,2.3091,2.3091,2.3091,2.3091,2.3091,2.3091,2.3091,2.3091,2.3091,2.3091,2.3091,2.3091,2.3091,2.3091,2.3091,2.3091,2.3091,2.3091,2.3091,2.3091,2.3091,2.3091,2.3091,2.3091,2.2403,0.0,0.0,0.0,0.0,0.0,1.5464,1.5197,1.507,1.4917,1.473,1.4436,1.4342,1.4309,1.4135,1.4088,1.4062,1.3935,1.3733,1.3547,1.3333,1.3146,1.2978,1.267,1.2596,1.2549,1.2338,1.2305,1.2265,1.2144,1.202,0.0,1.1578,1.1538,1.139,1.1042,1.0889,1.0787,1.0613,1.0593,1.0593,1.0593,1.0593,1.064,1.076,1.0374,0.0,0.0,0.0,0.7923,0.6873,0.7392,0.0,0.0,0.0,0.0,0.0,0.0,0.0,0.0,0.6563,0.6731,0.0,0.0,0.0,0.0,0.0,0.0,0.0,0.0,0.0,0.0,0.0,0.0,0.0,0.0,0.0,0.0,1.9478,2.0677,2.1069,2.2129,2.296,2.3091,2.3091,2.3091,2.3091,2.3091,2.3091,2.3091,2.3091,2.3091,2.3091,0.0,0.0,0.0,0.0,2.3091,2.3091,2.3091,2.3091,2.3091,2.3091,2.3091,2.3091,2.3091,2.3091,2.3091,2.3091,2.3062,2.3023,2.3023,2.2211,2.0855,1.9678,1.8463,1.7226,1.5853,1.5164,1.4921,1.4609,0.0,0.0,1.4168,1.4088,1.4088,1.4088,1.4062,1.3981,1.3673,1.3553,1.338,1.2924,1.2757,1.2663,1.2365,1.2305,1.2291,1.2258,1.2251,1.2171,1.1913,1.1826,1.1638,1.1082,1.0995,1.0982,1.0949,1.076,1.0593,1.0593,1.0593,1.0593,1.0593,0.0,0.0,1.0969,1.0107,0.9264,0.8649,0.7593,0.6864,0.6641,0.6888,0.6989,0.6841,0.7279,0.718,0.6538,0.6634,0.6709,0.6753,0.7622,0.7917,0.0,0.0,0.0,0.0,0.0,0.0,0.0,0.0,0.0,0.0,0.0,0.0,0.0,0.0,0.0,1.7362,1.8648,1.9777,1.9844,2.089,2.2031,2.3003,2.3091,2.3091,2.3091,2.3091,2.3091,2.3091,2.3091,2.3091,2.3091,2.3091,2.3091,2.3091,2.3091,2.3091,2.3091,2.3091,2.3091,2.3091,0.0,0.0,2.3091,2.3091,2.3091,2.3091,2.3091,2.2906,2.2637,2.2637,2.1179,1.8864,1.8,1.68,1.5479,1.5199,1.4856,1.4596,1.4536,1.4369,1.4162,1.4108,1.4088,1.4088,1.4088,1.3921,0.0,1.362,1.3293,1.2931,1.2811,1.2603,1.2371,1.2318,1.2305,1.2238,1.2004,1.1986,1.1864,1.157,1.1323,1.1129,1.1009,1.0995,1.0915,1.0713,1.0626,1.0593,1.0593,1.0593,1.0593,1.0593,1.0801,1.0929,1.0989,1.0273,0.9477,0.8659,0.7106,0.6191,0.6126,0.643,0.6613,0.6574,0.676,0.6788,0.6658,0.6685,0.6763,0.6878,0.6962,0.7003,0.0,0.0,0.0,0.0,0.0,0.0,0.0,0.0,0.0,0.0,0.0,1.5868,1.6004,0.0,1.734,1.6551,1.7649,1.8596,1.8596,2.0169,2.1756,2.296,2.3091,2.3091,2.3091,2.3091,2.3091,2.3091,2.3091,2.3091,2.3091,2.3091,2.3091,2.3091,2.3091,2.3091,2.3091,2.3091,2.3091,2.3091,2.3091,2.3091,2.3091,2.3091,2.3091,2.3081,2.2877,2.2385,2.164,2.0869,1.929,1.7298,1.6906,1.5935,1.4743,1.4743,1.4556,1.4302,1.4302,1.4208,1.4088,1.4088,1.4088,1.4088,1.4088,1.3881,1.3573,1.3427,1.31,1.275,1.2596,1.2412,1.2305,1.2305,1.2305,1.2225,1.1966,1.1906,1.1772,1.1296,1.1089,1.0949,1.0834,1.0807,1.076,1.0613,1.0593,1.0593,1.0593,1.0593,1.0646,1.0794,1.0909,1.1116,1.1403,1.0302,0.8994,0.754,0.6625,0.6146,0.6146,0.6356,0.6511,0.6511,0.6698,0.6814,0.6814,0.6885,0.6916,0.6987,0.6347,0.6091,0.0,0.0,0.0,0.0,0.0,0.0,0.0,0.0,1.3939,1.4282,1.5238,1.5848,1.5183,1.5987,1.6536,1.5927,1.6669,1.7412,1.7692,1.9579,2.1391,2.2633,2.296,2.3091,2.3091,2.3091,2.3091,2.3091,2.3091,2.3003,2.2765,2.2775,2.2775,2.2775,2.2775,2.2862,2.3091,2.3091,2.3003,2.2775,2.2775,2.2633,2.2403,2.2403,2.2366,2.2305,2.1821,2.1159,2.0239,1.8914,1.7477,1.6169,1.6169,1.5469,1.4436,1.4436,1.4289,1.4088,1.4088,1.4088,1.4088,1.4088,1.4088,1.4088,1.4088,1.3668,1.3176,1.2988,1.2544,1.2062,1.1795,1.1737,1.1737,1.1737,1.1699,1.1614,1.1339,1.123,1.1045,1.0533,1.0542,1.0601,1.0372,1.0491,1.0593,1.0593,1.0593,1.0593,1.0593,1.064,1.0767,1.0969,1.0923,1.0953,1.1103,0.9824,0.8237,0.6416,0.63,0.6313,0.634,0.648,0.6569,0.6559,0.6831,0.6927,0.6927,0.7041,0.7007,0.6738,0.5849,0.5403,1.4015,1.3627,1.344,1.4188,1.3959,1.3946,0.0,0.0,1.4903,1.519,1.557,1.5752,1.5391,1.5671,1.588,1.5825,1.592,1.6433,1.7552,1.8864,2.0169,2.1346,2.2448,2.3091,2.3091,2.3091,2.3091,2.3091,2.3091,2.2633,2.1569,2.1525,2.1525,2.1525,2.1525,2.2031,2.3091,2.3091,2.2536,2.1525,2.1525,2.0935,1.9906,1.9906,1.9774,1.9516,1.8812,1.8423,1.8263,1.7697,1.677,1.5748,1.5748,1.5111,1.4135,1.4135,1.4115,1.4088,1.4088,1.4088,1.4088,1.4088,1.4088,1.4088,1.4088,1.3064,1.1904,1.1874,1.0835,0.9668,0.9642,0.9636,0.9636,0.9636,0.9553,0.9368,0.9029,0.8888,0.8695,0.8407,0.8948,0.947,0.944,1.0079,1.0593,1.0593,1.0593,1.0593,1.0593,1.0814,1.0955,1.0989,1.0679,0.9857,0.8373,0.8071,0.748,0.6377,0.63,0.6358,0.6484,0.6597,0.6739,0.6832,0.6991,0.7071,0.7071,0.7088,0.6561,0.5581,0.5447,0.5403,1.4295,1.4289,0.0,0.0,1.4546,1.4823,1.5438,1.5391,1.5297,1.5585,1.5698,1.5792,1.5671,1.5698,1.5784,0.0,1.5784,1.5967,1.6527,1.7677,1.8634,1.9131,2.0268,2.1543,2.296,2.2448,2.235,2.3047,2.2448,2.1845,2.1337,2.0612,2.026,2.026,2.026,2.0486,2.0998,2.0998,2.0764,2.026,2.026,1.9988,1.948,1.9327,1.8966,1.8402,1.7411,1.687,1.6599,1.5771,1.5186,1.4776,1.4776,1.4489,1.4088,1.4088,1.4088,1.4088,1.4088,1.4088,1.4088,1.4088,1.3603,1.3044,1.2979,1.1864,1.0648,1.0558,0.9927,0.9296,0.9296,0.9296,0.9296,0.9296,0.9263,0.9096,0.87,0.8614,0.8533,0.8191,0.8462,0.8787,0.8787,0.9091,0.9327,0.9327,0.9673,1.0032,1.0159,0.9791,0.953,0.9712,0.9763,0.9227,0.7927,0.7783,0.7365,0.6377,0.6378,0.645,0.6511,0.6705,0.6865,0.6883,0.7024,0.7095,0.7095,0.6428,0.5849,0.5359,0.3976,0.3306,1.4199,0.0,0.0,1.4656,1.5023,1.5418,1.5498,1.5518,1.5578,1.5738,1.5784,1.5784,1.5784,1.5784,1.5784,1.5784,1.5784,1.5784,1.5784,1.6897,1.7692,1.7692,1.8457,1.9815,2.1908,2.1302,2.1168,2.2041,2.1302,2.0666,2.0305,1.9497,1.9001,1.9001,1.9001,1.9177,1.9497,1.9497,1.9314,1.9001,1.9001,1.881,1.8472,1.8131,1.7612,1.6996,1.61,1.5549,1.522,1.4412,1.4088,1.4088,1.4088,1.3913,1.3603,1.3603,1.3603,1.3603,1.3603,1.3385,1.313,1.313,1.2505,1.1759,1.1672,1.0612,0.9422,0.9311,0.8889,0.8466,0.8466,0.8466,0.8466,0.8466,0.842,0.8295,0.7965,0.7929,0.7902,0.7584,0.7818,0.8056,0.8056,0.8227,0.8423,0.8482,0.8743,0.9021,0.9441,0.8911,0.8499,0.8535,0.8745,0.8466,0.748,0.7403,0.7061,0.6338,0.6433,0.6532,0.6573,0.679,0.6903,0.6943,0.7045,0.6962,0.665,0.5802,0.5045,0.4376,0.2593,0.1612,0.0,0.0,1.4291,1.4854,1.5177,1.5471,1.5752,1.5764,1.5771,1.5778,1.5784,1.5784,1.5784,1.5784,1.5784,1.5784,1.5784,1.5784,1.5784,1.6897,1.7692,1.7692,1.7731,1.8234,0.0,1.9579,1.9588,1.9633,1.9579,1.9039,1.787,1.7777,1.7731,1.7731,1.7731,1.8319,1.9497,1.9497,1.891,1.7731,1.7731,1.7131,1.59,1.5374,1.4936,1.4589,1.4307,1.4179,1.413,1.413,1.4088,1.4088,1.4088,1.3379,1.237,1.237,1.237,1.237,1.237,1.1638,1.0697,1.0697,1.0592,1.0449,1.0444,0.9404,0.826,0.8251,0.7344,0.6377,0.6377,0.6377,0.6377,0.6377,0.626,0.6108,0.6098,0.5981,0.5875,0.5868,0.6544,0.7149,0.7149,0.7845,0.8472,0.8752,0.7979,0.762,0.8357,0.8657,0.8545,0.7905,0.7855,0.7442,0.6416,0.6338,0.6338,0.63,0.6433,0.6539,0.6688,0.6844,0.695,0.7088,0.7095,0.6561,0.5447,0.5403,0.4198,0.1924,0.1835,0.1165,0.0,0.0,1.4422,1.4623,1.489,1.5184,1.5478,1.5538,1.5538,1.5538,1.5538,1.5484,1.5291,1.5411,1.5538,1.5538,1.5705,1.5784,1.5784,1.615,1.6433,1.6433,1.6433,0.0,0.0,0.0,0.0,1.9451,1.8772,1.8141,1.7738,1.6897,1.6433,1.6433,1.6433,1.6563,1.6759,1.6759,1.6483,1.5927,1.5927,1.5551,1.4905,1.4756,1.4054,1.3022,1.2936,1.2467,1.1783,1.1783,1.1783,1.1783,1.1783,1.1515,1.115,1.1075,1.0552,1.0026,1.0898,1.0913,1.0611,1.0611,0.999,0.9247,0.911,0.8122,0.7045,0.698,0.6645,0.63,0.63,0.63,0.63,0.63,0.6259,0.6156,0.6013,0.6067,0.6074,0.5973,0.6295,0.6554,0.6554,0.6813,0.7054,0.7109,0.742,0.7471,0.708,0.7086,0.7068,0.6826,0.6795,0.6679,0.6338,0.6385,0.6443,0.6443,0.6637,0.68,0.6851,0.695,0.6693,0.5983,0.5983,0.5401,0.4194,0.3395,0.2593,0.179,0.0986,0.0404,1.2981,1.3652,1.4389,1.4496,1.4743,1.5062,1.5197,1.5244,1.5244,1.5244,1.5244,1.5184,1.5042,1.5162,1.5277,1.5378,1.5551,1.5712,1.5764,1.5784,1.5784,1.5784,1.5784,1.5784,0.0,0.0,0.0,1.8126,1.7444,1.7037,1.7037,1.6244,1.5785,1.5678,1.5671,1.5531,1.5244,1.5244,1.515,1.5008,1.5008,1.4619,1.3886,1.3886,1.3108,1.1681,1.1681,1.1295,1.0611,1.0611,1.0611,1.0611,1.0611,1.0351,0.9981,0.9851,0.9063,0.8237,0.9423,0.9526,0.919,0.919,0.864,0.7895,0.7776,0.7108,0.6416,0.6327,0.63,0.63,0.63,0.63,0.63,0.63,0.63,0.6272,0.6135,0.6228,0.6269,0.6132,0.6193,0.63,0.63,0.63,0.63,0.63,0.6834,0.7022,0.6377,0.63,0.63,0.63,0.63,0.63,0.63,0.6429,0.6511,0.6511,0.6759,0.6711,0.6273,0.6402,0.5935,0.4776,0.4776,0.4152,0.2948,0.2191,0.1567,0.1121,0.0359,0.0,1.1758,1.2828,1.3979,1.4249,1.4571,1.4827,1.4796,1.4892,1.4943,1.4802,1.4892,1.4937,0.0,0.0,1.5102,1.5331,1.5398,1.5518,1.5744,1.5784,1.5784,0.0,0.0,0.0,0.0,0.0,0.0,1.5784,0.0,1.5784,1.5784,1.5784,1.5698,1.5404,1.5398,1.5251,1.4988,1.4879,1.4827,1.4776,1.4776,1.4034,1.2692,1.2692,1.1903,1.0524,1.0524,1.0481,1.0438,1.0438,1.0438,1.0438,1.0438,0.9749,0.8782,0.8679,0.7889,0.702,0.792,0.7544,0.6702,0.6702,0.6597,0.6511,0.6511,0.6412,0.63,0.63,0.63,0.63,0.63,0.63,0.63,0.63,0.63,0.63,0.63,0.63,0.63,0.63,0.63,0.63,0.63,0.6261,0.6219,0.63,0.6222,0.618,0.63,0.63,0.63,0.63,0.6306,0.631,0.631,0.637,0.6414,0.6414,0.6605,0.6199,0.5064,0.5212,0.4732,0.3525,0.3525,0.2903,0.1701,0.1701,0.1121,0.0,0.0,0.0,1.0601,1.1038,1.1494,1.1597,1.2308,1.2841,1.2243,1.3415,1.4133,1.2421,1.3459,1.4294,0.0,0.0,0.0,1.5109,1.5438,0.0,1.5771,1.5784,0.0,1.5784,0.0,1.5784,1.5784,1.5784,0.0,0.0,1.5784,1.5784,1.5784,1.5784,1.5698,1.5404,1.5398,1.515,1.4636,1.356,1.2577,1.1701,1.1701,1.1538,1.1169,1.1169,1.0492,0.9323,0.9323,0.8842,0.8009,0.8009,0.8009,0.8009,0.8009,0.7837,0.7559,0.7408,0.7109,0.6652,0.6,0.6185,0.6702,0.6702,0.6597,0.6511,0.6511,0.6412,0.63,0.63,0.63,0.63,0.63,0.63,0.63,0.63,0.63,0.63,0.63,0.63,0.63,0.63,0.63,0.63,0.63,0.5628,0.5392,0.618,0.4924,0.4491,0.6103,0.63,0.63,0.63,0.6395,0.6457,0.6457,0.582,0.5442,0.5442,0.4797,0.4295,0.3984,0.4049,0.3482,0.2281,0.2281,0.1657,0.0449,0.0449,0.0314,0.0,0.0,0.0,0.9601,1.0091,1.0611,1.0611,1.108,1.1434,1.0901,1.182,1.2571,1.1716,1.2221,0.0,0.0,0.0,0.0,0.0,0.0,0.0,1.4064,1.4082,1.4082,0.0,1.4609,0.0,1.4949,1.5486,1.5581,0.0,1.5486,1.5581,1.4997,1.4889,1.4506,1.362,1.3546,1.3288,1.278,1.2447,1.1724,1.0611,1.0611,1.0351,0.9836,0.9836,0.9231,0.8105,0.0,0.7709,0.7095,0.7095,0.7095,0.7095,0.7095,0.7095,0.7034,0.6365,0.605,0.5832,0.4541,0.4568,0.5104,0.5133,0.5071,0.5015,0.5015,0.4972,0.4882,0.4882,0.4882,0.4882,0.4882,0.4882,0.4882,0.4882,0.4882,0.4882,0.4882,0.4882,0.4882,0.4882,0.4882,0.4882,0.4882,0.4414,0.4217,0.4805,0.3865,0.3552,0.4727,0.4882,0.4901,0.4915,0.4975,0.4993,0.5002,0.462,0.4325,0.4325,0.3881,0.3349,0.2815,0.2815,0.2236,0.1031,0.1031,0.0673,0.0,0.0,0.0,0.0,0.0,0.0,0.856,0.9347,1.0096,1.0096,1.0245,1.0297,0.9991,1.0254,1.0723,1.1291,0.0,1.0833,1.1675,1.1319,1.093,1.1247,0.0,1.163,1.1866,1.1896,1.1896,1.1896,1.2909,1.3632,1.3632,1.4609,1.4806,1.3734,1.4626,1.475,1.3682,1.3484,1.2765,1.1339,1.1105,1.0808,1.0394,1.1338,1.1252,1.0135,1.0135,0.9618,0.8671,0.8671,0.8105,0.7095,0.7095,0.7095,0.7095,0.7095,0.7095,0.7095,0.7095,0.7007,0.6725,0.5551,0.5026,0.4687,0.3393,0.2935,0.2913,0.3072,0.3085,0.3085,0.3085,0.3091,0.3096,0.3086,0.3091,0.3096,0.3086,0.3085,0.3085,0.3085,0.3085,0.3085,0.3085,0.3085,0.3085,0.3085,0.3085,0.3085,0.3085,0.3007,0.2932,0.3098,0.2857,0.274,0.2876,0.3026,0.3084,0.3108,0.3133,0.3128,0.3107,0.3178,0.3176,0.3087,0.3096,0.2637,0.1612,0.1567,0.1076,0.0,0.0,0.0,0.0,0.0,0.0,0.0,0.0,0.0,0.7059,0.7289,0.7558,0.7558,0.8391,0.8883,0.7765,0.9005,0.0,0.0,0.0,1.0219,0.9591,1.0357,0.0,1.1288,0.0,0.0,0.0,0.0,1.1896,0.0,0.0,0.0,0.0,0.0,0.0,0.0,0.0,1.2331,1.2094,1.2057,1.175,1.1149,1.0826,1.0217,0.9192,0.941,0.8882,0.7705,0.7705,0.7617,0.7404,0.7404,0.7316,0.7095,0.7095,0.0,0.7095,0.7095,0.7095,0.7095,0.7095,0.6517,0.5667,0.5424,0.4612,0.3459,0.2404,0.1947,0.1986,0.2812,0.3085,0.3085,0.3085,0.3087,0.3084,0.3102,0.3089,0.3082,0.31,0.3085,0.3085,0.3085,0.3085,0.3085,0.3085,0.3085,0.3085,0.3085,0.3085,0.3085,0.3085,0.2425,0.2127,0.2967,0.1624,0.0875,0.1731,0.2605,0.31,0.3113,0.3265,0.3345,0.327,0.2548,0.2092,0.2047,0.1163,0.0539,0.0314,0.0314,0.0225,0.0,0.0,0.0,0.0,0.0,0.0,0.0,0.0,0.0,0.6702,0.6756,0.6827,0.6866,0.7343,0.7569,0.695,0.0,0.0,0.0,0.0,0.8662,0.8856,0.0,0.0,0.0,0.0,0.0,0.0,0.0,0.0,0.0,0.0,0.0,0.0,0.0,0.0,0.0,0.0,1.0711,1.0711,0.9903,0.9346,0.9017,0.945,0.9144,0.7973,0.8584,0.8277,0.7095,0.7095,0.7095,0.7095,0.7095,0.7095,0.7095,0.7095,0.7095,0.7095,0.7095,0.6738,0.6204,0.6204,0.5489,0.4374,0.3751,0.3087,0.234,0.1258,0.0813,0.0837,0.135,0.1503,0.1503,0.1503,0.1474,0.1483,0.1467,0.1474,0.1478,0.1485,0.1475,0.1475,0.1475,0.1475,0.1475,0.1475,0.1475,0.1481,0.1499,0.1503,0.1503,0.1503,0.1098,0.0939,0.1402,0.0655,0.0205,0.0712,0.1177,0.1471,0.1471,0.1586,0.1613,0.1587,0.1159,0.0852,0.0852,0.0314,0.0,0.0,0.0,0.0,0.0,0.0,0.0,0.0,0.0,0.0,0.0,0.0,0.0,0.6607,0.6654,0.6729,0.6851,0.6837,0.6776,0.6715,0.6702,0.0,0.0,0.7412,0.719,0.8329,0.0,0.0,0.0,0.0,0.0,0.0,0.0,0.0,0.0,0.0,0.0,0.0,0.0,0.0,0.0,0.0,0.0,0.9269,0.8061,0.7265,0.7098,0.8017,0.8061,0.7095,0.8061,0.8057,0.7095,0.7095,0.7095,0.7095,0.7095,0.7095,0.7095,0.7095,0.7095,0.7095,0.6827,0.6204,0.5359,0.5134,0.4285,0.3081,0.2147,0.1638,0.1267,0.035,0.0,0.0,0.0,0.0,0.0,0.0,0.0,0.0,0.0,0.0,0.0,0.0,0.0,0.0,0.0,0.0,0.0,0.0,0.0,0.0,0.0,0.0,0.0,0.0,0.0,0.0,0.0,0.0,0.0,0.0,0.0,0.0,0.0,0.0,0.0,0.0,0.0,0.0,0.0,0.0,0.0,0.0,0.0,0.0,0.0,0.0,0.0,0.0,0.0,0.0,0.0,0.0,0.0,0.634,0.6495,0.6705,0.6719,0.6912,0.6987,0.6763,0.0,0.0,0.6823,0.6791,0.6849,0.7216,0.7197,0.0,0.0,0.0,0.0,0.0,0.0,0.0,0.0,0.0,0.0,0.0,0.0,0.0,0.0,0.0,0.0,0.764,0.7296,0.7109,0.7095,0.7228,0.7228,0.7095,0.7228,0.7228,0.7095,0.7095,0.7095,0.7095,0.7095,0.7095,0.7095,0.7095,0.7095,0.0,0.5983,0.5492,0.527,0.4194,0.3037,0.1969,0.1835,0.1119,0.0134,0.0045,0.0,0.0,0.0,0.0,0.0,0.0,0.0,0.0,0.0,0.0,0.0,0.0,0.0,0.0,0.0,0.0,0.0,0.0,0.0,0.0,0.0,0.0,0.0,0.0,0.0,0.0,0.0,0.0,0.0,0.0,0.0,0.0,0.0,0.0,0.0,0.0,0.0,0.0,0.0,0.0,0.0,0.0,0.0,0.0,0.0,0.0,0.0,0.0,0.0,0.0,0.0,0.0,0.0,0.63,0.645,0.6583,0.6678,0.679,0.6844,0.6725,0.0,0.659,0.6681,0.6702,0.679,0.7041,0.7095,0.7115,0.0,0.0,0.0,0.0,0.0,0.0,0.0,0.0,0.0,0.0,0.0,0.0,0.0,0.0,0.0,0.515,0.6364,0.7095,0.7095,0.7095,0.7095,0.7095,0.7095,0.7095,0.7095,0.7095,0.7095,0.7095,0.7095,0.6738,0.6065,0.6078,0.5646,0.0,0.4517,0.3887,0.3169,0.2688,0.177,0.0718,0.0718,0.0401,0.0,0.0,0.0,0.0,0.0,0.0,0.0,0.0,0.0,0.0,0.0,0.0,0.0,0.0,0.0,0.0,0.0,0.0,0.0,0.0,0.0,0.0,0.0,-0.0569,-0.0874,-0.0131,-0.1223,-0.1925,-0.1193,-0.1711,-0.215,-0.2186,-0.2176,-0.217,-0.2189,-0.0852,0.0,0.0,0.0,0.0,0.0,0.0,0.0,0.0,0.0,0.0,0.0,0.0,0.0,0.0,0.0,0.0,0.0,-0.0825,-0.12,0.6286,0.6436,0.6566,0.6675,0.6766,0.682,0.0,0.0,0.6637,0.6746,0.6766,0.6844,0.7051,0.7095,0.7095,0.0,0.0,0.0,0.0,0.0,0.0,0.0,0.0,0.0,0.0,0.0,0.0,0.0,0.0,0.0,0.3659,0.5174,0.6065,0.6065,0.6425,0.6605,0.6605,0.6918,0.7095,0.7095,0.7095,0.7095,0.7095,0.6741,0.6169,0.5395,0.5022,0.4378,0.0,0.3202,0.2569,0.1743,0.141,0.0753,0.0,0.0,0.0,0.0,0.0,0.0,0.0,0.0,0.0,0.0,0.0,0.0,0.0,0.0,0.0,0.0,0.0,-0.0263,-0.0525,-0.0517,-0.0824,-0.1052,-0.1052,-0.1052,-0.1057,-0.1073,-0.1746,-0.2057,-0.121,-0.2458,-0.3303,-0.2458,-0.3037,-0.3614,-0.3614,-0.3614,-0.3614,-0.3614,-0.2057,-0.1076,-0.1076,-0.1076,-0.0897,-0.0539,-0.0539,-0.0359,0.0,0.0,0.0,0.0,-0.0406,-0.0589,-0.0589,-0.0951,-0.1143,-0.1165,-0.2082,-0.2751,0.6259,0.6474,0.6698,0.6702,0.6919,0.7055,0.0,0.6883,0.6883,0.6883,0.6883,0.6927,0.7068,0.7095,0.7095,0.7095,0.0,0.0,0.0,0.0,0.0,0.0,0.0,0.0,0.0,0.0,0.0,0.0,0.0,0.0,0.3614,0.3614,0.3614,0.3614,0.4776,0.5403,0.5403,0.6517,0.7095,0.7095,0.7095,0.7095,0.7048,0.5938,0.5428,0.5354,0.4152,0.3592,0.0,0.2323,0.1789,0.17,0.0494,0.0,0.0,0.0,0.0,0.0,0.0,0.0,0.0,0.0,0.0,0.0,0.0,0.0,0.0,0.0,0.0,0.0,0.0,-0.0896,-0.179,-0.1789,-0.268,-0.3568,-0.3568,-0.3568,-0.3568,-0.357,-0.357,-0.357,-0.357,-0.357,-0.3614,-0.357,-0.3614,-0.3614,-0.3614,-0.3614,-0.3614,-0.3614,-0.357,-0.357,-0.357,-0.357,-0.3037,-0.1879,-0.179,-0.1254,-0.0045,0.0,0.0,0.0,-0.1281,-0.1985,-0.1985,-0.318,-0.3769,-0.3747,-0.3766,-0.4513,0.6286,0.6439,0.6546,0.6546,0.6773,0.6913,0.6807,0.6854,0.6886,0.6886,0.6886,0.693,0.7068,0.7095,0.7132,0.7282,0.0,0.0,0.0,0.0,0.0,0.0,0.0,0.0,0.0,0.0,0.0,0.0,0.0,0.0,0.1165,0.1121,0.2282,0.4732,0.5179,0.5403,0.5403,0.5761,0.5534,0.4727,0.4727,0.4727,0.4683,0.4341,0.3726,0.2902,0.2536,0.1887,0.1118,0.0739,0.0568,0.0538,0.0133,0.0,0.0,0.0,0.0,0.0,0.0,0.0,0.0,0.0,0.0,0.0,0.0,0.0,0.0,0.0,0.0,0.0,0.0,-0.0269,-0.0762,-0.1612,-0.2102,-0.2592,-0.3436,-0.3614,-0.3614,-0.3614,-0.4283,-0.4552,-0.3748,-0.4952,-0.5711,-0.4954,-0.5487,-0.5977,-0.5977,-0.5977,-0.6055,-0.619,-0.6198,-0.5516,-0.3875,-0.3739,-0.3624,-0.3306,-0.3309,-0.3123,-0.2752,-0.2669,-0.2621,-0.2751,-0.3054,-0.3294,-0.3388,-0.3762,-0.4417,-0.5324,-0.5315,-0.6033,0.0,0.5762,0.6391,0.5987,0.6369,0.6817,0.6722,0.6817,0.6886,0.6886,0.6927,0.6994,0.7082,0.7095,0.6992,0.668,0.0,0.0,0.0,0.0,0.0,0.0,0.0,0.0,0.0,0.0,0.0,0.0,0.0,0.0,0.0045,0.0,0.1255,0.3976,0.4065,0.4065,0.4065,0.451,0.433,0.3614,0.3614,0.36,0.3574,0.3133,0.2517,0.1768,0.1309,0.0704,0.0,0.0,0.0,0.0,0.0,0.0,0.0,0.0,0.0,0.0,0.0,0.0,0.0,0.0,0.0,0.0,0.0,0.0,0.0,0.0,0.0,-0.009,-0.0539,-0.1031,-0.1657,-0.2861,-0.3484,-0.4016,-0.4772,-0.4907,-0.4907,-0.4907,-0.5531,-0.5802,-0.5041,-0.611,-0.6874,-0.616,-0.665,-0.7095,-0.7095,-0.7146,-0.7265,-0.7405,-0.7421,-0.6867,-0.5457,-0.5283,-0.5057,-0.4692,-0.4697,-0.446,-0.4036,-0.3941,-0.3937,-0.3987,-0.4391,-0.469,-0.4749,-0.5227,-0.584,-0.6691,-0.6672,-0.7137,0.0,0.4525,0.6011,0.5007,0.5676,0.6574,0.6574,0.6739,0.0,0.6903,0.7004,0.7054,0.6976,0.6969,0.6612,0.5468,0.0,0.0,0.0,0.0,0.0,0.0,0.0,0.0,0.0,0.0,0.0,0.0,0.0,0.0,0.0,0.0,0.0494,0.1657,0.1656,0.1701,0.179,0.2903,0.3436,0.3347,0.3347,0.3358,0.3293,0.2167,0.169,0.0,0.0478,0.0,0.0,0.0,0.0,0.0,0.0,0.0,0.0,0.0,0.0,0.0,0.0,0.0,0.0,-0.009,-0.0135,-0.0135,-0.0225,-0.018,-0.0135,-0.0135,-0.018,-0.0494,-0.1657,-0.2769,-0.3881,-0.5134,-0.6204,-0.7007,-0.7095,-0.7095,-0.7095,-0.7095,-0.7095,-0.7098,-0.7109,-0.7112,-0.7115,-0.7129,-0.7129,-0.7129,-0.7129,-0.7299,-0.7436,-0.7446,-0.7529,-0.7672,-0.7814,-0.7695,-0.7139,-0.6044,-0.595,-0.5476,-0.4338,-0.4284,-0.4282,-0.429,-0.5528,-0.6166,-0.6166,-0.7288,-0.7828,-0.7828,-0.7828,-0.7902,0.0962,0.0,0.3857,0.3583,0.4506,0.548,0.0,0.6294,0.7048,0.0,0.0,0.6818,0.5972,0.5821,0.546,0.0,0.0,0.0,0.0,0.0,0.0,0.0,0.0,0.0,0.0,0.0,0.0,0.0,0.0,0.0,0.0,0.0,0.0135,0.0404,0.0404,0.0852,0.179,0.2102,0.1745,0.0852,0.0852,0.0843,0.0826,0.0565,0.0435,0.0391,0.0131,0.0,0.0,0.0,0.0,0.0,0.0,0.0,0.0,0.0,0.0,0.0,0.0,0.0,-0.0135,-0.1076,-0.1389,-0.1567,-0.2458,-0.2102,-0.1389,-0.1389,-0.2057,-0.2815,-0.3081,-0.3392,-0.3881,-0.5134,-0.5625,-0.6027,-0.6918,-0.7095,-0.7095,-0.7095,-0.7095,-0.7132,-0.7295,-0.7316,-0.7356,-0.7475,-0.7492,-0.7492,-0.7492,-0.7522,-0.7587,-0.7695,-0.774,-0.7821,-0.7924,-0.7848,-0.7662,-0.7478,-0.7488,-0.7337,-0.7088,-0.694,-0.6934,-0.7039,-0.7368,-0.7536,-0.7536,-0.7836,-0.7934,-0.7934,-0.7934,-0.7955,0.0162,0.1498,0.2994,0.2536,0.3298,0.4164,0.4164,0.0,0.0,0.0,0.0,0.0,0.4667,0.0,0.0,0.0,0.0,0.0,0.0,0.0,0.0,0.0,0.0,0.0,0.0,0.0,0.0,0.0,0.0,0.0,0.0,0.0,0.0,0.0,0.0,0.0308,0.0986,0.0986,0.0628,0.0,0.0,0.0,0.0,0.0,0.0,0.0,0.0,0.0,0.0,0.0,0.0,0.0,0.0,0.0,0.0,0.0,0.0,0.0,0.0,-0.0359,-0.0942,-0.1567,-0.2191,-0.2769,-0.3392,-0.3527,-0.3352,-0.2771,-0.3081,-0.3748,-0.4283,-0.4419,-0.473,-0.5891,-0.616,-0.6337,-0.6962,-0.7095,-0.7119,-0.7234,-0.7248,-0.7295,-0.7451,-0.7478,-0.7506,-0.7587,-0.76,-0.76,-0.76,-0.7655,-0.7726,-0.7801,-0.7875,-0.7901,-0.7982,-0.7914,-0.7901,-0.7985,-0.7988,-0.7988,-0.7988,-0.7911,-0.7907,-0.7988,-0.7988,-0.7988,-0.7988,-0.7988,-0.7988,-0.7988,-0.7988,-0.7988,0.0,0.1292,0.242,0.1548,0.2122,0.2912,0.2904,0.0,0.0,0.0,0.0,0.0,0.0,0.0,0.0,0.0,0.0,0.0,0.0,0.0,0.0,0.0,0.0,0.0,0.0,0.0,0.0,0.0,0.0,-0.0448,-0.0268,-0.0264,-0.0174,0.0,0.0,0.0,0.0,0.0,0.0,0.0,0.0,0.0,0.0,0.0,0.0,0.0,0.0,0.0,0.0,0.0,0.0,0.0,0.0,0.0,0.0,0.0,0.0,-0.0045,-0.0225,-0.0942,-0.1879,-0.2236,-0.3038,-0.3926,-0.4103,-0.4863,-0.5445,-0.4417,-0.4148,-0.4372,-0.5401,-0.5669,-0.5894,-0.6874,-0.7095,-0.7095,-0.7095,-0.7095,-0.7142,-0.7343,-0.7415,-0.7428,-0.76,-0.7631,-0.7641,-0.7662,-0.7665,-0.7665,-0.7665,-0.7773,-0.7845,-0.7845,-0.7914,-0.7988,-0.7988,-0.7988,-0.7988,-0.7988,-0.7988,-0.7988,-0.7988,-0.7988,-0.7988,-0.7988,-0.7988,-0.7988,-0.7988,-0.7988,-0.7988,-0.7988,-0.7988,-0.7988,0.0,0.0219,0.0441,0.0299,0.1129,0.1994,0.0,0.0,0.0,0.0,0.0,0.0,0.0,0.0,0.0,0.0,0.0,0.0,0.0,0.0,0.0,0.0,0.0,0.0,0.0,0.0,0.0,0.0,0.0,-0.2615,-0.157,-0.152,-0.1041,-0.0044,0.0,0.0,0.0,0.0,0.0,0.0,0.0,0.0,0.0,0.0,0.0,0.0,0.0,0.0,0.0,0.0,0.0,0.0,0.0,0.0,0.0,0.0,0.0,-0.0135,-0.1165,-0.1657,-0.2148,-0.4198,-0.4956,-0.5312,-0.629,-0.6694,-0.6782,-0.6602,-0.6558,-0.6602,-0.6782,-0.6827,-0.6874,-0.7051,-0.7095,-0.7095,-0.7095,-0.7095,-0.7142,-0.7343,-0.7415,-0.7458,-0.7733,-0.778,-0.7824,-0.7904,-0.7924,-0.7924,-0.7924,-0.7941,-0.7955,-0.7955,-0.7975,-0.7988,-0.7988,-0.7988,-0.7988,-0.7988,-0.7988,-0.7988,-0.7988,-0.7988,-0.7988,-0.7988,-0.7988,-0.7988,-0.7988,-0.7988,-0.7988,-0.7988,-0.7988,-0.7988,0.0,0.0,0.0,0.0,0.0411,0.0846,0.0,0.0,0.0,0.0,0.0,0.0,0.0,0.0,0.0,0.0,0.0,0.0,0.0,0.0,0.0,0.0,0.0,0.0,0.0,0.0,0.0,0.0,0.0,-0.3377,-0.2819,-0.2155,-0.1534,-0.0981,-0.0334,0.0,0.0,0.0,0.0,0.0,0.0,0.0,0.0,0.0,0.0,0.0,0.0,0.0,0.0,0.0,0.0,0.0,0.0,0.0,0.0,0.0,-0.0404,-0.1031,-0.1612,-0.2638,-0.3931,-0.5045,-0.5802,-0.6428,-0.6962,-0.7095,-0.7095,-0.7095,-0.7095,-0.7095,-0.7095,-0.7095,-0.7095,-0.7095,-0.7095,-0.7095,-0.7095,-0.7095,-0.7142,-0.7343,-0.7438,-0.7563,-0.7773,-0.7879,-0.7911,-0.7978,-0.7988,-0.7988,-0.7988,-0.7988,-0.7988,-0.7988,-0.7988,-0.7988,-0.7988,-0.7988,-0.7988,-0.7988,-0.7988,-0.7988,-0.7988,-0.7988,-0.7988,-0.7988,-0.7988,-0.7988,-0.7988,-0.7988,-0.7988,-0.7988,-0.7988,-0.7988,0.0,0.0,0.0,0.0,0.0,0.0,0.0,0.0,0.0,0.0,0.0,0.0,0.0,0.0,0.0,0.0,0.0,0.0,0.0,0.0,0.0,0.0,0.0,0.0,0.0,0.0,0.0,0.0,-0.4417,-0.4265,-0.3959,-0.3069,-0.2341,-0.1789,-0.0846,-0.024,0.0,0.0,0.0,0.0,0.0,0.0,0.0,0.0,0.0,0.0,0.0,0.0,0.0,0.0,0.0,0.0,0.0,0.0,-0.0045,-0.0314,-0.0986,-0.1879,-0.2459,-0.3842,-0.5447,-0.5714,-0.6381,-0.7095,-0.7095,-0.7095,-0.7095,-0.7095,-0.7095,-0.7095,-0.7095,-0.7095,-0.7095,-0.7095,-0.7095,-0.7095,-0.7095,-0.7095,-0.7142,-0.7343,-0.7495,-0.7645,-0.7787,-0.7887,-0.7988,-0.7988,-0.7988,-0.7988,-0.7988,-0.7988,-0.7988,-0.7988,-0.7988,-0.7988,-0.7988,-0.7988,-0.7988,-0.7988,-0.7988,-0.7988,-0.7988,-0.7988,-0.7988,-0.7988,-0.7988,-0.7988,-0.7988,-0.7988,-0.7988,-0.7988,-0.7988,-0.7988,0.0,0.0,0.0,0.0,0.0,0.0,0.0,0.0,0.0,0.0,0.0,0.0,0.0,0.0,0.0,0.0,0.0,0.0,0.0,0.0,0.0,0.0,0.0,0.0,0.0,0.0,0.0,-0.6782,-0.6827,-0.6315,-0.5053,-0.49,-0.3855,-0.167,-0.1542,-0.1014,0.0,0.0,0.0,0.0,0.0,0.0,0.0,0.0,0.0,0.0,0.0,0.0,0.0,0.0,0.0,0.0,0.0,0.0,-0.0135,-0.1254,-0.1746,-0.2102,-0.4376,-0.527,-0.5581,-0.665,-0.7051,-0.7095,-0.7095,-0.7095,-0.7095,-0.7095,-0.7095,-0.7095,-0.7095,-0.7095,-0.7095,-0.7095,-0.7095,-0.7095,-0.7095,-0.7095,-0.7142,-0.7343,-0.7495,-0.7645,-0.7787,-0.7887,-0.7988,-0.7988,-0.7988,-0.7988,-0.7988,-0.7988,-0.7988,-0.7988,-0.7988,-0.7988,-0.7988,-0.7988,-0.7988,-0.7988,-0.7988,-0.7988,-0.7988,-0.7988,-0.7988,-0.7988,-0.7988,-0.7988,-0.7988,-0.7988,-0.7988,-0.7988,-0.7988,-0.7988,0.0,0.0,0.0,0.0,0.0,0.0,0.0,0.0,0.0,0.0,0.0,0.0,0.0,0.0,0.0,0.0,0.0,0.0,0.0,0.0,0.0,0.0,0.0,0.0,0.0,0.0,-0.665,-0.7051,-0.7095,-0.6833,-0.6251,-0.5521,-0.4348,-0.2757,-0.2,-0.1073,0.0,0.0,0.0,0.0,0.0,0.0,0.0,0.0,0.0,0.0,0.0,0.0,0.0,0.0,0.0,-0.0089,-0.0805,-0.1121,-0.1254,-0.2458,-0.3395,-0.4154,-0.5092,-0.5849,-0.6517,-0.6962,-0.7095,-0.7095,-0.7095,-0.7095,-0.7095,-0.7095,-0.7095,-0.7095,-0.7095,-0.7095,-0.7095,-0.7095,-0.7095,-0.7095,-0.7095,-0.7095,-0.7112,-0.7217,-0.7428,-0.7617,-0.7672,-0.7879,-0.8283,-0.9118,-0.9266,-0.9266,-0.9266,-0.9266,-0.892,-0.8088,-0.7988,-0.8333,-0.9167,-0.8482,-0.8333,-0.9217,-0.8482,-0.7988,-0.7988,-0.7988,-0.7988,-0.7988,-0.7988,-0.8432,-0.9266,-0.9266,-0.9653,-1.0435,-1.0435,-0.9998,0.0,0.0,0.0,0.0,0.0,0.0,0.0,0.0,0.0,0.0,0.0,0.0,0.0,0.0,0.0,0.0,0.0,0.0,0.0,0.0,0.0,0.0,0.0,0.0,0.0,-0.7204,-0.7078,-0.7034,-0.7031,-0.6947,-0.6797,-0.5972,-0.4997,-0.3844,-0.2682,-0.1567,-0.051,-0.0157,0.0,0.0,0.0,0.0,0.0,0.0,0.0,0.0,0.0,0.0,0.0,0.0,-0.0225,-0.0628,-0.1478,-0.2013,-0.2503,-0.3705,-0.4688,-0.5447,-0.5802,-0.6428,-0.7095,-0.7095,-0.7095,-0.7095,-0.7095,-0.7095,-0.7095,-0.7095,-0.7095,-0.7095,-0.7095,-0.7095,-0.7095,-0.7095,-0.7095,-0.7095,-0.7095,-0.7401,-0.7595,-0.7248,-0.8051,-0.8679,-0.836,-0.8832,-0.9558,-1.0435,-1.0583,-1.0583,-1.0583,-1.0243,-0.9657,-0.8726,-0.897,-0.946,-0.9948,-0.9509,-0.9262,-0.9361,-0.9262,-0.8871,-0.8038,-0.7988,-0.8187,-0.8627,-0.8627,-0.9266,-1.0583,-1.0583,-1.1068,-1.1896,-1.1896,-1.1409,0.0,0.0,0.0,0.0,0.0,0.0,0.0,0.0,0.0,0.0,0.0,0.0,0.0,0.0,0.0,0.0,0.0,0.0,0.0,0.0,0.0,0.0,0.0,0.0,0.0,-0.7095,-0.7038,-0.6896,-0.6883,-0.6793,-0.6528,-0.6511,-0.5961,-0.473,-0.3671,-0.2618,-0.1607,-0.0549,0.0,0.0,0.0,0.0,0.0,0.0,0.0,0.0,0.0,0.0,0.0,0.0,-0.0718,-0.179,-0.1835,-0.2547,-0.3748,-0.4954,-0.5403,-0.5581,-0.6694,-0.7095,-0.7095,-0.7095,-0.7095,-0.7095,-0.7095,-0.7095,-0.7095,-0.7095,-0.7095,-0.7095,-0.7095,-0.7095,-0.7095,-0.7095,-0.7095,-0.7095,-0.7095,-0.8061,-0.8641,-0.7612,-0.9542,-1.0979,-0.9966,-1.098,-1.1896,-1.1896,-1.1896,-1.1896,-1.1896,-1.0828,-0.9998,-0.9998,-1.117,-1.1409,-1.0145,-1.117,-1.0774,-0.8233,-1.0485,-1.073,-0.8137,-0.8038,-0.8676,-0.9998,-0.9998,-1.0632,-1.1896,-1.1896,-1.1945,-1.1945,-1.1945,-1.1945,0.0,0.0,0.0,0.0,0.0,0.0,0.0,0.0,0.0,0.0,0.0,0.0,0.0,0.0,0.0,0.0,0.0,0.0,0.0,0.0,0.0,0.0,0.0,0.0,-0.7102,-0.7007,-0.693,-0.6889,-0.6827,-0.6681,-0.6521,-0.6511,-0.5961,-0.473,-0.3671,-0.2618,-0.1607,-0.0549,0.0,0.0,0.0,0.0,0.0,0.0,0.0,0.0,0.0,0.0,-0.0045,-0.0897,-0.1478,-0.1969,-0.3662,-0.4554,-0.5001,-0.616,-0.6605,-0.665,-0.6962,-0.7095,-0.7095,-0.7095,-0.7095,-0.7095,-0.7095,-0.7095,-0.7095,-0.7095,-0.7095,-0.7095,-0.7095,-0.7095,-0.7095,-0.7095,-0.7753,-0.8145,-0.7272,-0.8663,-0.9809,-0.8906,-1.0131,-1.1261,-1.1147,-1.1558,-1.2237,-1.3151,-1.3295,-1.3295,-1.3295,-1.2134,-1.1365,-1.1365,-1.1653,-1.2139,-1.2711,-1.2231,-1.1989,-1.2129,-1.1989,-1.1165,-0.946,-1.0288,-1.0925,-1.1312,-1.1365,-1.1994,-1.3295,-1.3295,-1.3782,-1.4663,-1.4663,-1.4172,0.0,0.0,0.0,0.0,0.0,0.0,0.0,0.0,0.0,0.0,0.0,0.0,0.0,0.0,0.0,0.0,0.0,0.0,0.0,0.0,0.0,0.0,0.0,0.0,-0.7018,-0.6933,-0.6836,-0.6756,-0.6661,-0.6546,-0.6436,-0.6426,-0.6067,-0.5356,-0.3865,-0.2813,-0.219,-0.0745,0.0,0.0,0.0,0.0,0.0,0.0,0.0,-0.0045,-0.0494,-0.0718,-0.0807,-0.2013,-0.2815,-0.3396,-0.4823,-0.5669,-0.616,-0.683,-0.7095,-0.7095,-0.7095,-0.7095,-0.7095,-0.7095,-0.7095,-0.7095,-0.7095,-0.7095,-0.7095,-0.7095,-0.7095,-0.7095,-0.7095,-0.7095,-0.7095,-0.7095,-0.7665,-0.8101,-0.7885,-0.9376,-1.0676,-1.0184,-1.1624,-1.2835,-1.2605,-1.3056,-1.374,-1.4513,-1.4657,-1.4459,-1.3974,-1.3638,-1.3253,-1.277,-1.3156,-1.359,-1.3878,-1.3638,-1.3349,-1.3108,-1.3301,-1.2866,-1.1599,-1.1799,-1.2139,-1.2668,-1.2668,-1.3349,-1.4657,-1.4657,-1.5045,-1.5784,-1.5784,-1.5391,0.0,0.0,0.0,0.0,0.0,0.0,0.0,0.0,0.0,0.0,0.0,0.0,0.0,0.0,0.0,0.0,0.0,0.0,0.0,0.0,0.0,0.0,0.0,-0.7004,-0.6876,-0.6852,-0.6773,-0.6532,-0.6501,-0.6436,-0.6306,-0.63,-0.63,-0.63,-0.4295,-0.3202,-0.3085,-0.1135,-0.0079,0.0,0.0,0.0,0.0,0.0,-0.0044,-0.0225,-0.1344,-0.1879,-0.2057,-0.326,-0.4419,-0.5403,-0.5492,-0.6204,-0.7095,-0.7095,-0.7095,-0.7095,-0.7095,-0.7095,-0.7095,-0.7095,-0.7095,-0.7095,-0.7095,-0.7095,-0.7095,-0.7095,-0.7095,-0.7095,-0.7095,-0.7105,-0.7119,-0.7119,-0.7204,-0.7598,-0.8696,-1.0161,-1.131,-1.1497,-1.362,-1.5106,-1.422,-1.5045,-1.5784,-1.5784,-1.5784,-1.5391,-1.422,-1.5092,-1.5343,-1.4214,-1.5092,-1.5337,-1.4166,-1.5146,-1.4806,-1.2431,-1.4465,-1.5289,-1.4118,-1.2915,-1.2818,-1.407,-1.407,-1.4657,-1.5784,-1.5784,-1.5784,-1.5784,-1.5784,-1.5784,0.0,0.0,0.0,0.0,0.0,0.0,0.0,0.0,0.0,0.0,0.0,0.0,0.0,0.0,0.0,0.0,0.0,0.0,0.0,0.0,0.0,0.0,0.0,-0.6783,-0.6753,-0.6641,-0.6542,-0.6518,-0.6409,-0.633,-0.6303,-0.63,-0.63,-0.63,-0.504,-0.3943,-0.3124,-0.1879,-0.0824,0.0,0.0,0.0,0.0,0.0,-0.0528,-0.1433,-0.17,-0.2325,-0.3304,-0.451,-0.5179,-0.5492,-0.6381,-0.6874,-0.7095,-0.7095,-0.7095,-0.7095,-0.7095,-0.7095,-0.7095,-0.7095,-0.7095,-0.7095,-0.7095,-0.7095,-0.7095,-0.7095,-0.7095,-0.7095,-0.7095,-0.7231,-0.7322,-0.7322,-0.8031,-0.8784,-0.9146,-1.1005,-1.2694,-1.3095,-1.4362,-1.5392,-1.5393,-1.5635,-1.5784,-1.5784,-1.5784,-1.5683,-1.5439,-1.5635,-1.5683,-1.5439,-1.5635,-1.5683,-1.5391,-1.5635,-1.554,-1.5003,-1.5493,-1.5683,-1.5384,-1.5099,-1.5099,-1.5391,-1.5391,-1.5534,-1.5784,-1.5784,-1.5784,-1.5784,-1.5784,-1.5784,0.0,0.0,0.0,0.0,0.0,0.0,0.0,0.0,0.0,0.0,0.0,0.0,0.0,0.0,0.0,0.0,0.0,0.0,0.0,0.0,0.0,0.0,-0.6702,-0.6671,-0.66,-0.6559,-0.6484,-0.6416,-0.634,-0.63,-0.63,-0.63,-0.63,-0.63,-0.5276,-0.4178,-0.3124,-0.2113,-0.1058,0.0,0.0,0.0,0.0,0.0,-0.066,-0.1835,-0.2413,-0.335,-0.4552,-0.5714,-0.6204,-0.6293,-0.6874,-0.7095,-0.7095,-0.7095,-0.7095,-0.7095,-0.7095,-0.7095,-0.7095,-0.7095,-0.7095,-0.7095,-0.7095,-0.7095,-0.7095,-0.7095,-0.7095,-0.7095,-0.7095,-0.7255,-0.7415,-0.7415,-0.7925,-0.857,-0.9159,-1.091,-1.2587,-1.338,-1.4646,-1.5651,-1.5758,-1.5784,-1.5784,-1.5784,-1.5784,-1.5784,-1.5784,-1.5784,-1.5784,-1.5784,-1.5784,-1.5784,-1.5784,-1.5784,-1.5784,-1.5784,-1.5784,-1.5784,-1.5784,-1.5784,-1.5784,-1.5784,-1.5784,-1.5784,-1.5784,-1.5784,-1.5784,-1.5784,-1.5784,-1.5784,0.0,0.0,0.0,0.0,0.0,0.0,0.0,0.0,0.0,0.0,0.0,0.0,0.0,0.0,0.0,0.0,0.0,0.0,0.0,0.0,0.0,0.0,-0.6624,-0.6576,-0.6487,-0.6474,-0.6426,-0.631,-0.63,-0.63,-0.63,-0.63,-0.63,-0.63,-0.5431,-0.445,-0.3396,-0.2542,-0.1528,-0.0275,-0.0079,-0.0121,-0.0295,-0.03,-0.0963,-0.2191,-0.3393,-0.4596,-0.5761,-0.6694,-0.7095,-0.7095,-0.7095,-0.7095,-0.7095,-0.7095,-0.7095,-0.7095,-0.7095,-0.7095,-0.7095,-0.7095,-0.7095,-0.7095,-0.7095,-0.7095,-0.7095,-0.7095,-0.7115,-0.7129,-0.7102,-0.7292,-0.7441,-0.7463,-0.7729,-0.832,-0.9448,-1.0759,-1.2141,-1.3555,-1.4886,-1.5784,-1.5784,-1.5784,-1.5784,-1.5784,-1.5784,-1.5784,-1.5784,-1.5784,-1.5784,-1.5784,-1.5784,-1.5784,-1.5784,-1.5784,-1.5784,-1.5784,-1.5784,-1.5784,-1.5784,-1.5784,-1.5784,-1.5784,-1.5784,-1.5784,-1.5784,-1.5784,-1.5784,-1.5784,-1.5784,-1.5784,0.0,0.0,0.0,0.0,0.0,0.0,0.0,0.0,0.0,0.0,0.0,0.0,0.0,0.0,0.0,0.0,0.0,0.0,0.0,0.0,0.0,0.0,-0.6358,-0.6351,-0.633,-0.6327,-0.632,-0.6303,-0.63,-0.63,-0.63,-0.63,-0.63,-0.63,-0.6141,-0.5589,-0.4491,-0.4336,-0.3322,-0.1372,-0.0432,-0.0563,-0.1552,-0.1556,-0.2238,-0.3436,-0.4643,-0.5802,-0.6874,-0.7051,-0.7095,-0.7095,-0.7095,-0.7095,-0.7095,-0.7095,-0.7095,-0.7095,-0.7095,-0.7095,-0.7095,-0.7095,-0.7095,-0.7095,-0.7095,-0.7095,-0.7095,-0.7095,-0.7238,-0.7309,-0.7132,-0.7444,-0.7723,-0.7597,-0.8634,-0.9976,-1.1133,-1.1647,-1.2576,-1.4994,-1.5656,-1.5784,-1.5784,-1.5784,-1.5784,-1.5784,-1.5784,-1.5784,-1.5784,-1.5784,-1.5784,-1.5784,-1.5784,-1.5784,-1.5784,-1.5784,-1.5784,-1.5784,-1.5784,-1.5784,-1.5784,-1.5784,-1.5784,-1.5784,-1.5784,-1.5784,-1.5784,-1.5784,-1.5784,-1.5784,-1.5784,-1.5784,0.0,0.0,0.0,0.0,0.0,0.0,0.0,0.0,0.0,0.0,0.0,0.0,0.0,0.0,0.0,0.0,0.0,0.0,0.0,0.0,0.0,0.0,-0.63,-0.63,-0.63,-0.63,-0.63,-0.63,-0.63,-0.63,-0.63,-0.63,-0.63,-0.63,-0.63,-0.5786,-0.4727,-0.4688,-0.3945,-0.2425,-0.1956,-0.2044,-0.2681,-0.3348,-0.3986,-0.4641,-0.5179,-0.6027,-0.7095,-0.7095,-0.7095,-0.7095,-0.7095,-0.7095,-0.7095,-0.7095,-0.7095,-0.7095,-0.7095,-0.7095,-0.7095,-0.7095,-0.7095,-0.7095,-0.7095,-0.72,-0.7272,-0.7272,-0.738,-0.7485,-0.7417,-0.7546,-0.7695,-0.7712,-0.8245,-0.9316,-1.1361,-1.2453,-1.359,-1.5439,-1.5784,-1.5784,-1.5784,-1.5784,-1.5784,-1.5784,-1.5784,-1.5784,-1.5784,-1.5784,-1.5784,-1.5784,-1.5784,-1.5784,-1.5784,-1.5784,-1.5784,-1.5784,-1.5784,-1.5784,-1.5784,-1.5784,-1.5784,-1.5784,-1.5784,-1.5784,-1.5784,-1.5784,-1.5784,-1.5784,-1.5784,-1.5784,0.0,0.0,0.0,0.0,0.0,0.0,0.0,0.0,0.0,0.0,0.0,0.0,0.0,0.0,0.0,0.0,0.0,0.0,0.0,0.0,0.0,0.0,-0.63,-0.63,-0.63,-0.63,-0.63,-0.63,-0.63,-0.63,-0.63,-0.63,-0.63,-0.63,-0.63,-0.5906,-0.5118,-0.4844,-0.4295,-0.3513,-0.324,-0.3323,-0.3768,-0.4684,-0.5355,-0.5849,-0.5849,-0.6293,-0.7095,-0.7095,-0.7095,-0.7095,-0.7095,-0.7095,-0.7095,-0.7095,-0.7095,-0.7095,-0.7095,-0.7095,-0.7095,-0.7095,-0.7095,-0.7102,-0.7142,-0.7278,-0.7426,-0.7417,-0.7539,-0.7645,-0.7607,-0.7655,-0.7729,-0.7794,-0.808,-0.9009,-1.1376,-1.3204,-1.4657,-1.5635,-1.5784,-1.5784,-1.5784,-1.5784,-1.5784,-1.5784,-1.5784,-1.5784,-1.5784,-1.5784,-1.5784,-1.5784,-1.5784,-1.5784,-1.5784,-1.5784,-1.5784,-1.5784,-1.5784,-1.5784,-1.5784,-1.5784,-1.5784,-1.5784,-1.5784,-1.5784,-1.5784,-1.5784,-1.5784,-1.5784,-1.5784,-1.5635,0.0,0.0,0.0,0.0,0.0,0.0,0.0,0.0,0.0,0.0,0.0,0.0,0.0,0.0,0.0,0.0,0.0,0.0,0.0,0.0,0.0,0.0,0.0,-0.63,-0.63,-0.63,-0.63,-0.63,-0.63,-0.63,-0.63,-0.63,-0.63,-0.63,-0.63,-0.6261,-0.6222,-0.5198,-0.4686,-0.4608,-0.3593,-0.376,-0.5017,-0.5059,-0.5783,-0.7007,-0.7007,-0.7051,-0.7095,-0.7095,-0.7095,-0.7095,-0.7095,-0.7095,-0.7095,-0.7095,-0.7095,-0.7095,-0.7095,-0.7095,-0.7095,-0.7095,-0.7095,-0.7122,-0.7316,-0.7409,-0.7446,-0.7546,-0.7689,-0.777,-0.7634,-0.7807,-0.7931,-0.7845,-0.889,-1.028,-1.1604,-1.3884,-1.573,-1.5778,-1.5784,-1.5784,-1.5784,-1.5784,-1.5784,-1.5784,-1.5784,-1.5784,-1.5784,-1.5784,-1.5784,-1.5784,-1.5784,-1.5784,-1.5784,-1.5784,-1.5784,-1.5784,-1.5784,-1.5784,-1.5784,-1.5784,-1.5784,-1.5784,-1.5784,-1.5784,-1.5784,-1.5784,-1.5784,-1.5784,-1.5784,-1.5146,0.0,0.0,0.0,0.0,0.0,0.0,0.0,0.0,0.0,0.0,0.0,0.0,0.0,0.0,0.0,0.0,0.0,0.0,0.0,0.0,0.0,0.0,0.0,-0.63,-0.63,-0.63,-0.63,-0.63,-0.63,-0.63,-0.63,-0.63,-0.63,-0.63,-0.63,-0.63,-0.63,-0.5906,-0.5709,-0.5709,-0.5354,-0.5441,-0.6016,-0.6016,-0.6338,-0.696,-0.696,-0.7011,-0.7095,-0.7095,-0.7095,-0.7095,-0.7095,-0.7095,-0.7095,-0.7095,-0.7095,-0.7095,-0.7095,-0.7095,-0.7095,-0.7095,-0.7095,-0.7125,-0.7326,-0.7441,-0.755,-0.7695,-0.7841,-0.7897,-0.7847,-0.7885,-0.7879,-0.7824,-0.8942,-1.0096,-1.0583,-1.2042,-1.3788,-1.5486,-1.5784,-1.5784,-1.5784,-1.5784,-1.5784,-1.5784,-1.5784,-1.5784,-1.5784,-1.5784,-1.5784,-1.5784,-1.5784,-1.5784,-1.5784,-1.5784,-1.5784,-1.5784,-1.5784,-1.5784,-1.5784,-1.5784,-1.5784,-1.5784,-1.5784,-1.5784,-1.5784,-1.5784,-1.5784,-1.5784,-1.5784,-1.5581,0.0,0.0,0.0,0.0,0.0,0.0,0.0,0.0,0.0,0.0,0.0,0.0,0.0,0.0,0.0,0.0,0.0,0.0,0.0,0.0,0.0,0.0,0.0,-0.63,-0.63,-0.63,-0.63,-0.63,-0.63,0.0,-0.63,-0.63,-0.63,-0.63,-0.63,-0.63,-0.63,-0.63,-0.63,-0.63,-0.63,-0.6375,-0.6511,-0.6511,-0.6637,-0.6886,-0.6886,-0.6967,-0.7095,-0.7095,-0.7095,-0.7095,-0.7095,-0.7095,-0.7095,-0.7095,-0.7095,-0.7095,-0.7095,-0.7095,-0.7095,-0.7095,-0.7132,-0.7248,-0.74,-0.7553,-0.7702,-0.7845,-0.7911,-0.7988,-0.7988,-0.7914,-0.7889,-0.7889,-0.8596,-0.946,-0.9899,-1.1361,-1.3108,-1.4854,-1.5486,-1.5784,-1.5784,-1.5784,-1.5784,-1.5784,-1.5784,-1.5784,-1.5784,-1.5784,-1.5784,-1.5784,-1.5784,-1.5784,-1.5784,-1.5784,-1.5784,-1.5784,-1.5784,-1.5784,-1.5784,-1.5784,-1.5784,-1.5784,-1.5784,-1.5588,-1.5146,-1.5581,-1.5784,-1.5784,-1.5784,-1.5784,0.0,0.0,0.0,0.0,0.0,0.0,0.0,0.0,0.0,0.0,0.0,0.0,0.0,0.0,0.0,0.0,0.0,0.0,0.0,0.0,0.0,0.0,0.0,-0.63,-0.63,-0.63,-0.63,-0.63,-0.63,-0.63,-0.63,-0.63,-0.63,-0.63,-0.63,-0.63,-0.63,-0.63,-0.63,-0.63,-0.63,-0.6371,-0.6504,-0.6504,-0.663,-0.6873,-0.6876,-0.696,-0.7092,-0.7095,-0.7095,-0.7095,-0.7095,-0.7095,-0.7095,-0.7095,-0.7095,-0.7095,-0.7095,-0.7095,-0.7095,-0.7095,-0.7244,-0.7446,-0.7553,-0.7699,-0.7841,-0.7944,-0.7988,-0.7988,-0.7988,-0.7988,-0.7988,-0.7988,-0.7988,-0.8333,-0.9657,-1.1984,-1.383,-1.3872,-1.4902,-1.5778,-1.5778,-1.5784,-1.5784,-1.5784,-1.5784,-1.5784,-1.5784,-1.5784,-1.5784,-1.5784,-1.5784,-1.5784,-1.5784,-1.5784,-1.5784,-1.5784,-1.5784,-1.5784,-1.5784,-1.5784,-1.5784,-1.5784,-1.5784,-1.5194,-1.3968,-1.5194,-1.5784,-1.573,-1.573,-1.573,0.0,0.0,0.0,0.0,0.0,0.0,0.0,0.0,0.0,0.0,0.0,0.0,0.0,0.0,0.0,0.0,0.0,0.0,0.0,0.0,0.0,0.0,0.0,0.0,-0.63,-0.63,-0.63,0.0,-0.63,-0.63,-0.63,-0.63,-0.63,-0.63,-0.63,-0.63,-0.63,-0.63,-0.63,-0.63,-0.63,-0.632,-0.6358,-0.6358,-0.646,-0.6603,-0.6715,-0.6848,-0.6953,-0.7055,-0.7095,-0.7095,-0.7095,-0.7095,-0.7095,-0.7095,-0.7095,-0.7095,-0.7095,-0.7095,-0.7095,-0.7095,-0.7244,-0.7446,-0.7553,-0.7699,-0.7841,-0.7944,-0.7988,-0.7988,-0.7988,-0.7988,-0.7988,-0.7988,-0.7988,-0.8088,-0.8482,-0.9895,-1.1648,-1.3536,-1.4166,-1.4704,-1.5635,-1.5784,-1.5784,-1.5784,-1.5784,-1.5784,-1.5784,-1.5784,-1.5784,-1.5784,-1.5784,-1.5784,-1.5784,-1.5784,-1.5784,-1.5784,-1.5784,-1.5784,-1.5784,-1.5784,-1.5784,-1.5784,-1.5784,-1.5635,-1.5289,-1.5635,-1.5337,-1.4411,-1.4411,-1.4411,0.0,0.0,0.0,0.0,0.0,0.0,0.0,-0.4517,0.0,0.0,0.0,0.0,0.0,0.0,0.0,0.0,0.0,0.0,0.0,0.0,0.0,0.0,0.0,0.0,-0.63,-0.63,-0.63,-0.63,-0.63,-0.63,-0.63,-0.63,-0.63,-0.63,-0.63,-0.63,-0.63,-0.63,-0.63,-0.63,-0.63,-0.63,-0.63,-0.63,-0.6412,-0.6573,-0.6661,-0.682,-0.698,-0.7061,-0.7095,-0.7095,-0.7095,-0.7095,-0.7095,-0.7095,-0.7095,-0.7095,-0.7095,-0.7095,-0.7095,-0.7095,-0.7244,-0.7446,-0.7553,-0.7699,-0.7841,-0.7944,-0.7988,-0.7988,-0.7988,-0.7988,-0.7988,-0.7988,-0.7988,-0.7988,-0.7988,-0.8627,-0.9948,-1.2571,-1.3536,-1.431,-1.5588,-1.5784,-1.5784,-1.5784,-1.5784,-1.5784,-1.5784,-1.5784,-1.5784,-1.5784,-1.5784,-1.5784,-1.5784,-1.5784,-1.5784,-1.5784,-1.5784,-1.5784,-1.5784,-1.5784,-1.5784,-1.5784,-1.5784,-1.5784,-1.5784,-1.5784,-1.5146,-1.3872,-1.3343,-1.3054,0.0,0.0,0.0,0.0,0.0,0.0,-0.4094,-0.4791,-0.5443,0.0,0.0,0.0,0.0,0.0,0.0,0.0,0.0,0.0,0.0,0.0,0.0,0.0,0.0,0.0,-0.63,-0.63,-0.63,-0.63,-0.63,-0.63,-0.63,-0.63,-0.63,-0.63,-0.63,-0.63,-0.63,-0.63,-0.63,-0.63,-0.63,-0.63,-0.63,-0.63,-0.6443,-0.6654,-0.6685,-0.6851,-0.7051,-0.7082,-0.7095,-0.7095,-0.7095,-0.7095,-0.7095,-0.7095,-0.7095,-0.7095,-0.7095,-0.7095,-0.7095,-0.7095,-0.7244,-0.7446,-0.7553,-0.7699,-0.7841,-0.7944,-0.7988,-0.7988,-0.7988,-0.7988,-0.7988,-0.7988,-0.7988,-0.7988,-0.7988,-0.8137,-0.897,-1.1409,-1.2861,-1.4124,-1.554,-1.5784,-1.5784,-1.5784,-1.5784,-1.5784,-1.5784,-1.5784,-1.5784,-1.5784,-1.5784,-1.5784,-1.5784,-1.5784,-1.5784,-1.5784,-1.5784,-1.5784,-1.5784,-1.5784,-1.5784,-1.5784,-1.5784,-1.573,-1.5588,-1.5588,-1.4997,-1.3878,-1.2522,-1.1799,-0.2292,-0.2604,0.0,0.0,0.0,0.0,-0.3924,-0.4556,-0.516,0.0,0.0,0.0,0.0,0.0,0.0,0.0,0.0,0.0,0.0,0.0,0.0,0.0,0.0,0.0,-0.63,-0.63,-0.63,-0.63,-0.63,-0.63,-0.63,-0.63,-0.63,-0.63,-0.63,-0.63,-0.63,-0.63,-0.63,-0.63,-0.63,-0.63,-0.63,-0.63,-0.633,-0.6399,-0.6597,-0.6732,-0.6803,-0.6997,-0.7095,-0.7095,-0.7095,-0.7095,-0.7095,-0.7095,-0.7095,-0.7095,-0.7095,-0.7095,-0.7095,-0.7095,-0.7244,-0.7446,-0.7553,-0.7699,-0.7841,-0.7944,-0.7988,-0.7988,-0.7988,-0.7988,-0.7988,-0.7988,-0.7988,-0.7988,-0.7988,-0.8825,-1.0047,-1.1604,-1.2091,-1.306,-1.5391,-1.5784,-1.5784,-1.5784,-1.5784,-1.5784,-1.5784,-1.5784,-1.5784,-1.5784,-1.5784,-1.5784,-1.5784,-1.5784,-1.5784,-1.5784,-1.5784,-1.5784,-1.5784,-1.5784,-1.5784,-1.5784,-1.5784,-1.5289,-1.4262,-1.4262,-1.4118,-1.3878,-1.2522,-1.1361,-0.2717,-0.3311,0.0,-0.3707,0.0,0.0,0.0,0.0,-0.5056,0.0,0.0,0.0,0.0,0.0,0.0,0.0,0.0,0.0,0.0,0.0,0.0,0.0,0.0,0.0,-0.63,-0.63,-0.63,-0.63,-0.63,-0.63,-0.63,-0.63,-0.63,-0.63,-0.63,-0.63,-0.63,-0.63,-0.63,-0.63,-0.63,-0.63,-0.63,-0.63,-0.6337,-0.6416,-0.6522,-0.6671,-0.6824,-0.693,-0.7034,-0.7095,-0.7095,-0.7095,-0.7095,-0.7095,-0.7095,-0.7095,-0.7095,-0.7095,-0.7095,-0.7095,-0.7149,-0.7285,-0.7441,-0.7638,-0.7828,-0.7902,-0.7931,-0.7988,-0.7988,-0.7988,-0.7988,-0.7988,-0.7988,-0.8184,-0.8874,-0.9509,-1.0583,-1.2522,-1.2909,-1.3542,-1.5439,-1.5784,-1.5784,-1.5784,-1.5784,-1.5784,-1.5784,-1.5784,-1.5784,-1.5784,-1.5784,-1.5784,-1.5784,-1.5784,-1.5784,-1.5784,-1.5784,-1.5784,-1.5784,-1.5784,-1.5784,-1.5784,-1.5194,-1.4555,-1.3926,-1.3247,-1.2571,-1.194,-1.0578,-0.9604,0.0,0.0,0.0,0.0,0.0,-0.5525,0.0,0.0,0.0,0.0,0.0,0.0,0.0,0.0,0.0,0.0,0.0,0.0,0.0,0.0,0.0,0.0,0.0,0.0,-0.6296,-0.6272,-0.6269,-0.6296,-0.6272,-0.6269,-0.6296,-0.63,-0.63,-0.63,-0.63,-0.63,-0.63,-0.63,-0.63,-0.63,-0.63,-0.63,-0.63,-0.63,-0.6361,-0.6474,-0.6532,-0.6658,-0.6846,-0.6903,-0.6994,-0.7095,-0.7095,-0.7095,-0.7095,-0.7095,-0.7095,-0.7095,-0.7095,-0.7095,-0.7095,-0.7095,-0.7115,-0.7214,-0.737,-0.76,-0.7818,-0.7845,-0.7894,-0.7988,-0.7988,-0.7988,-0.7988,-0.7988,-0.7988,-0.8382,-0.9706,-1.0194,-1.1068,-1.344,-1.4118,-1.4609,-1.5635,-1.5784,-1.5784,-1.5784,-1.5784,-1.5784,-1.5784,-1.5784,-1.5784,-1.5784,-1.5784,-1.5784,-1.5784,-1.5784,-1.5784,-1.5784,-1.5784,-1.5784,-1.5784,-1.5581,-1.554,-1.5784,-1.4316,-1.3488,-1.3488,-1.2188,-1.1023,-0.9948,-0.8874,-0.8237,0.0,0.0,0.0,0.0,-0.5805,0.0,0.0,0.0,-0.5245,-0.4867,0.0,0.0,0.0,0.0,0.0,0.0,0.0,0.0,0.0,0.0,0.0,0.0,0.0,0.0,-0.6286,-0.6135,-0.6112,-0.6289,-0.6132,-0.6115,-0.6293,-0.63,-0.63,-0.63,-0.63,-0.63,-0.63,-0.63,-0.63,-0.63,-0.63,-0.63,-0.63,-0.63,-0.631,-0.6337,-0.6563,-0.6695,-0.6746,-0.6964,-0.7082,-0.7095,-0.7095,-0.7095,-0.7095,-0.7095,-0.7095,-0.7095,-0.7095,-0.7095,-0.7095,-0.7095,-0.7234,-0.7373,-0.7529,-0.7685,-0.7838,-0.7924,-0.7975,-0.7988,-0.7988,-0.7988,-0.7988,-0.7988,-0.7988,-0.8382,-0.9706,-1.0877,-1.2139,-1.359,-1.48,-1.5635,-1.5784,-1.5784,-1.5784,-1.5784,-1.5784,-1.5784,-1.5784,-1.5784,-1.5784,-1.5784,-1.5784,-1.5784,-1.5784,-1.5784,-1.5784,-1.5784,-1.5784,-1.5784,-1.5784,-1.4704,-1.4657,-1.5784,-1.3397,-1.2139,-1.2139,-1.0828,-1.0145,-0.9998,-0.985,-0.9118,0.0,0.0,0.0,0.0,0.0,0.0,-0.5335,0.0,-0.5101,0.0,0.0,0.0,0.0,0.0,0.0,0.0,0.0,0.0,0.0,0.0,0.0,0.0,0.0,0.0,-0.6112,-0.6067,-0.6095,-0.6286,-0.6118,-0.6098,-0.6289,-0.63,-0.63,-0.63,-0.63,-0.63,-0.63,-0.63,-0.63,-0.63,-0.63,-0.63,-0.63,-0.63,-0.63,-0.6313,-0.6518,-0.6617,-0.6715,-0.6886,-0.7021,-0.7095,-0.7095,-0.7095,-0.7095,-0.7095,-0.7095,-0.7095,-0.7095,-0.7095,-0.7095,-0.7095,-0.7139,-0.7265,-0.7421,-0.757,-0.7719,-0.7865,-0.7909,-0.7877,-0.7968,-0.7924,-0.788,-0.7968,-0.7988,-0.8382,-0.9706,-1.0435,-1.1165,-1.2474,-1.3782,-1.4459,-1.3692,-1.4806,-1.5784,-1.5784,-1.5784,-1.5784,-1.5784,-1.5784,-1.5784,-1.5784,-1.5784,-1.5784,-1.5784,-1.5784,-1.5486,-1.4752,-1.4704,-1.4364,-1.3547,-1.3782,-1.3782,-1.3547,-1.175,-1.0779,-1.0779,-0.946,-0.8825,-0.8825,-0.8825,-0.8531,-0.5711,0.0,0.0,0.0,0.0,0.0,0.0,0.0,0.0,0.0,0.0,0.0,0.0,0.0,0.0,0.0,0.0,0.0,0.0,0.0,0.0,0.0,0.0,0.0,0.0,-0.5895,-0.5989,-0.6183,-0.6054,-0.6054,-0.6289,-0.63,-0.63,-0.63,-0.63,-0.63,-0.63,-0.63,-0.63,-0.63,-0.63,-0.63,-0.63,-0.63,-0.63,-0.6306,-0.645,-0.6536,-0.6654,-0.6848,-0.6947,-0.7041,-0.7082,-0.7095,-0.7095,-0.7095,-0.7095,-0.7095,-0.7095,-0.7095,-0.7095,-0.7095,-0.7095,-0.7125,-0.7326,-0.7478,-0.7621,-0.7726,-0.778,-0.7828,-0.785,-0.7865,-0.7838,-0.7901,-0.7961,-0.8382,-0.9706,-0.9998,-1.0391,-1.1658,-1.2668,-1.3054,-1.2091,-1.3788,-1.5289,-1.5289,-1.4956,-1.5003,-1.573,-1.5146,-1.4854,-1.5242,-1.4956,-1.4711,-1.4711,-1.4711,-1.4322,-1.3392,-1.3343,-1.2915,-1.1945,-1.2522,-1.2522,-1.1901,-1.0288,-0.9657,-0.9998,-0.8676,-0.7988,-0.7988,-0.7988,-0.7988,0.0,0.0,0.0,-0.5881,0.0,0.0,0.0,0.0,-0.5447,0.0,0.0,0.0,0.0,0.0,0.0,0.0,0.0,0.0,0.0,0.0,0.0,0.0,0.0,0.0,0.0,-0.5684,-0.5725,0.0,-0.5895,-0.5942,-0.6282,-0.63,-0.63,-0.63,-0.63,-0.63,-0.63,-0.63,-0.63,-0.63,-0.63,-0.63,-0.63,-0.63,-0.63,-0.6306,-0.645,-0.6515,-0.6542,-0.6803,-0.6889,-0.6906,-0.7045,-0.7095,-0.7095,-0.7095,-0.7095,-0.7095,-0.7095,-0.7095,-0.7095,-0.7095,-0.7095,-0.7125,-0.7326,-0.7478,-0.76,-0.7604,-0.7706,-0.778,-0.7648,-0.7712,-0.7814,-0.7818,-0.7884,-0.8382,-0.9706,-0.9998,-1.0391,-1.1658,-1.1945,-1.1945,-1.1901,-1.306,-1.3968,-1.3968,-1.2866,-1.2915,-1.5486,-1.3596,-1.2528,-1.383,-1.2813,-1.2042,-1.2042,-1.2042,-1.1994,-1.1945,-1.1945,-1.1945,-1.1896,-1.0779,-1.0681,-1.1901,-0.9361,-0.8726,-0.9998,-0.8676,-0.7988,-0.7988,-0.7988,-0.7988,0.0,0.0,-0.5351,-0.5814,0.0,0.0,0.0,0.0,0.0,0.0,0.0,0.0,0.0,0.0,0.0,0.0,0.0,0.0,0.0,0.0,0.0,0.0,0.0,0.0,0.0,0.0,0.0,0.0,-0.5946,0.0,-0.6289,-0.6388,-0.6399,-0.6303,-0.63,-0.63,-0.63,-0.63,-0.63,-0.63,-0.63,-0.63,-0.63,-0.63,-0.63,-0.6306,-0.645,-0.6529,-0.6637,-0.6844,-0.694,-0.7031,-0.7078,-0.7095,-0.7095,-0.7095,-0.7095,-0.7095,-0.7095,-0.7095,-0.7095,-0.7095,-0.7095,-0.7125,-0.7326,-0.7453,-0.7468,-0.757,-0.756,-0.7533,-0.7587,-0.7634,-0.7695,-0.7787,-0.788,-0.8137,-0.8581,-0.8676,-0.8825,-0.9213,-1.0047,-1.0337,-0.946,-1.0431,-1.1599,-1.2425,-1.2188,-1.2237,-1.3108,-1.2431,-1.2091,-1.2528,-1.2188,-1.1896,-1.1896,-1.1116,-1.0632,-1.0632,-1.0632,-1.0239,-0.9361,-0.9756,-0.9801,-0.9312,-0.8428,-0.8233,-0.8676,-0.8233,-0.7988,-0.7988,-0.7988,-0.7988,-0.6183,-0.5786,0.0,-0.5419,-0.4815,0.0,-0.4736,0.0,-0.4716,0.0,0.0,0.0,0.0,0.0,0.0,0.0,0.0,0.0,0.0,0.0,0.0,0.0,0.0,0.0,0.0,0.0,-0.5654,-0.5966,-0.5993,0.0,0.0,-0.6515,-0.6525,-0.6378,-0.6375,-0.6351,-0.63,-0.63,-0.63,-0.63,-0.63,-0.63,-0.63,-0.63,-0.63,-0.6306,-0.6399,-0.6521,-0.663,-0.6783,-0.6893,-0.7024,-0.7078,-0.7095,-0.7095,-0.7095,-0.7095,-0.7095,-0.7095,-0.7095,-0.7095,-0.7095,-0.7095,-0.7112,-0.7258,-0.7326,-0.7426,-0.7424,-0.7404,-0.738,-0.7424,-0.7519,-0.7624,-0.7712,-0.7892,-0.7988,-0.7988,-0.7988,-0.7988,-0.7988,-0.8676,-0.9019,-0.8137,-0.8726,-0.9752,-1.1023,-1.0828,-1.0828,-1.1799,-1.1068,-1.0681,-1.1165,-1.0774,-1.0534,-1.0534,-0.9752,-0.9266,-0.9266,-0.9266,-0.892,-0.8038,-0.8825,-0.8874,-0.8041,-0.7988,-0.7988,-0.7988,-0.7988,-0.7988,-0.7988,-0.7988,-0.7988]}]]